GFSCGP_sfc_temp_000.txt.gz
Temp
46 42 41 49 46 46 40 39 39 43 50 43 50 51 53 56 53 57 60 59 59 62 65 66 60 56 52 49 51 52 49 50 49 46 43 42 44 42 41 42 43 42 41 40
41 38 49 47 45 44 41 41 43 48 50 43 45 46 53 55 56 58 59 61 61 61 63 64 55 51 49 51 50 49 49 49 50 49 49 45 48 42 45 40 39 42 39 39
45 49 48 46 42 43 39 38 43 42 43 41 39 43 42 49 50 55 56 60 56 56 61 63 53 51 48 46 46 49 49 48 50 48 46 37 36 35 34 34 37 38 40 39
41 46 47 40 42 44 42 46 45 42 37 34 39 35 40 48 51 53 56 52 53 55 54 54 53 50 50 50 46 47 47 47 49 48 45 45 44 43 43 45 44 40 40 39
43 40 39 39 44 44 43 45 42 37 35 31 32 30 37 42 46 50 53 54 52 54 53 54 54 53 51 48 44 44 45 45 47 47 47 46 46 47 38 38 39 38 37 38
42 42 45 46 45 45 43 39 37 33 33 27 36 35 45 40 44 46 54 62 56 55 54 53 51 49 48 42 40 41 42 43 45 46 45 47 46 37 38 36 38 36 36 35
38 41 42 45 40 39 40 35 27 24 21 27 33 31 46 51 55 52 53 53 53 52 50 50 49 47 46 41 39 39 40 40 41 43 44 45 45 40 42 39 40 37 36 36
35 38 41 43 45 42 37 40 28 23 21 33 28 30 46 52 53 53 50 50 48 50 50 49 49 45 44 42 39 40 39 39 39 41 42 41 42 42 42 39 40 38 39 39
34 35 40 42 43 45 37 35 42 33 35 26 38 41 49 54 48 47 45 46 47 50 50 51 49 46 43 41 40 39 39 39 39 40 40 40 41 40 40 37 37 38 39 38
44 37 42 40 40 41 42 42 32 30 24 23 32 36 40 49 54 50 48 46 49 48 49 50 51 48 44 41 39 39 39 39 38 39 41 42 42 42 40 37 38 37 37 35
44 39 37 36 36 39 36 35 35 36 33 29 28 36 50 53 55 45 44 47 47 43 41 42 44 45 45 44 41 39 38 38 37 37 39 38 37 38 38 37 38 38 36 35
44 40 33 38 40 43 41 42 40 33 31 33 33 33 51 50 51 43 35 36 38 39 39 40 41 41 42 43 44 44 42 39 39 38 38 36 37 36 36 37 37 37 35 34
43 35 29 31 36 35 33 37 40 39 32 29 26 30 50 46 32 35 34 35 37 39 39 40 41 41 42 42 42 43 43 43 41 42 37 37 37 35 37 39 38 37 36 34
44 35 33 28 33 37 34 36 37 35 30 30 30 34 41 28 28 28 34 35 36 38 39 39 40 40 41 42 42 41 41 42 40 39 37 37 36 37 40 40 39 36 36 35
39 32 35 37 37 34 32 31 32 30 33 27 32 32 30 23 25 28 32 34 35 36 37 38 38 38 39 39 40 40 40 39 39 37 38 39 38 36 37 37 37 35 34 35
37 28 29 25 31 32 29 31 31 32 32 32 32 29 26 28 32 32 33 31 32 34 36 38 38 38 38 39 38 38 38 37 36 35 35 37 36 36 33 36 36 33 33 33
30 28 25 21 28 26 20 27 30 32 36 28 23 21 23 24 29 32 33 31 32 31 32 35 35 36 36 38 38 36 36 35 34 34 35 34 34 33 34 31 30 31 31 32
29 26 21 20 17 12 26 28 28 25 24 25 23 20 23 26 30 32 32 31 31 33 34 35 35 34 34 35 35 35 35 34 33 33 32 32 31 31 30 27 29 28 29 30
32 27 14 12 7 20 27 24 23 23 21 25 25 28 27 28 27 29 34 33 31 31 33 33 32 31 32 31 33 32 30 32 33 33 32 31 30 29 28 25 26 27 28 29
29 29 24 10 8 1 19 27 29 27 13 20 23 23 23 24 17 24 32 31 31 34 31 30 29 28 28 29 31 28 27 28 29 31 31 29 27 25 25 23 22 24 27 28
3 1 9 5 2 8 19 23 28 7 12 18 22 24 23 20 23 29 31 28 28 28 28 28 27 27 28 29 28 25 25 25 27 26 26 30 28 25 24 25 20 22 23 22
14 3 -3 -6 -6 0 24 24 17 21 24 24 26 28 27 28 29 28 27 28 27 26 26 27 25 25 27 26 24 23 22 25 24 24 24 25 28 26 24 22 21 21 22 20
11 17 7 11 10 26 28 26 32 28 24 26 27 29 28 27 27 27 25 25 26 25 25 25 21 21 24 22 20 18 20 20 19 19 20 21 24 28 23 22 21 20 20 19
20 25 21 21 26 27 30 33 30 31 31 31 29 28 27 25 25 23 23 23 23 23 21 21 19 17 17 19 19 17 17 16 14 14 14 16 18 21 25 22 23 20 20 19
23 22 17 20 27 28 30 31 33 33 32 27 26 25 24 22 21 21 20 20 20 20 19 18 16 15 15 16 15 14 13 11 9 10 11 12 15 17 22 22 22 21 23 23
27 24 20 18 29 28 30 33 29 27 26 22 20 19 21 20 19 19 17 18 17 16 16 14 13 12 11 10 9 9 9 7 6 5 7 9 12 14 18 21 21 26 26 26

GFSCGP_sfc_temp_003.txt.gz
Temp
45 43 41 47 46 45 42 40 39 43 49 44 50 50 52 56 53 57 60 61 61 61 65 63 61 60 58 54 53 54 52 53 52 51 49 48 48 50 48 50 49 50 49 47
41 40 50 48 45 44 41 40 41 45 49 43 44 47 54 56 57 59 59 60 57 58 62 63 59 59 56 55 52 52 51 51 52 52 53 52 52 51 51 49 48 50 48 47
43 47 47 46 42 42 39 39 42 41 42 43 40 41 43 52 50 53 56 56 56 55 56 58 58 56 54 53 50 51 51 51 52 52 51 43 44 42 43 42 44 46 46 45
42 45 46 41 43 43 39 45 43 40 37 34 42 34 40 50 52 52 54 53 54 55 56 54 53 56 53 52 50 49 49 49 51 50 49 49 49 46 46 49 48 46 46 45
44 42 39 39 44 44 43 43 40 39 36 33 34 31 39 44 47 50 54 56 56 54 54 56 54 53 51 46 46 47 47 48 50 49 50 49 49 49 45 47 46 44 43 44
42 43 45 46 43 44 43 40 37 34 35 28 36 36 39 42 47 48 53 57 54 54 53 56 52 49 49 46 44 44 45 45 47 47 48 48 48 46 44 44 44 42 42 41
37 40 41 44 39 39 41 37 29 26 23 27 33 32 41 49 55 51 54 52 50 51 51 52 50 48 47 46 43 44 42 43 44 45 46 47 47 44 46 44 45 41 40 40
35 38 41 43 44 41 37 39 31 24 24 33 28 32 45 49 53 51 48 48 47 46 46 44 45 45 45 44 44 43 42 41 42 43 43 44 45 45 45 43 44 42 42 42
35 34 39 40 42 45 36 34 41 33 29 28 38 40 50 53 48 43 40 37 36 38 39 40 42 43 43 43 43 43 42 42 42 42 42 42 42 43 43 41 42 42 43 43
41 34 40 39 39 40 41 42 32 29 22 24 33 37 40 46 35 32 33 33 36 38 39 40 41 42 43 44 44 45 44 43 42 42 42 42 42 42 42 40 39 40 41 40
42 39 36 38 36 38 35 35 35 36 31 28 27 34 44 29 29 29 32 34 36 38 39 40 41 42 42 43 43 43 43 42 42 43 43 40 40 41 41 38 39 40 40 38
44 38 29 34 42 41 40 40 40 29 29 31 33 31 30 28 30 32 32 35 37 38 39 40 41 41 41 41 42 41 41 41 40 41 42 41 41 39 39 40 39 39 39 38
41 33 27 29 36 35 35 36 39 37 32 29 26 31 31 28 30 32 33 34 35 37 39 39 39 39 40 40 40 40 40 40 39 39 39 40 40 41 39 39 40 39 39 38
44 35 33 28 32 35 32 34 34 34 29 30 31 33 36 26 26 30 32 33 34 35 36 37 37 38 39 40 40 40 40 40 38 38 37 37 37 38 39 40 40 40 38 38
39 31 33 33 35 33 30 29 29 27 30 25 30 29 35 22 25 29 33 33 33 34 34 35 36 36 37 39 39 39 39 38 38 36 36 36 36 37 37 37 37 38 37 38
35 29 26 21 30 30 28 30 31 30 31 30 31 30 26 28 29 29 32 33 32 32 33 34 35 35 35 36 36 37 37 36 36 35 34 35 34 34 34 35 35 35 36 36
29 28 23 22 26 25 19 24 29 31 33 29 24 22 21 22 27 29 29 31 31 31 32 33 33 33 33 33 32 33 33 33 32 33 34 33 33 32 32 33 33 33 34 34
28 24 24 20 14 12 26 25 29 27 23 21 19 18 22 26 30 31 32 32 31 32 31 32 32 31 32 32 31 31 31 30 30 30 31 32 31 30 31 30 30 31 32 32
30 26 12 13 8 20 25 26 24 23 20 23 21 23 26 28 27 25 31 33 32 31 31 32 30 30 30 30 30 28 28 28 28 28 29 28 28 26 28 28 29 29 28 29
28 27 22 4 4 -2 18 27 29 26 10 20 18 19 20 23 15 24 30 32 31 30 31 29 28 28 27 28 28 27 26 25 25 26 27 26 25 25 28 29 28 28 27 28
1 4 16 15 14 10 19 22 27 7 12 19 20 23 23 21 26 30 31 29 29 28 29 27 26 26 27 27 25 23 23 22 24 23 22 21 22 22 24 25 27 27 26 26
15 3 -5 -7 -3 3 23 22 16 21 24 24 25 27 27 29 30 30 30 29 28 27 28 28 25 26 27 26 23 21 20 23 20 18 17 17 17 18 21 21 24 26 24 24
11 17 9 11 10 26 26 26 32 32 27 29 27 29 28 28 28 29 26 25 25 26 26 26 21 20 23 21 20 17 18 18 16 12 11 12 13 14 16 16 19 24 24 21
19 24 19 21 26 27 31 34 33 31 29 30 30 28 28 26 26 24 23 24 24 23 21 20 17 16 15 17 17 15 14 13 9 7 7 8 8 10 11 14 18 21 23 22
23 21 18 20 26 28 30 31 33 33 31 28 25 25 24 22 21 21 20 20 20 19 18 16 14 12 12 12 11 9 9 7 4 4 4 4 5 6 8 11 14 18 24 25
27 24 20 18 29 28 29 33 29 28 27 22 21 19 21 20 19 18 16 17 15 14 13 10 9 7 6 5 4 4 4 3 1 0 1 2 3 4 6 7 10 19 23 28

GFSCGP_sfc_temp_006.txt.gz
Temp
58 58 56 63 62 64 58 55 54 59 64 58 57 59 62 66 67 66 68 70 72 73 75 76 74 73 71 72 69 69 68 66 66 63 62 62 62 62 63 64 62 63 61 59
55 53 63 59 57 55 55 52 53 59 61 54 57 56 61 64 65 67 68 69 70 70 71 71 69 67 65 65 66 65 65 65 64 64 63 64 63 63 63 62 61 61 60 59
56 61 59 55 56 52 54 51 54 53 55 58 53 56 58 67 63 66 67 68 68 67 65 65 62 60 59 58 58 60 63 62 62 62 62 61 59 58 58 59 58 58 60 58
53 55 53 51 51 55 49 58 53 50 49 47 54 45 58 63 64 64 66 67 66 63 62 59 57 56 55 54 55 57 58 59 59 61 59 57 56 54 57 57 57 56 57 58
56 49 48 48 52 54 54 52 49 47 47 45 49 45 57 57 57 62 64 60 60 58 55 53 52 52 53 53 53 54 56 56 58 57 58 57 57 60 60 57 57 55 55 55
54 53 54 57 53 53 51 50 48 46 47 41 50 47 53 57 59 60 57 52 51 51 52 52 52 52 51 51 51 51 53 52 54 55 56 55 55 56 56 54 54 55 54 53
53 50 53 53 51 50 51 48 42 39 39 39 47 43 52 60 54 53 49 48 48 50 50 49 49 49 49 49 50 50 50 49 51 52 53 53 53 54 54 54 54 54 52 50
46 44 50 53 54 54 48 49 42 31 35 42 37 40 53 56 49 47 47 47 47 47 49 48 49 49 49 49 49 50 49 48 49 49 49 51 51 53 54 54 54 53 53 52
47 46 50 48 52 54 46 43 51 40 36 35 45 52 59 55 44 44 43 45 44 45 45 47 48 49 48 48 48 49 49 48 48 48 49 48 49 49 50 51 51 52 52 51
48 38 49 50 50 51 49 52 41 41 29 28 39 44 47 49 42 41 40 41 43 44 44 45 47 47 48 48 49 49 49 47 47 48 48 48 48 48 48 49 47 48 49 49
51 44 45 46 47 47 47 43 43 42 39 30 28 38 48 42 37 37 38 40 41 43 44 45 46 48 48 47 47 48 48 46 45 46 46 46 46 47 47 46 47 47 47 47
50 40 34 42 52 50 49 46 46 36 33 39 36 36 40 38 37 37 37 38 40 42 44 45 45 46 46 46 45 45 46 45 44 44 44 43 44 44 44 44 45 46 45 46
45 36 31 34 42 41 40 44 45 45 36 31 28 32 38 38 37 37 38 38 38 40 42 43 44 44 45 45 45 45 45 44 43 44 42 42 40 40 41 40 42 42 43 42
44 37 34 30 38 43 38 40 42 40 30 32 34 39 47 39 39 38 39 39 39 40 40 41 42 44 45 45 45 44 44 44 42 42 42 41 40 39 39 39 39 39 40 41
41 32 36 36 37 37 36 35 37 35 34 27 35 34 40 43 38 37 38 39 38 39 39 40 40 41 42 43 43 43 44 43 42 40 40 40 41 41 39 37 36 37 37 38
41 31 34 30 38 36 31 35 36 35 34 34 35 34 46 36 36 36 37 38 37 38 39 40 40 40 40 41 40 40 41 40 39 36 35 38 37 36 35 35 35 35 35 36
33 31 29 24 33 31 23 28 33 36 40 39 32 35 31 31 34 36 37 37 38 38 39 39 39 40 40 39 39 38 39 38 35 32 32 33 33 32 32 32 34 34 34 36
30 29 28 23 26 15 33 38 36 34 35 30 27 27 30 33 37 37 38 37 38 39 39 40 40 40 41 39 38 38 36 33 33 31 31 32 32 30 30 30 31 33 34 34
35 31 24 19 20 27 31 35 32 30 31 30 30 31 34 35 34 35 40 40 39 41 41 40 40 38 38 36 36 33 32 32 32 31 31 31 30 26 26 24 26 30 31 32
32 32 26 16 13 12 30 31 34 33 22 28 28 30 31 32 26 33 42 41 41 42 40 37 37 36 35 36 35 30 29 28 28 29 29 30 28 23 22 24 24 26 28 29
20 19 18 19 17 23 29 29 34 18 22 29 30 31 32 29 34 39 41 39 40 38 36 35 35 33 33 34 30 27 26 25 27 27 26 24 24 21 21 20 22 22 23 25
23 19 15 12 12 12 31 29 24 32 34 34 34 35 34 36 37 37 38 38 38 34 33 34 32 31 31 29 25 23 22 24 23 21 19 18 17 17 17 15 16 17 18 19
18 25 22 20 23 32 33 32 36 37 33 35 35 37 36 34 35 37 36 34 32 31 31 29 25 23 25 23 21 17 19 19 16 13 11 11 12 12 12 11 12 13 15 17
28 32 24 24 30 32 36 38 39 39 37 38 38 36 36 33 34 32 30 29 28 26 23 22 19 16 15 17 16 14 14 13 9 7 7 8 7 7 8 10 11 11 12 14
29 28 24 24 30 33 35 37 38 38 39 37 35 32 30 28 28 27 25 22 22 21 19 17 14 12 12 13 11 10 10 8 5 4 5 5 5 5 5 7 8 10 12 14
31 27 24 22 33 32 33 37 39 35 34 30 27 25 24 22 22 21 19 19 17 15 14 11 10 9 8 7 7 7 6 5 3 3 4 5 5 5 5 5 5 11 13 16

GFSCGP_sfc_temp_009.txt.gz
Temp
64 59 56 65 67 65 63 60 58 63 69 64 61 62 65 71 72 73 75 75 74 72 72 68 65 64 63 63 64 67 69 72 71 68 66 66 66 68 68 68 68 69 67 64
57 54 65 67 61 60 60 57 57 63 67 59 60 59 64 68 71 72 71 71 68 68 65 63 61 60 59 58 59 62 64 67 68 68 67 67 67 67 68 66 66 66 66 63
57 63 66 62 60 57 58 55 56 56 61 62 58 56 64 69 72 70 70 69 65 61 58 58 57 57 56 55 57 58 60 62 64 65 65 64 63 60 59 62 63 63 63 62
59 63 57 56 55 59 52 63 58 55 51 48 57 45 58 67 68 65 63 61 59 57 57 56 55 54 53 54 56 57 57 58 60 62 62 60 58 56 60 60 61 61 61 61
57 54 52 52 56 60 57 56 55 53 49 49 52 47 57 64 62 61 58 56 56 55 55 53 53 54 54 54 53 56 56 56 57 58 58 58 57 59 61 59 58 59 58 58
58 58 57 59 59 58 55 54 55 53 50 41 52 52 53 59 61 56 53 53 53 54 54 54 55 54 53 54 53 53 54 53 54 54 55 55 54 55 55 57 56 57 58 57
58 57 58 57 54 54 53 50 42 41 41 39 55 48 54 62 57 59 53 51 52 53 53 52 52 52 52 51 52 52 52 51 52 52 52 52 52 53 54 54 55 54 55 55
48 47 56 56 55 53 53 52 42 32 36 43 43 42 53 54 53 52 52 51 51 50 51 50 51 51 51 50 51 51 51 49 50 51 51 51 51 51 51 52 52 52 53 54
48 48 56 54 57 56 51 45 50 37 38 35 44 53 61 50 48 49 48 48 47 48 49 49 50 50 50 50 50 50 50 49 49 49 50 49 50 49 49 49 49 49 49 51
51 41 54 52 53 54 52 54 37 37 26 27 41 45 48 55 50 46 45 46 47 48 48 49 50 50 50 49 49 50 50 48 47 47 48 47 47 48 48 48 47 47 47 47
51 45 46 52 49 47 47 44 46 46 41 31 30 40 56 50 49 46 45 44 45 46 47 48 48 49 50 49 48 48 48 46 45 46 46 45 44 45 45 44 45 44 44 45
52 42 34 43 54 55 50 47 47 36 32 39 35 34 57 47 46 44 43 42 43 44 45 47 47 48 48 48 47 47 47 45 45 45 45 44 44 42 42 41 42 41 42 42
47 37 30 35 45 45 42 47 47 46 41 33 29 35 51 44 41 42 43 43 43 42 43 45 47 47 47 47 47 47 47 46 45 44 43 43 42 42 40 39 39 39 39 39
47 41 36 31 37 44 37 41 41 37 31 33 35 40 47 47 44 46 45 44 44 43 42 43 44 45 46 46 46 46 46 47 45 44 42 40 40 41 41 39 38 38 38 38
45 33 38 38 41 41 39 37 38 36 38 31 36 36 42 45 46 47 46 44 43 42 42 42 42 43 44 45 44 45 45 45 44 42 40 39 39 39 38 36 35 36 36 37
45 31 35 29 36 36 33 37 37 38 38 38 39 38 49 49 42 41 42 41 41 42 42 42 43 43 42 43 43 43 42 43 42 37 35 36 34 34 34 34 33 33 34 36
36 33 28 23 33 32 25 32 35 38 41 40 33 35 34 37 38 39 40 41 40 42 42 42 42 42 42 43 42 40 41 40 35 33 32 32 32 32 33 32 31 31 31 33
32 30 29 23 25 14 33 45 40 35 36 37 34 30 33 35 39 40 42 40 40 41 43 43 43 43 43 42 40 40 37 34 33 31 31 32 32 30 31 30 29 28 30 29
39 33 24 19 20 28 33 37 36 32 31 39 33 34 36 38 38 39 45 45 43 43 44 44 43 41 40 39 39 35 32 32 31 30 30 30 30 28 28 26 25 26 26 26
35 36 28 24 16 13 31 37 37 36 22 32 31 31 32 35 26 34 43 43 43 44 44 42 39 38 38 37 36 30 29 28 27 28 28 28 27 24 23 24 23 23 22 22
24 24 20 21 18 24 35 33 37 19 24 32 33 34 34 31 35 39 42 42 43 42 40 37 37 35 36 35 29 25 25 24 25 24 23 21 21 19 19 18 19 18 17 18
25 22 20 20 15 13 34 32 25 33 35 35 36 37 36 38 38 39 40 40 40 37 36 36 32 31 31 29 24 21 20 23 20 18 15 14 13 13 14 11 12 12 11 11
20 28 24 25 25 36 36 35 39 39 34 36 37 39 38 37 37 38 38 38 35 34 32 29 24 22 24 22 20 16 17 17 14 11 9 8 9 9 9 7 7 7 8 8
31 36 27 26 31 34 37 40 41 41 39 40 40 39 38 35 36 36 35 32 30 27 24 22 19 16 15 17 16 14 14 13 9 6 6 7 6 6 7 8 8 6 5 5
32 33 27 27 32 34 36 38 39 39 40 39 40 39 35 34 32 32 28 24 24 22 20 18 15 13 13 14 12 11 10 9 6 5 5 5 6 5 6 7 7 7 8 8
34 30 26 24 35 34 35 39 41 38 37 37 34 31 27 26 25 24 21 22 19 17 16 13 12 11 10 9 8 8 8 7 4 2 3 3 3 3 4 4 5 11 13 15

GFSCGP_sfc_temp_012.txt.gz
Temp
57 50 47 53 57 58 55 52 50 54 61 54 54 53 58 63 64 59 57 60 58 56 57 56 54 53 52 54 54 56 56 58 58 56 55 55 55 57 59 60 60 61 58 56
50 46 57 61 59 54 52 49 48 55 59 52 53 52 58 62 62 59 59 55 54 53 52 53 51 50 50 51 51 53 54 54 57 56 55 54 52 54 57 58 58 59 59 57
51 57 62 58 55 53 51 48 49 49 54 51 49 47 52 60 60 61 58 55 53 50 49 49 49 47 47 47 49 51 52 52 54 54 54 53 52 50 50 51 53 57 59 56
53 59 55 51 51 52 47 54 53 50 44 37 48 36 49 57 54 53 52 48 48 48 49 49 47 46 46 46 47 50 50 50 52 52 51 48 47 47 49 50 50 51 54 53
50 49 47 48 52 54 49 50 47 46 42 39 41 35 45 52 48 48 48 48 47 47 47 47 46 48 47 46 45 46 48 49 49 49 48 46 45 46 46 47 48 48 49 50
53 51 51 52 53 53 51 47 47 44 41 29 42 43 41 46 49 44 46 47 48 47 47 47 48 48 45 44 44 44 45 46 46 46 46 44 43 43 43 44 44 44 46 47
48 50 51 52 46 47 47 43 31 29 26 29 44 39 45 49 51 49 45 44 45 45 44 44 44 44 44 43 43 45 43 43 44 44 44 43 43 42 42 42 42 41 41 42
42 40 50 51 49 46 46 45 33 26 24 30 38 32 44 46 47 47 46 44 45 43 44 43 44 43 42 43 42 42 42 41 42 42 42 42 43 43 43 42 41 40 40 41
44 44 47 51 51 51 44 39 45 33 28 26 35 44 49 44 43 43 43 43 41 42 42 43 43 42 41 41 41 41 41 40 40 40 40 40 40 40 40 39 39 40 40 43
47 38 49 47 49 47 46 48 33 32 24 20 31 35 39 41 40 41 40 40 41 42 42 42 42 42 42 41 41 41 41 39 39 39 38 39 38 38 38 37 36 37 38 39
47 42 41 46 44 43 42 38 40 41 34 24 25 31 45 43 43 40 41 41 40 40 40 41 41 42 41 41 40 40 39 38 38 38 38 37 37 37 37 35 36 35 36 37
46 40 30 38 48 49 44 42 41 32 31 34 33 32 51 44 42 42 40 41 39 40 40 41 41 41 42 41 40 39 39 38 38 38 37 37 37 36 35 35 34 33 35 35
44 33 26 28 37 38 37 40 41 40 33 29 26 29 48 39 38 40 40 40 40 41 40 40 40 39 39 39 39 39 40 39 38 38 36 35 34 33 33 33 33 33 33 35
46 37 30 25 32 39 33 36 38 35 29 29 29 34 39 43 43 43 41 40 39 39 40 38 37 37 37 38 37 37 37 38 36 36 33 31 31 32 32 32 31 30 31 31
42 28 32 35 37 37 34 33 35 32 34 28 32 32 38 42 38 36 39 41 40 39 39 38 37 36 36 37 38 38 37 37 36 34 31 32 32 31 30 28 28 28 28 30
41 23 29 22 31 31 28 31 32 32 33 33 34 33 41 36 37 37 38 39 37 37 39 39 39 38 38 38 37 38 37 35 33 30 29 30 30 30 29 29 30 30 29 27
30 24 15 18 27 26 15 27 30 33 36 35 28 30 26 29 34 33 33 36 36 35 37 38 38 38 38 36 36 35 34 32 26 24 25 25 26 27 28 28 28 29 28 28
28 21 18 11 13 4 27 36 33 30 31 29 27 21 26 29 33 33 35 34 35 37 37 38 37 36 36 35 34 33 31 26 26 25 23 24 26 25 26 26 26 26 27 26
34 28 21 10 9 22 28 31 29 26 24 29 26 27 30 31 31 31 37 37 34 36 37 37 36 34 33 32 30 27 25 25 25 25 25 25 24 22 22 20 21 22 21 21
32 32 24 9 7 0 23 30 33 31 15 21 23 21 24 27 17 23 35 36 36 37 36 31 30 31 30 28 26 24 23 20 22 23 23 22 20 16 16 17 16 17 16 17
10 10 14 17 12 14 24 26 31 10 18 23 24 25 26 23 27 31 34 34 35 33 32 30 29 28 27 25 23 21 20 19 20 19 17 15 15 12 12 11 12 11 10 11
18 9 6 6 1 5 27 26 19 24 28 27 29 30 30 31 32 32 33 33 32 29 29 27 25 25 24 22 19 17 16 18 16 13 11 10 8 8 9 6 7 6 6 5
13 22 12 17 15 29 30 29 32 33 27 30 30 32 32 30 30 31 31 30 29 26 25 23 17 18 20 15 14 13 14 13 11 8 6 5 6 6 7 5 4 4 5 4
24 28 21 20 27 29 33 34 34 34 32 32 32 31 31 30 30 30 30 27 25 21 18 17 13 11 11 11 13 8 11 10 6 4 4 5 4 4 4 5 6 4 3 3
26 26 22 22 29 31 33 34 35 35 35 32 32 32 31 30 29 27 23 20 21 18 17 14 11 10 10 11 9 5 8 6 4 4 4 3 3 2 2 3 3 4 6 7
31 28 23 21 31 31 32 34 34 32 32 31 30 27 25 25 24 23 19 20 17 15 13 10 8 7 6 4 4 4 -0 1 2 2 3 2 2 2 2 2 3 10 13 15

GFSCGP_sfc_temp_015.txt.gz
Temp
51 45 41 47 49 49 46 45 43 48 57 49 52 49 54 58 58 54 49 49 48 47 49 49 49 48 48 49 49 50 51 52 53 53 51 52 52 53 58 59 60 60 59 58
45 41 51 53 52 50 48 45 43 49 54 50 50 49 53 57 56 53 49 46 46 46 46 47 46 45 45 46 47 48 49 50 51 52 50 50 48 49 55 56 57 58 58 57
43 51 55 53 50 48 46 44 43 45 49 48 44 42 49 54 51 51 49 48 47 45 44 44 44 42 42 43 42 46 47 48 48 49 50 50 48 47 48 52 53 54 56 56
46 54 52 48 48 49 42 50 48 47 41 36 44 32 44 49 45 45 45 43 43 44 44 44 43 42 42 42 42 44 46 47 47 47 46 43 42 42 43 44 45 47 49 51
46 46 45 45 48 50 46 48 45 43 39 35 36 33 39 44 40 41 41 42 42 42 43 42 42 44 43 42 41 41 45 45 45 45 44 43 41 41 41 42 42 43 45 46
46 49 48 49 50 50 49 45 43 42 38 27 37 36 37 40 43 40 42 42 43 42 42 43 44 44 42 41 40 40 42 42 44 44 43 42 41 41 40 40 40 41 41 41
44 46 47 50 45 47 46 42 31 27 24 27 38 34 40 42 45 44 41 39 40 40 40 40 40 40 40 39 39 42 40 40 40 41 41 40 40 39 39 39 38 37 38 38
38 36 46 49 48 44 42 43 33 26 23 27 36 31 40 40 42 42 42 40 42 42 42 40 40 39 39 39 38 38 38 38 38 38 38 38 38 38 38 37 37 36 37 37
39 41 47 48 49 50 42 38 42 33 23 24 33 38 41 41 40 40 40 40 39 39 40 39 39 39 39 38 38 37 37 37 37 37 36 36 36 36 35 35 34 34 35 39
43 35 45 45 47 46 45 46 33 31 19 17 27 31 33 37 37 38 37 36 37 39 39 39 39 39 39 39 38 38 38 36 36 36 36 36 35 35 34 33 32 33 33 34
45 41 38 43 40 40 40 37 38 38 31 22 19 28 40 41 39 38 37 38 37 37 39 39 39 38 38 38 37 37 36 36 35 36 36 35 34 34 34 32 32 31 31 32
42 38 27 36 43 44 42 40 39 32 27 28 32 31 40 37 38 38 37 39 38 38 39 39 39 39 40 38 38 37 36 35 35 35 34 34 34 33 32 32 31 30 30 30
44 33 23 28 36 38 35 38 38 39 33 29 26 29 38 36 37 39 38 38 40 40 39 40 37 36 36 35 36 36 36 35 35 35 33 32 32 31 30 30 31 31 30 29
47 37 30 27 29 34 31 33 35 35 28 25 28 31 38 39 36 36 37 39 37 38 38 36 35 35 35 35 35 35 35 35 34 33 31 29 28 29 29 29 28 28 28 27
41 27 32 33 34 32 31 31 32 29 31 25 31 30 36 38 31 32 34 36 36 36 36 35 35 34 34 35 35 36 35 35 34 32 31 30 30 31 29 29 28 28 27 29
39 24 28 21 31 31 27 30 30 30 30 29 30 30 41 32 34 33 35 36 35 36 36 35 35 35 35 35 35 36 34 33 32 30 28 29 28 29 28 29 29 29 29 29
32 24 16 16 27 25 14 26 30 31 33 30 25 30 24 28 32 31 31 32 32 34 34 34 35 35 35 34 35 33 32 30 24 23 22 23 25 25 26 26 26 26 25 26
28 21 15 9 9 2 26 31 32 30 30 27 25 19 23 28 31 33 33 32 33 34 35 36 35 34 33 32 31 31 28 24 25 22 21 21 23 21 21 22 21 21 21 21
32 27 10 8 -1 17 26 30 29 28 23 26 24 23 28 30 28 27 33 33 32 34 35 34 33 31 30 28 26 26 24 24 23 23 22 20 18 16 17 15 15 16 16 15
30 31 21 6 9 2 20 29 32 30 16 21 18 20 22 26 16 21 32 34 35 35 34 31 29 29 27 23 24 23 21 19 19 20 20 19 16 12 12 12 11 12 11 12
7 6 18 18 15 13 22 25 31 10 17 19 22 24 25 22 25 30 32 32 34 32 31 29 27 25 24 22 21 19 18 16 17 16 15 13 12 10 9 8 9 8 7 8
17 10 3 -0 -3 5 27 25 20 25 26 27 28 29 29 30 30 30 31 31 31 29 27 26 24 23 22 20 17 15 14 16 12 10 8 7 5 5 8 5 5 5 4 3
15 20 12 16 14 27 28 28 31 30 26 29 29 31 30 29 29 30 30 30 29 28 25 23 18 18 19 14 13 11 12 11 9 2 -0 1 3 5 5 3 2 2 3 2
22 25 20 19 25 26 29 30 32 32 30 31 31 30 30 29 29 29 29 28 25 21 18 16 12 10 9 10 12 7 8 8 -3 -5 1 4 4 3 3 4 4 2 1 1
23 24 18 19 28 29 30 31 33 31 32 30 30 30 30 29 29 28 26 22 21 19 16 13 10 9 8 9 6 2 5 0 -1 1 3 3 3 2 2 3 3 4 6 7
30 27 23 21 32 29 31 34 32 31 31 31 29 28 28 27 27 24 20 19 17 15 12 10 8 7 4 1 0 -1 -3 -6 -5 0 2 3 2 2 3 2 2 9 12 15

GFSCGP_sfc_temp_018.txt.gz
Temp
48 44 41 46 48 47 44 42 42 46 53 48 49 47 51 56 49 45 43 43 43 43 45 45 45 44 44 45 46 46 47 47 49 48 47 49 48 50 56 57 57 58 58 57
44 41 50 50 48 47 44 41 42 46 51 48 47 47 52 51 51 48 45 42 42 42 42 44 43 43 43 43 43 45 45 45 46 47 46 47 46 47 51 54 54 54 56 55
43 49 52 50 46 45 42 41 41 44 46 46 41 41 48 45 45 46 44 43 43 41 40 40 41 40 42 41 41 44 44 45 44 45 46 45 45 44 45 45 46 47 50 52
44 51 50 45 46 46 40 48 47 44 39 35 40 31 40 45 41 41 40 38 38 39 40 41 40 40 40 39 41 42 44 44 45 44 43 41 40 38 39 39 41 43 44 44
44 44 43 44 46 48 45 45 44 41 37 33 35 32 37 41 37 38 37 38 38 39 39 39 39 40 39 39 38 39 41 42 42 42 42 41 39 38 39 39 40 40 41 41
45 47 48 48 47 46 47 44 41 37 35 27 36 36 33 38 41 37 38 38 39 38 38 39 40 40 38 37 37 38 39 39 40 40 40 39 37 38 38 37 37 38 39 40
42 44 46 49 44 43 43 39 29 27 24 27 35 31 37 40 40 42 38 36 37 38 38 37 37 37 37 36 36 39 37 37 37 38 37 37 37 37 36 36 35 35 36 36
37 35 44 47 47 43 41 42 32 26 22 27 32 30 38 37 38 40 39 38 38 40 41 39 38 38 37 36 36 36 35 35 35 35 35 35 35 36 35 34 34 34 34 34
35 37 44 45 46 48 40 36 41 33 22 22 31 34 37 38 36 37 37 38 37 38 38 38 39 38 38 37 37 37 35 35 35 35 34 33 34 33 32 32 32 32 32 36
41 35 42 43 44 44 42 45 32 30 21 16 27 29 32 34 34 35 35 35 36 37 37 37 37 37 37 37 37 36 36 35 34 34 33 33 33 33 32 31 30 30 31 31
44 41 36 41 39 39 38 36 37 36 30 22 17 27 37 38 38 36 35 36 36 36 37 37 37 38 38 38 37 36 35 35 34 34 33 32 32 32 31 31 30 30 29 30
43 37 27 35 40 42 40 39 37 29 26 27 27 30 40 40 39 38 37 38 38 39 38 37 36 35 35 35 35 35 34 35 34 34 33 32 31 31 30 29 30 29 29 29
43 32 21 29 36 37 35 36 36 36 30 22 23 27 38 35 37 38 37 37 38 38 36 35 34 34 34 33 34 33 33 33 33 33 32 31 30 29 29 28 29 28 28 28
47 36 32 30 31 34 31 33 33 35 25 24 27 29 34 34 36 37 37 38 36 36 36 33 33 33 33 33 33 33 33 33 32 31 31 29 28 28 28 28 27 26 26 25
42 29 32 33 34 33 33 32 31 29 31 25 32 30 36 35 34 35 36 36 35 34 34 34 33 32 32 32 33 32 32 32 32 31 31 29 29 29 27 26 26 27 27 28
38 27 28 21 32 32 27 30 30 31 31 30 31 30 40 35 32 32 34 34 32 33 34 33 34 33 33 33 33 33 33 32 32 29 26 27 26 26 26 25 25 25 25 25
32 26 19 16 26 25 16 23 31 33 33 31 26 30 24 29 32 31 31 33 33 33 34 33 33 33 33 33 34 31 30 28 24 22 20 21 22 22 22 22 22 22 21 21
29 22 21 14 11 3 27 29 31 29 29 26 24 19 23 28 28 32 30 32 33 33 34 33 33 32 32 31 30 28 27 24 23 20 18 18 20 17 18 18 17 17 17 17
33 29 17 12 5 17 27 30 28 26 24 25 24 23 27 28 27 26 32 32 32 32 33 33 33 32 28 27 27 25 23 23 22 21 19 18 16 12 14 11 12 13 13 12
29 29 24 2 3 4 22 29 31 29 16 20 19 19 22 26 16 22 31 33 34 34 33 32 30 27 25 24 24 22 20 18 18 19 18 17 14 7 9 10 9 10 9 10
10 13 19 16 2 10 22 24 29 12 19 18 20 24 24 22 28 30 32 31 32 32 32 29 27 25 23 22 20 18 17 15 16 15 13 11 11 8 8 7 8 7 6 7
16 12 10 10 10 7 26 25 21 25 25 26 27 28 28 30 30 30 30 30 31 30 28 27 23 22 20 19 17 15 14 15 12 9 7 6 3 5 7 3 3 4 3 2
15 21 12 16 15 28 28 29 32 30 27 28 28 30 31 30 29 30 29 29 30 30 26 25 21 19 19 15 13 11 12 10 8 1 -3 -2 1 3 4 1 2 1 1 0
21 25 19 18 24 26 29 32 31 31 31 32 31 31 30 30 29 29 28 28 27 23 20 16 14 11 10 10 13 9 7 6 -6 -10 -3 1 -0 1 0 3 4 2 0 0
23 23 17 18 27 26 28 30 31 32 31 30 30 30 30 29 28 28 27 25 24 20 16 14 12 11 10 10 9 3 4 -1 -4 -5 0 -0 -0 -2 1 3 3 4 6 7
27 27 21 18 33 31 30 33 33 31 31 30 30 28 27 27 28 27 24 23 19 16 13 11 9 8 6 4 6 1 -5 -7 -9 -3 0 0 1 1 2 1 1 9 12 15

GFSCGP_sfc_temp_021.txt.gz
Temp
47 44 41 45 47 45 43 41 41 43 50 45 46 45 50 50 46 41 39 39 39 40 42 43 43 42 43 43 44 44 44 44 46 46 46 48 45 51 50 51 51 54 55 56
43 40 50 49 46 45 41 38 40 44 48 46 45 45 50 47 44 44 40 39 39 39 39 41 41 40 40 40 41 43 43 43 44 45 44 44 44 45 45 46 46 46 47 47
42 48 50 49 44 43 40 39 38 42 44 43 40 39 45 41 41 42 41 40 39 38 37 37 38 37 37 38 38 41 41 42 42 44 44 43 43 42 42 41 42 42 43 43
42 48 48 42 44 44 39 45 45 43 38 34 38 31 38 42 37 38 37 36 36 37 37 38 37 36 36 36 38 40 41 41 42 42 42 40 38 36 37 38 40 41 41 41
43 43 41 42 44 47 43 43 42 39 36 32 34 31 36 39 35 35 34 36 35 36 36 36 36 37 36 36 35 36 39 39 39 40 40 39 38 37 38 37 38 38 39 39
44 45 45 47 45 46 46 42 40 35 34 26 36 35 32 37 39 35 35 36 36 36 36 36 37 37 35 35 35 35 37 36 37 38 37 36 35 36 36 35 35 36 36 37
39 42 44 47 42 42 42 38 29 26 24 26 33 30 37 38 37 39 36 35 35 35 34 35 35 34 34 34 35 36 35 34 34 35 35 35 34 34 33 32 32 32 33 33
36 34 43 46 46 41 39 40 30 23 22 26 31 29 37 35 35 39 39 37 36 35 36 35 35 35 35 35 34 34 34 33 34 34 33 33 33 33 32 31 31 31 31 31
34 36 41 44 45 46 38 35 40 32 18 21 31 33 34 35 33 34 34 34 34 35 35 36 36 36 35 35 35 35 34 34 33 33 32 32 32 31 30 30 30 29 30 34
41 34 41 41 43 42 40 43 32 29 20 17 27 29 32 32 33 33 33 34 34 35 36 36 36 36 36 35 34 34 34 33 33 33 32 32 31 31 30 29 29 28 28 29
42 39 34 38 38 37 37 34 35 35 30 23 18 29 36 36 35 34 35 36 35 35 36 35 35 36 36 35 34 34 34 33 32 33 31 30 30 30 30 29 28 28 28 28
43 37 27 34 38 37 36 37 37 31 27 26 27 32 38 39 38 37 36 37 36 37 36 36 36 35 34 34 34 33 32 32 32 32 30 31 30 30 29 29 28 28 28 28
43 33 22 31 35 35 33 34 34 34 31 25 25 29 38 36 37 38 37 36 37 37 36 35 34 33 33 32 32 32 31 32 32 31 31 30 30 28 28 28 28 27 27 26
47 36 34 31 32 34 31 33 33 33 25 31 32 32 30 35 36 37 37 37 37 36 35 33 31 31 32 31 31 31 31 31 31 30 30 29 28 28 27 27 26 25 25 24
42 31 31 32 34 34 33 32 31 30 30 27 30 29 33 36 35 35 37 37 35 35 33 33 33 32 30 31 31 31 31 31 30 29 29 28 27 27 26 24 24 24 24 24
37 27 28 25 32 33 31 32 33 34 31 29 30 31 40 34 34 31 34 34 33 33 32 33 32 32 32 32 32 32 31 30 30 29 26 26 24 24 23 22 22 22 22 21
32 27 26 28 27 26 22 24 29 32 33 32 28 34 24 30 32 31 31 33 33 33 33 33 33 33 33 32 33 30 29 28 23 22 18 18 20 20 20 19 19 19 18 18
30 27 25 19 16 15 29 29 31 30 30 28 26 22 24 29 29 32 31 31 33 33 33 33 32 32 32 31 30 29 27 24 22 19 16 17 19 16 16 16 15 15 15 14
33 29 19 19 11 21 27 30 28 27 26 27 28 24 27 28 26 24 31 31 31 31 32 32 32 32 30 29 28 25 23 23 21 20 19 17 15 12 13 9 10 12 11 10
30 30 27 10 10 10 24 29 31 31 17 21 22 22 22 25 17 23 30 32 32 33 33 33 31 29 27 25 25 23 20 18 18 19 18 16 14 7 6 9 8 9 6 9
14 18 21 18 16 13 21 25 30 13 21 19 22 25 22 21 27 30 31 30 33 33 33 31 28 27 25 22 21 19 17 16 16 15 14 12 11 6 6 5 6 5 4 6
17 12 12 11 3 7 26 26 22 26 25 26 26 29 27 29 31 30 31 31 31 31 30 30 25 23 21 20 18 17 15 15 12 10 10 8 1 3 5 -5 0 -1 -0 -0
19 24 17 20 18 28 28 29 32 30 27 28 29 30 30 29 29 30 29 28 29 30 29 26 23 20 19 15 14 14 13 12 10 4 3 -3 -1 2 2 -5 -0 -0 -2 -2
21 24 20 20 24 26 29 31 31 31 31 32 31 31 30 29 29 29 28 28 28 25 23 19 17 16 13 11 13 10 10 9 1 1 1 0 -2 -1 -1 3 3 1 -1 -1
24 24 18 18 26 26 29 30 32 32 31 30 30 30 30 28 29 27 28 25 26 24 18 17 17 15 12 10 9 7 8 3 -0 -0 2 -0 -2 -4 -1 1 1 2 4 5
26 26 21 19 30 30 32 32 34 32 32 30 28 27 27 27 28 28 26 26 24 20 15 14 12 10 8 6 5 4 -0 -2 -2 1 2 -1 -1 -1 1 0 0 8 13 15

GFSCGP_sfc_temp_024.txt.gz
Temp
45 43 41 44 46 44 42 39 40 41 47 43 46 45 50 50 43 38 36 37 37 38 39 40 40 39 39 40 41 41 42 42 45 44 43 48 43 47 45 45 45 47 47 49
42 40 48 47 45 44 40 38 39 43 45 45 43 43 48 44 41 41 38 37 37 37 37 39 38 37 37 37 37 40 41 41 42 42 41 41 41 42 44 43 42 43 43 43
41 47 48 47 42 41 39 39 37 41 42 41 37 38 43 39 39 39 39 38 37 36 36 35 36 35 35 35 34 38 39 40 41 42 42 41 40 39 40 39 40 40 41 41
42 46 47 41 42 43 37 43 43 41 37 33 37 29 37 38 35 36 35 35 34 35 35 35 35 34 34 34 35 36 38 39 40 41 41 39 37 36 34 35 36 38 38 38
42 42 40 41 43 45 42 42 41 38 34 31 33 30 36 38 36 33 33 34 33 33 34 34 34 36 34 34 33 34 36 37 37 37 39 38 36 35 33 34 35 35 36 36
42 43 45 45 43 44 44 41 38 33 33 25 35 35 32 35 38 33 34 34 35 34 34 33 35 35 34 33 33 33 35 34 35 36 36 35 34 33 34 32 32 32 33 34
37 41 43 45 41 40 40 37 29 26 23 26 32 29 36 36 36 37 36 34 34 34 33 33 33 33 33 33 33 35 33 33 33 34 34 33 32 31 31 30 30 30 30 29
34 33 41 45 45 40 38 38 30 23 21 26 30 28 37 34 34 35 38 35 34 33 34 34 34 33 33 33 33 33 32 32 32 32 31 31 31 32 30 30 29 28 28 28
34 36 40 42 43 46 37 34 38 30 15 20 30 33 34 34 32 32 32 33 32 33 33 34 35 34 33 33 33 33 33 33 32 32 31 31 31 30 29 29 29 28 29 32
41 34 39 39 42 40 40 42 32 29 21 18 27 28 33 34 33 31 31 32 33 34 34 34 34 34 35 36 36 35 35 33 32 32 32 31 30 30 29 29 28 28 28 29
40 39 33 38 37 36 35 33 34 35 30 25 19 29 35 36 34 32 33 35 34 34 34 34 34 34 34 34 32 32 32 32 31 31 29 30 29 28 28 28 27 27 27 27
42 36 27 34 36 37 36 36 36 32 27 25 27 33 35 34 35 36 35 36 35 35 35 35 35 34 33 33 33 32 32 32 31 30 29 30 29 29 28 27 27 27 27 27
43 34 23 28 34 33 33 34 34 33 31 25 28 30 36 33 34 36 36 36 36 36 35 35 33 33 33 32 32 32 31 31 31 29 29 29 29 28 27 27 27 27 26 25
47 35 32 31 32 34 31 32 33 36 32 34 33 36 32 35 37 37 37 36 36 35 35 33 31 32 32 32 31 30 30 30 30 29 29 28 27 27 26 26 25 25 24 23
44 30 32 33 34 34 34 33 31 31 35 34 37 33 34 38 37 36 36 36 34 35 34 33 33 32 32 30 30 30 30 30 29 28 28 27 28 26 25 23 22 22 22 22
38 32 31 25 32 32 30 33 31 35 35 32 30 30 39 37 35 32 35 35 34 34 34 34 33 33 32 32 31 32 30 29 29 27 27 27 24 23 21 21 21 21 20 19
34 29 24 27 25 27 26 29 31 32 31 35 30 36 28 30 32 32 32 32 34 34 34 34 33 32 32 31 33 30 31 28 25 23 20 20 20 19 19 18 18 18 16 17
32 28 27 21 22 18 29 27 31 33 34 32 27 25 26 29 30 32 31 32 33 33 33 33 32 31 31 31 30 29 28 25 23 21 18 17 18 15 15 15 14 14 14 13
34 30 22 22 19 24 28 28 28 29 28 28 30 29 29 29 26 26 31 31 32 31 32 32 32 31 29 29 29 26 23 23 22 20 19 17 15 12 12 8 9 11 10 10
32 32 30 16 16 17 23 29 31 32 20 23 27 26 23 26 19 25 31 31 32 32 32 32 31 30 29 28 26 23 21 20 20 19 19 16 13 7 6 9 7 7 4 9
21 22 24 21 21 21 23 26 31 19 25 20 22 24 23 23 28 32 31 30 32 31 32 31 29 29 28 25 21 21 18 18 17 16 14 12 11 6 5 4 5 2 1 6
20 19 14 16 17 17 27 27 25 28 26 27 27 29 29 30 31 30 31 31 30 31 31 31 28 27 25 21 20 19 17 16 13 11 10 9 4 7 5 -5 -3 -4 -5 -3
21 24 19 23 22 27 30 29 32 31 27 27 29 30 31 29 29 30 29 28 29 30 29 28 25 24 21 17 18 17 15 12 9 6 6 3 4 5 5 -2 0 -3 -7 -5
22 25 21 22 24 26 29 31 30 31 32 32 31 31 29 30 30 29 28 28 27 26 26 21 17 17 17 13 15 12 11 9 3 -1 4 5 3 3 3 5 4 -5 -5 -2
25 24 18 19 26 27 30 30 32 31 31 30 30 31 31 29 28 27 26 25 25 25 21 18 19 19 18 12 10 7 8 5 1 0 4 4 4 2 3 3 1 2 3 3
26 24 22 19 30 31 32 35 34 31 31 30 29 27 26 27 27 26 25 25 24 23 16 15 15 14 10 9 7 3 2 2 1 3 4 4 4 3 2 1 0 8 13 16

GFSCGP_sfc_temp_027.txt.gz
Temp
46 45 42 45 46 45 43 41 43 43 48 46 46 46 52 50 45 40 39 40 40 40 42 42 41 41 42 42 43 43 45 46 50 49 50 47 45 46 45 45 45 47 47 48
43 40 47 47 45 45 42 40 40 44 46 46 44 44 50 48 45 43 40 39 39 40 40 40 40 40 39 40 40 42 43 44 47 47 46 46 45 44 44 44 44 45 45 45
41 46 47 47 42 41 40 40 38 42 42 42 40 40 43 42 41 40 40 40 39 39 38 38 39 38 39 38 38 40 41 42 44 46 46 45 44 44 43 42 42 41 43 43
42 46 46 42 42 43 37 43 43 41 39 35 40 32 40 40 38 37 36 36 37 37 38 38 38 37 37 37 38 39 39 40 42 43 43 42 41 39 38 39 40 40 40 40
43 42 41 40 42 45 42 42 41 39 37 35 36 33 38 38 40 36 35 36 36 37 37 37 37 37 37 37 37 37 39 39 40 41 42 40 38 38 38 38 39 39 39 38
42 44 45 46 43 44 43 40 38 35 34 27 35 36 35 38 41 36 36 36 36 36 36 37 37 37 36 37 37 37 38 37 38 39 39 40 38 38 37 37 36 36 36 37
38 41 42 45 40 41 39 38 30 27 25 27 32 31 38 42 40 40 38 36 36 36 35 36 36 36 36 36 36 37 37 35 36 37 37 37 37 37 36 35 35 35 35 34
33 33 41 45 43 39 37 38 31 24 23 28 29 29 38 38 36 36 38 37 36 35 35 35 36 36 36 36 36 36 35 35 35 36 35 36 36 36 35 34 34 33 34 33
33 35 39 41 42 45 38 35 38 30 16 23 32 35 40 36 35 34 33 34 34 35 35 36 36 36 35 35 35 35 35 34 35 34 35 34 35 34 33 33 34 33 33 34
41 34 38 39 42 40 40 42 33 30 21 17 28 31 36 35 36 33 32 33 34 34 35 36 36 36 36 36 36 35 36 35 34 34 34 34 33 33 33 33 32 32 32 32
42 40 34 39 37 37 36 34 34 36 31 24 20 29 37 40 38 35 34 35 36 36 36 36 37 36 36 36 35 35 34 34 33 34 33 33 32 32 32 32 32 32 32 31
43 38 28 34 36 37 36 37 37 31 27 26 27 32 37 37 38 37 36 36 36 38 38 37 37 36 35 34 34 34 34 33 34 33 32 33 32 32 32 31 31 31 30 30
43 35 26 30 34 33 33 35 35 34 31 25 26 29 36 35 35 36 36 35 37 37 36 36 35 35 35 34 34 33 33 33 33 32 32 31 31 31 31 30 30 30 29 28
49 36 34 36 34 35 31 33 34 36 26 29 34 37 33 36 38 36 36 37 36 36 37 35 33 34 34 34 34 33 33 33 33 31 31 31 30 30 30 29 28 28 27 26
45 34 32 34 35 35 35 33 32 32 37 34 37 35 35 38 38 38 37 36 35 36 35 35 34 33 32 32 33 33 33 32 32 31 31 31 31 29 28 27 25 25 25 25
39 33 31 28 33 33 31 33 33 36 36 34 36 34 40 40 36 35 36 36 35 35 36 36 35 34 34 33 33 34 33 32 31 31 31 30 28 26 24 23 23 23 22 21
35 31 31 30 26 30 27 31 32 34 33 37 29 39 33 33 35 35 35 35 35 35 35 35 35 34 34 32 34 33 32 30 29 27 24 24 24 23 22 21 20 20 19 18
32 32 32 20 24 21 30 27 33 35 34 30 31 28 31 35 33 34 33 34 34 35 35 35 34 34 33 32 31 31 29 27 27 25 23 21 21 19 18 17 17 17 16 15
33 31 24 22 23 26 26 28 28 30 30 29 34 32 32 30 29 29 32 32 34 34 34 34 34 33 31 31 31 28 26 26 25 24 23 21 19 16 16 13 13 14 13 13
31 33 32 21 21 19 24 28 32 34 25 26 34 32 24 27 21 27 32 32 33 32 33 33 32 31 30 30 29 25 24 22 22 23 23 19 16 12 11 13 11 11 9 12
23 23 27 23 22 25 24 25 32 23 28 22 25 24 25 26 31 33 33 30 32 32 32 31 30 30 31 27 23 23 21 21 21 19 17 15 14 11 10 9 9 7 6 8
23 23 21 22 20 20 28 28 27 31 27 26 27 28 28 31 32 32 32 32 31 31 31 32 29 29 29 24 22 21 20 19 17 15 13 11 7 11 8 3 4 3 2 2
24 28 24 27 26 28 33 31 33 32 29 28 30 30 31 31 31 31 30 30 30 30 30 29 27 26 26 20 20 21 19 16 12 10 7 5 5 6 5 1 3 5 2 2
24 27 25 25 25 28 31 31 32 32 32 32 32 31 31 31 30 30 29 29 28 26 24 23 20 20 21 17 18 18 15 13 8 6 6 5 4 5 4 7 6 4 3 3
27 26 20 21 27 28 31 31 33 33 32 31 29 31 31 29 28 28 27 25 24 25 22 19 21 23 23 16 14 11 12 10 7 5 6 6 4 3 6 7 6 7 7 5
26 24 24 22 31 32 33 36 34 32 32 29 29 27 27 28 29 26 25 24 24 23 19 17 18 17 17 12 11 7 6 7 6 5 5 5 5 4 5 5 5 11 14 17

GFSCGP_sfc_temp_030.txt.gz
Temp
59 59 55 61 63 61 58 56 57 58 59 57 60 60 66 65 61 60 58 55 54 50 50 52 51 52 54 54 56 53 53 53 55 54 53 53 54 54 53 53 54 56 56 57
56 54 63 58 57 57 55 55 56 57 56 56 58 56 64 63 61 62 60 55 53 50 51 50 51 52 52 52 53 54 53 53 56 58 56 56 53 53 53 52 52 53 52 53
57 57 57 56 52 52 53 53 55 54 53 54 53 55 58 59 52 51 54 55 52 52 51 50 49 50 51 50 50 51 53 54 55 55 55 53 54 53 51 51 50 50 52 51
56 56 53 52 53 55 51 56 54 51 50 47 52 48 55 57 52 48 48 50 50 50 50 49 49 50 49 49 50 51 51 52 53 55 56 55 53 48 48 49 48 48 49 48
55 49 49 51 54 55 53 52 52 50 49 46 48 46 54 50 51 49 48 49 50 50 50 48 48 47 47 48 48 49 50 50 51 53 53 52 49 48 49 49 47 47 47 46
54 54 54 55 50 54 50 49 48 47 46 39 47 48 51 55 55 51 49 48 48 48 48 48 47 47 46 47 47 48 49 48 50 51 52 51 48 48 47 47 46 46 46 45
48 50 52 52 48 49 51 49 41 37 36 37 42 42 53 58 52 52 49 48 47 47 47 47 45 46 46 46 46 47 48 46 49 49 49 49 49 49 47 47 46 44 43 43
43 42 48 52 53 49 48 51 44 32 34 41 36 38 50 47 46 46 48 49 47 46 47 47 47 47 46 45 46 47 47 45 47 47 46 47 47 48 46 45 45 44 43 42
43 43 48 48 51 55 46 42 50 38 28 36 45 46 52 43 44 44 44 45 45 46 46 46 47 47 46 46 46 46 46 45 46 45 46 45 45 45 43 43 44 43 42 41
52 44 45 46 51 49 49 52 40 42 31 31 41 42 50 43 46 43 41 43 45 46 46 47 48 48 47 47 46 47 47 45 45 44 45 44 44 43 43 43 42 41 40 41
51 47 41 45 45 46 43 44 43 46 42 36 37 44 53 54 51 47 47 46 46 46 47 47 48 48 47 47 46 46 45 44 43 43 43 42 42 42 43 42 41 41 40 40
50 45 38 42 45 45 51 49 47 42 34 38 36 43 46 49 52 51 51 47 48 49 48 49 48 47 46 45 45 45 45 43 44 43 42 42 42 42 42 41 41 40 39 38
48 41 35 37 41 41 41 43 48 50 40 36 35 42 44 45 46 48 50 48 47 47 47 48 48 47 47 47 44 44 44 44 43 42 42 41 41 41 41 40 39 38 37 37
53 44 43 39 45 47 39 41 43 45 39 41 40 45 43 46 46 48 47 48 48 46 46 47 47 48 48 47 46 45 45 44 42 41 41 40 41 41 40 39 37 36 35 34
50 39 45 48 47 45 44 43 41 42 46 41 47 44 47 48 47 52 52 48 46 45 45 46 46 46 47 45 45 46 45 43 42 40 40 40 40 40 38 36 34 33 32 33
45 39 43 37 42 42 39 43 42 43 46 46 47 45 54 53 52 48 47 45 44 45 45 46 46 45 44 45 45 44 43 43 42 41 39 41 38 35 32 32 30 30 29 28
39 38 33 32 36 33 30 37 40 42 46 46 39 46 44 44 44 47 47 46 46 47 46 45 45 44 45 46 44 42 43 42 37 35 34 33 33 31 31 30 28 27 27 27
39 36 34 32 29 24 38 39 47 44 45 44 40 37 41 46 47 47 47 47 46 45 45 45 45 45 44 44 42 42 40 37 34 33 32 31 31 30 28 26 26 26 25 24
36 35 28 25 27 35 29 34 38 37 39 41 43 41 40 38 42 43 43 45 46 45 45 45 46 45 42 41 40 36 34 34 34 33 32 31 30 27 26 23 24 24 23 22
32 35 32 26 27 26 36 36 39 44 35 34 39 36 34 38 37 46 42 42 42 43 44 42 41 40 41 40 38 33 33 32 32 33 33 31 28 25 23 23 21 22 20 20
27 27 29 27 27 30 35 34 38 30 34 34 38 36 34 37 44 44 41 41 43 42 40 39 39 40 40 37 32 33 32 30 33 30 28 26 25 22 22 21 20 18 17 17
29 27 27 28 26 25 34 34 34 37 33 35 35 36 36 39 39 39 41 40 38 38 37 37 36 37 38 33 31 31 30 33 28 26 24 22 19 20 18 16 16 14 14 12
27 32 29 31 31 32 37 36 38 37 35 34 38 37 38 37 37 38 37 37 37 37 37 36 35 33 34 30 29 30 32 26 22 21 19 17 16 17 15 13 13 14 13 14
30 32 31 31 31 32 35 34 36 37 38 38 39 38 38 38 39 38 38 37 35 32 30 30 29 28 29 28 26 29 25 22 19 19 17 15 13 14 13 15 15 15 15 15
32 31 26 27 30 32 35 34 37 37 38 37 36 39 39 39 37 38 34 32 32 31 29 28 28 29 30 30 27 25 22 19 19 18 16 17 16 13 15 15 17 16 17 17
31 29 29 29 35 36 37 39 38 36 36 36 35 32 32 34 34 32 31 32 31 30 28 26 27 27 29 26 25 20 18 18 18 17 17 18 18 16 16 16 15 17 18 19

GFSCGP_sfc_temp_033.txt.gz
Temp
66 62 57 64 66 68 65 61 61 67 65 60 63 65 69 69 66 67 70 66 63 60 58 58 57 58 58 59 55 55 55 55 56 55 56 55 54 56 55 55 57 58 58 59
59 55 67 69 66 64 61 58 59 65 63 59 61 61 67 71 67 68 70 67 63 58 57 56 57 57 58 58 56 55 55 57 59 60 60 58 57 56 55 55 55 55 54 55
59 63 63 61 59 57 58 57 59 59 58 59 58 56 60 67 70 70 66 69 64 59 57 55 55 56 56 56 56 56 57 59 59 59 58 56 55 55 53 52 51 52 53 53
61 66 58 57 58 60 55 64 59 57 54 49 58 47 61 65 60 59 59 61 60 59 58 56 54 54 54 54 55 56 56 57 58 59 58 57 55 50 51 50 50 50 51 51
58 54 54 54 58 62 57 59 57 56 52 51 53 46 57 64 61 58 57 57 58 58 56 54 54 53 53 52 53 54 54 54 57 58 58 55 51 51 51 50 49 48 48 48
59 57 59 59 54 59 57 54 52 52 51 40 48 49 53 58 56 62 57 56 56 55 55 54 53 52 51 50 51 52 52 52 54 55 55 53 50 50 49 49 48 47 47 47
54 54 57 57 52 53 55 51 43 39 37 38 48 47 54 62 57 60 56 55 55 54 53 52 49 50 50 49 49 50 51 50 53 53 53 53 52 52 50 49 48 46 45 44
48 46 54 56 56 53 50 52 44 34 37 43 41 40 52 60 57 54 60 56 54 52 52 51 51 50 49 48 48 50 50 49 51 51 51 52 52 52 50 49 48 46 45 44
50 50 56 56 58 59 49 46 55 42 32 37 47 51 59 49 48 50 53 53 50 50 51 51 52 51 48 48 48 49 49 49 50 49 49 49 50 49 47 47 46 45 44 43
58 48 51 51 54 54 53 57 41 43 32 33 46 49 50 45 49 49 48 49 49 50 51 51 51 50 50 50 49 50 50 48 48 48 49 48 47 47 46 46 44 44 42 42
58 52 44 47 47 48 46 46 48 50 46 39 38 48 62 59 57 51 49 50 51 51 51 51 51 51 50 50 48 49 49 48 46 47 47 45 44 45 45 44 43 43 42 42
55 52 45 47 52 55 55 51 50 42 36 41 42 46 54 63 63 56 53 52 53 52 52 52 52 51 49 48 47 47 48 47 46 46 46 44 44 44 43 43 43 42 41 41
52 44 36 41 44 45 44 49 50 50 42 38 37 45 52 52 56 56 55 53 52 51 51 52 51 50 49 49 47 47 47 46 45 46 44 43 42 42 42 42 41 41 40 39
54 46 42 40 48 50 42 44 47 47 39 42 43 49 47 49 51 53 54 53 52 51 50 51 51 51 50 50 49 48 48 48 45 45 43 42 42 42 43 41 40 39 39 37
51 39 46 47 50 51 48 46 45 42 46 42 48 49 55 53 53 55 55 54 52 49 49 50 49 50 52 50 50 49 49 47 46 43 42 42 42 42 42 38 37 36 35 36
46 38 43 38 46 47 44 47 47 45 46 48 50 50 63 59 58 56 55 53 51 50 49 49 49 49 50 50 49 48 48 46 45 42 41 43 40 38 35 34 33 32 31 31
40 37 34 32 40 39 31 39 45 48 49 50 44 51 49 53 52 53 53 50 49 50 50 49 48 47 48 50 48 48 48 46 41 38 36 35 36 33 32 32 31 30 30 30
39 35 35 33 33 27 41 54 50 48 50 51 49 40 46 48 50 50 54 50 49 49 49 49 49 49 48 49 48 48 44 41 37 35 33 33 33 31 31 30 29 29 29 28
43 38 33 31 31 40 45 38 43 42 44 53 49 44 43 41 45 46 51 52 51 50 50 49 50 51 49 46 44 39 36 37 35 34 33 32 32 30 29 27 27 28 27 26
32 40 34 29 29 29 43 43 44 48 35 40 42 39 38 42 39 49 45 44 47 49 46 45 45 44 43 42 40 34 33 33 33 34 34 33 32 29 28 27 26 26 26 25
29 33 31 32 31 32 37 38 44 32 36 35 41 39 38 41 46 44 44 44 44 43 41 41 40 40 42 40 34 33 33 32 34 32 31 30 29 28 28 26 26 23 22 22
33 29 29 32 30 28 38 37 38 39 37 37 40 39 40 41 41 41 42 41 40 38 37 38 38 39 40 34 33 32 32 33 30 29 27 25 24 25 24 22 21 20 19 17
29 35 33 34 33 33 37 34 37 38 37 38 39 40 41 40 40 40 40 38 38 38 38 37 36 35 36 31 32 31 33 29 26 24 22 22 21 22 21 19 18 17 17 17
29 29 31 31 27 29 30 32 36 38 39 40 40 39 40 40 40 39 39 38 37 34 33 31 30 29 29 29 29 32 28 26 23 22 20 19 18 19 17 19 20 18 19 17
32 29 28 25 29 33 31 33 37 38 38 38 39 40 40 39 38 39 35 33 34 33 30 29 29 29 30 29 29 28 25 23 22 22 20 20 19 17 18 18 19 19 20 21
34 32 30 27 35 34 35 40 40 37 37 38 36 34 34 37 36 35 33 34 33 31 29 27 27 27 29 28 27 25 23 22 22 21 21 22 21 19 20 19 18 23 24 23

GFSCGP_sfc_temp_036.txt.gz
Temp
59 52 48 55 58 60 57 53 51 56 57 54 54 55 60 59 58 57 57 56 54 54 52 52 52 51 52 51 53 53 52 52 53 53 52 52 50 50 48 49 49 50 51 52
51 47 59 62 61 57 56 51 50 56 57 52 52 53 59 61 59 60 61 58 55 51 49 51 50 50 50 50 52 53 53 54 55 56 55 53 49 47 47 46 47 48 48 48
52 56 62 60 54 53 51 49 50 51 52 50 47 45 53 59 64 62 61 60 58 51 48 48 48 47 48 50 52 53 54 55 55 54 51 49 48 45 44 42 42 45 46 45
54 61 56 54 53 55 48 55 55 52 45 39 48 35 49 56 57 61 57 53 52 51 51 49 48 46 46 46 53 54 54 54 54 51 48 46 44 41 41 41 41 42 42 42
51 51 50 50 53 57 50 53 50 48 44 40 41 38 45 55 54 55 50 51 51 50 49 47 47 47 46 45 46 49 47 49 50 50 48 46 43 41 40 40 40 39 39 40
51 52 53 53 51 53 53 49 47 44 42 31 42 42 41 51 55 54 52 51 51 49 47 47 46 46 44 43 44 44 45 46 48 47 46 44 41 41 40 39 37 37 37 37
48 49 51 53 46 49 49 44 33 29 27 29 41 39 46 51 51 53 53 51 50 48 47 45 43 42 41 41 42 44 44 44 46 46 45 44 43 42 40 39 37 36 35 35
42 39 49 51 51 45 44 46 34 28 27 30 34 32 43 48 49 50 54 52 49 47 47 44 43 43 42 42 42 43 43 43 44 44 43 43 43 41 40 40 38 36 35 35
47 45 52 52 52 52 43 39 50 36 26 26 36 41 50 45 44 45 48 48 47 47 46 45 45 43 41 41 41 42 42 42 43 42 42 42 41 40 39 39 37 35 35 37
52 42 48 46 50 50 46 49 35 35 22 23 34 39 42 39 43 43 45 46 47 47 46 46 46 44 43 42 42 42 42 42 41 41 41 41 40 39 38 37 35 35 34 35
51 45 38 44 41 43 41 40 43 43 36 28 27 36 49 50 49 44 46 48 47 47 47 47 46 45 43 42 42 41 41 41 40 40 39 37 37 38 37 35 34 33 33 34
51 47 32 38 45 47 46 44 44 34 32 37 31 40 49 50 51 49 47 48 48 47 47 47 46 45 43 42 42 42 40 39 38 39 37 36 36 35 35 34 34 33 33 32
50 40 33 34 38 40 40 44 48 48 38 37 31 38 47 47 48 49 47 46 47 47 47 47 46 44 44 43 41 41 40 39 38 38 36 34 34 33 34 33 33 32 31 31
53 43 41 37 41 44 36 40 45 45 36 36 40 44 39 44 44 47 47 48 48 47 47 46 45 45 44 43 42 41 40 40 37 37 34 33 33 33 33 32 32 31 31 29
50 36 41 46 49 45 40 40 42 41 43 38 43 44 51 48 45 48 48 47 47 46 46 46 45 45 44 43 42 42 42 40 39 37 34 33 33 33 32 31 30 30 30 30
45 37 41 38 44 41 40 45 42 43 44 45 46 45 52 54 52 47 49 47 46 45 46 47 46 44 44 44 43 43 42 39 38 36 34 33 33 32 30 30 29 28 28 27
38 36 33 33 39 37 33 38 43 44 46 46 39 48 51 52 49 49 48 48 47 46 47 45 45 45 45 45 44 42 41 37 35 33 31 31 32 30 29 29 28 27 25 26
37 36 34 33 34 27 40 46 47 45 47 49 47 47 43 48 49 50 51 48 47 45 44 45 45 45 42 41 41 40 37 35 33 32 30 29 30 29 26 26 25 24 25 24
44 38 33 31 32 38 41 34 39 38 41 49 49 50 42 40 43 41 45 47 46 45 46 46 45 44 43 40 39 36 33 33 33 31 30 29 29 26 25 24 23 23 23 21
39 43 34 31 29 29 34 34 40 44 36 42 45 47 36 40 39 41 43 43 45 45 42 40 40 39 39 36 36 35 32 32 30 29 31 29 27 26 26 25 22 22 19 22
30 34 32 32 32 33 30 31 37 33 34 29 34 37 38 41 43 42 40 41 40 38 37 36 38 38 36 34 33 31 29 30 30 27 27 26 26 27 26 23 19 20 18 20
32 31 32 33 31 29 34 33 36 34 32 32 34 35 36 36 37 36 37 36 36 35 35 35 35 34 33 31 31 28 29 29 26 25 24 23 23 25 23 22 16 17 16 13
29 32 33 32 31 30 31 32 35 35 33 37 37 37 36 36 36 36 35 35 34 34 33 33 32 32 31 27 28 28 27 26 23 22 20 19 19 20 19 18 16 12 12 13
28 30 30 30 27 28 31 34 34 35 36 37 37 37 37 37 35 34 33 33 33 30 30 26 27 26 25 23 26 23 24 23 21 20 19 17 17 14 13 16 16 14 13 12
29 30 27 24 27 28 31 32 33 36 35 36 35 34 35 35 34 34 31 31 31 30 26 26 27 26 26 22 22 19 21 22 20 18 16 15 13 14 12 13 12 14 11 15
30 28 28 26 30 31 32 35 35 34 34 34 33 32 33 35 34 32 30 30 30 28 23 23 22 22 22 22 19 18 20 20 19 16 16 15 15 12 12 11 9 23 24 25

GFSCGP_sfc_temp_039.txt.gz
Temp
52 46 43 49 51 52 49 46 45 49 54 51 49 50 54 56 53 51 50 50 50 50 48 49 49 48 47 47 48 50 51 52 53 52 51 50 48 49 48 47 46 47 48 48
47 43 52 54 53 52 49 46 45 50 53 50 49 49 53 55 54 56 56 54 52 46 46 47 46 46 46 46 47 49 52 53 54 54 53 51 49 47 45 44 44 45 45 45
45 51 56 53 51 50 48 46 45 48 48 47 45 42 48 54 57 56 58 58 55 49 46 45 45 44 44 44 46 51 53 54 53 52 51 49 48 46 42 40 40 41 43 43
48 56 54 51 50 52 44 50 51 48 43 37 44 34 44 51 52 52 57 53 53 48 47 47 45 43 44 44 47 52 53 53 52 52 49 45 43 40 38 38 38 39 40 41
47 49 49 48 50 53 47 50 47 46 40 36 37 35 42 50 50 56 55 54 49 48 47 46 46 46 44 44 46 51 52 52 51 50 46 44 41 41 40 38 38 37 38 38
48 50 51 51 48 51 50 47 45 42 39 28 39 39 37 47 52 54 48 47 47 46 46 45 44 44 42 41 42 45 49 49 49 45 44 44 41 40 38 37 36 36 36 36
44 46 48 51 46 48 47 43 31 28 26 30 38 35 45 49 52 53 52 47 46 46 44 43 41 41 40 39 40 42 43 43 43 44 43 43 42 42 40 38 37 36 35 33
41 35 46 50 48 44 41 43 32 26 25 28 34 31 41 49 50 48 52 51 46 44 45 43 42 41 41 41 40 42 41 41 42 43 43 43 42 42 41 39 37 35 35 34
40 40 47 48 51 53 41 39 46 35 21 24 33 39 46 45 45 43 45 46 45 45 43 41 41 41 40 39 40 41 40 40 41 42 42 42 41 41 40 37 35 35 34 35
50 39 44 43 50 46 45 47 36 33 22 20 30 33 41 41 45 43 43 44 45 45 42 42 41 40 40 41 40 39 41 41 41 41 42 41 40 39 38 37 34 34 33 33
50 45 36 42 40 41 41 39 42 43 34 27 25 36 45 50 50 44 45 46 46 45 44 42 42 41 41 41 40 41 41 40 39 40 38 38 36 37 36 35 33 33 32 32
52 44 29 36 42 45 45 43 40 34 33 31 30 41 46 47 49 47 47 47 47 47 45 43 42 41 40 40 40 40 40 40 40 39 38 36 36 35 34 33 32 31 32 31
49 41 31 33 37 38 39 42 48 46 35 34 30 40 45 44 46 46 43 44 45 45 43 43 41 40 41 41 41 41 40 39 37 37 36 34 34 33 33 32 32 31 30 30
54 41 42 39 39 41 37 41 45 46 33 36 40 45 42 43 45 44 43 45 44 44 44 43 42 43 42 42 41 41 40 39 37 36 35 33 33 33 33 32 31 31 30 29
50 37 39 44 43 43 40 40 42 40 43 38 45 44 50 51 47 48 46 43 43 43 43 44 43 43 43 41 41 41 41 39 38 36 34 33 32 32 31 31 30 30 30 29
46 38 41 39 40 40 38 41 42 43 44 44 46 45 51 53 53 46 46 45 44 44 45 45 45 44 42 42 41 42 41 39 38 36 34 32 32 32 31 31 31 30 28 27
39 38 34 34 39 37 32 39 43 42 46 45 39 48 49 52 53 46 45 46 46 46 46 45 45 44 44 44 43 41 41 38 36 33 31 31 32 31 30 31 30 28 27 26
37 37 35 34 34 27 40 45 48 45 47 47 47 49 48 51 53 49 50 47 47 47 46 46 46 46 44 44 43 43 39 35 34 32 31 30 32 31 29 29 27 25 25 25
45 39 33 31 32 37 41 36 40 38 42 50 49 51 52 46 42 43 45 50 51 49 49 48 47 46 43 42 42 39 36 35 34 33 33 32 32 30 28 27 25 24 24 21
38 42 35 31 30 28 42 36 39 44 37 47 47 48 48 42 41 49 43 43 42 44 45 42 41 41 43 42 40 37 35 34 33 34 34 32 31 29 27 27 24 19 21 24
34 35 31 32 32 35 32 32 41 34 36 27 31 39 39 42 49 42 41 41 40 40 39 38 40 42 41 37 37 35 33 33 35 31 28 28 28 27 27 25 20 18 21 19
34 33 34 34 32 30 34 35 39 37 30 30 32 32 34 36 34 35 37 36 36 36 36 37 36 35 34 34 36 33 33 33 27 27 26 25 24 25 23 22 16 17 18 19
31 32 34 35 33 30 32 32 34 35 32 35 33 33 33 34 33 36 35 35 35 36 35 34 34 32 31 29 34 32 31 25 24 24 23 22 19 20 20 20 17 17 17 19
29 30 29 29 28 28 31 33 34 35 35 36 36 35 35 35 35 35 35 33 33 30 29 26 29 28 27 24 25 23 24 23 22 21 18 16 18 14 13 17 18 18 16 15
30 31 27 26 28 29 31 32 34 35 35 35 36 35 36 35 35 34 31 30 30 29 27 27 27 26 25 22 21 18 22 22 21 16 16 16 15 16 14 15 14 16 12 17
29 29 29 29 32 32 34 37 36 34 35 35 35 33 33 34 34 31 28 29 29 28 24 23 21 22 19 18 17 16 19 20 19 16 16 15 15 13 12 12 9 23 23 25

GFSCGP_sfc_temp_042.txt.gz
Temp
50 46 43 47 49 49 46 43 43 46 53 49 48 48 52 53 50 49 48 48 48 49 48 47 47 46 45 45 45 46 46 50 51 51 50 49 48 48 48 48 49 46 46 47
45 43 51 52 50 48 45 43 42 48 51 49 48 46 50 51 52 54 55 51 51 46 45 45 44 44 44 45 45 46 47 48 51 53 51 50 48 45 46 45 43 44 44 44
43 50 53 52 48 46 45 43 42 46 45 45 42 41 47 53 52 54 54 58 55 51 47 45 44 44 43 44 44 47 48 50 52 51 49 47 47 46 44 39 39 40 41 41
46 52 52 47 47 49 42 50 49 46 42 36 42 35 41 48 50 51 55 53 54 50 48 47 46 43 44 44 44 47 49 50 50 50 49 46 41 39 39 37 37 38 39 39
46 47 47 47 48 52 47 49 46 43 38 35 35 33 39 45 46 52 59 53 52 49 48 46 46 47 45 44 45 45 46 47 49 50 49 45 39 39 38 36 37 36 37 37
47 49 50 51 49 51 49 45 42 38 37 29 39 38 36 44 50 51 52 50 50 47 48 48 47 45 43 42 43 44 45 49 49 48 46 43 39 39 37 36 36 35 35 35
44 45 47 49 46 46 46 42 31 28 26 30 35 32 45 49 51 53 55 52 45 45 45 43 41 43 42 42 42 44 46 47 47 45 44 42 41 41 39 37 37 35 34 32
40 36 45 48 49 45 43 42 31 25 24 28 33 30 40 48 53 48 49 49 43 41 43 43 43 44 43 42 41 44 43 45 43 42 41 41 41 40 40 38 37 36 34 34
37 37 43 44 47 53 40 38 45 34 18 23 33 38 45 46 47 46 46 43 39 40 41 42 41 42 41 41 41 41 41 42 41 41 41 40 40 39 38 36 35 34 32 34
47 37 40 42 47 44 44 47 34 31 22 20 30 31 39 40 45 49 46 42 41 40 39 40 41 40 41 41 40 39 42 41 41 40 41 40 40 39 37 35 33 33 32 32
50 44 35 41 39 40 40 38 39 39 32 26 22 34 43 50 49 48 48 46 42 42 41 40 40 40 40 39 38 40 39 39 38 40 40 38 36 36 36 34 33 33 32 32
48 45 31 36 40 40 39 40 40 32 30 30 29 41 46 46 48 47 49 46 43 44 42 41 40 39 37 38 39 39 39 39 39 39 38 37 36 35 34 34 33 32 33 31
48 39 28 32 36 36 37 41 47 41 33 35 30 39 43 44 45 47 47 45 42 42 41 40 38 38 39 38 38 39 39 39 38 37 36 34 34 34 34 33 32 32 31 30
53 42 39 36 39 39 34 37 41 45 37 37 38 45 42 44 48 48 45 43 41 42 42 40 39 39 40 39 39 40 39 39 36 36 35 34 33 34 33 32 31 32 31 30
50 38 43 46 42 41 37 41 41 40 43 38 46 45 51 51 48 48 48 43 40 40 40 41 41 40 40 39 40 40 40 38 37 36 34 34 33 33 31 31 31 31 31 31
45 39 42 38 43 39 39 38 41 43 44 44 46 45 51 49 48 45 47 44 42 42 43 43 43 42 41 41 40 40 40 37 37 36 34 33 32 32 32 31 31 30 30 28
39 40 36 33 40 35 32 39 40 41 46 44 39 48 46 49 50 50 47 45 45 45 45 44 44 43 43 42 42 41 40 38 36 34 32 32 32 32 31 31 30 29 29 29
37 38 36 33 35 27 40 47 50 46 47 47 47 49 47 49 53 52 48 45 46 48 48 46 46 46 45 44 43 42 38 35 35 33 32 33 32 32 31 30 30 29 29 28
45 39 34 31 32 37 41 37 39 39 43 50 49 51 53 53 44 50 46 51 54 50 50 49 48 46 45 43 42 39 35 34 34 33 32 33 33 32 29 29 29 29 27 25
41 42 35 31 29 28 43 40 45 43 37 48 48 49 49 43 40 49 55 46 45 46 43 41 39 38 41 40 39 36 34 33 33 34 34 33 33 32 30 31 29 27 26 27
35 35 33 33 32 33 34 33 44 34 38 28 36 43 41 44 50 40 38 38 37 37 37 37 40 40 40 38 36 34 34 34 35 34 33 33 32 32 31 30 27 24 24 22
34 33 32 33 31 29 33 34 38 36 30 29 32 32 34 36 35 35 35 34 35 35 35 35 35 35 36 36 37 33 33 35 34 33 30 30 30 30 28 27 23 22 23 22
32 37 35 35 35 30 31 30 32 33 29 32 33 35 34 34 32 33 32 32 33 34 33 33 35 33 32 34 36 33 33 29 28 29 29 29 27 26 26 25 21 19 19 21
29 31 32 32 31 29 30 33 34 34 34 34 35 36 36 35 34 33 32 32 32 29 31 29 31 30 27 28 29 31 28 28 29 29 25 23 24 21 20 21 21 20 18 18
28 32 27 25 28 29 31 33 35 33 33 34 35 35 36 34 33 33 31 29 29 29 27 28 29 28 27 25 24 22 24 25 26 24 20 20 20 19 16 15 17 19 13 20
29 29 27 28 33 34 34 36 36 34 34 35 35 34 34 35 34 31 29 28 28 27 24 25 22 23 19 22 22 22 23 24 22 19 18 17 16 14 13 13 9 23 23 26

GFSCGP_sfc_temp_045.txt.gz
Temp
48 45 42 46 47 46 44 41 41 44 50 47 46 46 52 51 47 47 48 47 48 49 52 47 47 45 45 45 45 45 46 47 48 47 46 47 48 48 48 48 49 49 49 46
45 42 50 49 47 46 43 40 41 45 48 47 46 46 50 48 50 52 52 52 51 51 45 47 45 43 44 46 45 45 46 47 48 48 47 47 47 43 46 46 46 47 44 44
43 49 50 50 45 44 42 41 41 44 44 43 41 40 45 52 50 51 53 57 57 54 51 48 45 44 44 44 45 46 46 47 48 48 46 44 43 46 44 43 43 43 42 41
45 50 49 45 44 47 40 47 46 43 40 35 40 33 41 46 50 49 54 55 55 53 52 50 47 44 44 45 45 46 47 47 46 46 45 45 41 39 41 41 41 38 39 39
45 45 46 44 46 49 44 46 44 41 37 33 34 33 40 41 46 51 56 56 53 52 51 48 48 48 47 45 45 45 46 46 47 47 49 47 43 37 37 40 40 36 36 37
45 46 48 49 47 49 48 44 41 36 36 29 38 37 38 42 48 50 53 55 52 49 46 48 48 46 45 43 44 44 45 45 46 48 48 46 43 38 37 36 38 35 34 34
41 44 46 49 45 45 45 41 30 28 25 30 33 32 47 48 50 53 57 54 49 43 42 42 42 43 42 42 43 44 45 44 45 46 46 45 44 43 39 38 37 34 33 32
38 36 45 48 49 45 42 42 32 25 24 28 32 29 40 46 50 49 50 50 45 42 41 42 43 43 42 43 43 44 44 44 44 44 45 44 44 44 42 40 38 37 36 33
37 37 42 44 46 52 40 36 44 35 18 23 34 39 44 46 46 46 48 46 44 43 40 40 40 43 42 42 42 44 44 43 43 43 43 43 43 42 41 36 36 34 32 34
46 36 39 41 45 42 43 45 34 30 22 18 29 31 39 44 46 50 48 48 43 41 39 38 39 40 41 42 43 42 43 42 41 40 40 41 41 41 40 36 34 33 32 33
48 42 34 39 38 38 38 37 37 37 32 25 22 35 41 49 49 49 50 50 45 41 39 38 38 38 39 39 39 39 40 40 39 39 39 37 36 38 36 36 34 33 33 32
47 43 30 35 38 39 37 37 41 31 29 29 28 40 44 46 49 48 50 50 43 42 40 39 38 37 37 37 37 40 40 39 39 39 38 37 36 35 35 34 34 33 33 32
48 39 25 31 35 36 36 39 45 40 33 35 27 39 41 41 43 47 48 46 45 41 39 37 36 37 37 37 38 39 39 39 37 37 37 35 35 35 34 33 33 33 32 31
51 41 36 36 35 37 33 36 41 42 33 36 38 45 43 44 44 47 48 46 42 41 39 37 37 38 38 38 38 39 38 39 36 37 36 34 34 35 35 34 32 33 32 31
48 36 39 43 44 38 37 36 39 39 43 37 44 44 51 51 48 49 50 46 43 41 39 39 39 39 39 38 39 39 39 38 37 36 35 35 34 35 33 31 32 32 31 32
44 36 39 36 42 41 37 37 39 41 44 44 46 45 50 49 45 46 49 48 44 43 42 42 41 40 39 40 39 39 39 37 37 36 35 35 33 33 32 32 32 31 31 30
40 36 33 32 37 37 31 38 41 41 44 44 39 48 46 52 51 52 54 45 45 46 47 44 42 42 42 41 42 40 39 37 35 34 33 32 33 32 32 32 31 31 30 30
37 37 35 33 34 27 40 49 48 45 46 47 47 50 52 52 55 52 47 48 47 48 47 46 45 44 43 43 42 41 38 35 35 33 32 32 33 32 31 31 30 30 29 28
46 40 34 32 32 37 39 40 39 38 42 50 48 50 52 53 45 52 46 51 52 49 49 50 48 46 43 41 41 38 35 34 34 32 32 32 33 31 30 29 28 28 28 26
42 42 36 31 30 28 43 44 47 43 37 50 48 50 50 47 40 50 47 44 45 45 44 43 40 38 39 38 38 35 33 33 33 33 33 33 33 32 30 30 28 28 28 27
35 35 33 33 32 33 35 33 42 34 37 30 34 43 45 44 48 38 39 39 36 36 35 34 36 37 36 36 35 33 32 32 35 33 32 32 32 31 31 29 28 27 27 26
34 32 33 34 31 29 33 35 38 36 30 29 32 32 34 36 37 35 34 34 34 33 33 34 33 32 32 32 33 30 31 31 31 31 31 31 31 30 30 29 28 27 27 26
32 36 34 34 34 33 32 33 32 32 28 31 31 32 32 32 32 32 32 32 32 32 32 32 31 30 30 29 31 30 31 32 32 32 31 31 31 30 30 30 28 26 26 25
30 31 35 35 32 28 30 32 33 33 32 32 32 32 35 36 35 35 33 32 31 27 27 26 31 30 29 30 31 32 31 30 31 30 29 29 29 27 27 28 26 26 24 23
31 33 32 32 26 29 30 31 34 33 34 35 34 34 35 36 35 34 31 28 28 29 28 29 29 27 25 26 26 26 27 30 29 27 24 25 25 24 22 20 21 23 18 24
30 31 32 32 32 33 32 35 35 33 35 35 36 34 33 34 32 31 29 28 27 27 24 25 24 24 22 23 21 21 23 26 25 22 21 22 21 19 19 18 13 25 25 29

GFSCGP_sfc_temp_048.txt.gz
Temp
46 45 42 45 45 43 42 38 39 42 47 44 44 44 49 51 46 47 47 46 49 50 56 49 48 46 45 45 45 46 46 50 51 50 49 47 48 49 49 49 50 51 51 51
44 41 48 48 46 44 41 38 39 43 45 44 44 44 50 49 48 50 53 51 51 51 48 47 45 44 44 45 45 45 46 50 51 50 45 45 45 43 47 46 47 47 47 48
41 47 48 49 43 43 41 39 39 42 42 41 39 39 43 49 47 49 50 56 55 54 54 49 45 46 44 44 45 46 46 47 51 50 44 43 45 45 45 44 44 45 46 45
43 47 47 43 42 46 38 45 44 41 38 33 37 31 39 46 49 49 55 51 54 55 53 51 47 45 45 46 46 47 46 46 47 48 46 45 40 39 40 43 43 42 43 41
44 43 43 42 44 47 43 44 42 39 36 32 31 32 38 40 45 51 57 54 53 54 51 51 48 49 48 47 45 46 45 46 46 46 47 46 43 38 37 41 41 40 40 38
43 44 47 47 45 46 46 43 39 35 35 28 35 36 37 40 47 48 54 56 53 49 47 46 46 45 45 43 44 44 45 45 44 45 44 47 42 38 38 39 40 39 38 34
39 42 44 46 43 43 42 41 31 27 24 28 32 32 46 46 51 49 53 54 49 47 45 43 42 41 41 41 43 44 44 43 44 45 44 43 43 43 43 41 40 38 36 32
37 34 43 46 47 43 41 41 31 24 22 28 30 29 39 46 48 49 48 50 45 46 44 43 41 41 40 42 43 44 44 43 43 45 44 42 44 45 45 43 41 41 40 36
35 36 41 42 44 51 39 37 43 36 17 23 34 37 45 45 46 47 46 46 46 44 44 42 40 39 39 41 42 44 44 44 43 44 43 42 44 44 43 42 41 39 38 36
44 36 37 40 44 42 42 44 34 31 23 18 30 31 37 44 47 48 47 48 48 43 44 40 38 38 39 41 42 44 44 43 42 42 42 42 42 44 43 41 39 37 37 34
47 41 34 38 37 38 39 37 36 37 32 25 21 37 40 47 49 48 51 49 46 46 44 42 38 37 38 39 41 42 42 40 40 41 39 38 41 42 40 39 38 38 36 32
46 41 31 35 36 37 35 37 38 31 28 27 27 39 44 45 47 46 48 48 44 43 43 41 38 36 36 37 37 39 40 40 40 39 38 37 38 39 39 39 38 36 36 33
46 39 26 32 34 34 34 37 41 38 33 33 26 39 42 40 43 44 45 47 46 43 41 38 36 35 35 36 37 39 40 40 38 37 37 35 35 37 38 37 37 36 34 33
50 40 36 34 35 36 32 35 40 44 32 38 36 45 44 42 44 47 47 47 46 45 42 38 36 36 37 37 38 38 39 40 37 37 36 34 35 36 37 37 35 35 33 32
47 36 37 43 40 36 36 35 38 40 43 35 43 43 50 52 51 53 52 47 46 44 41 40 39 38 37 37 38 39 39 38 37 36 35 35 35 36 37 35 34 34 32 33
44 35 38 35 40 37 35 35 39 39 42 43 44 43 56 57 49 46 48 50 50 46 44 45 42 39 38 39 39 39 39 37 37 36 35 36 34 34 34 33 33 32 32 31
39 36 33 32 37 35 31 36 40 41 45 44 37 46 53 52 53 53 53 48 48 48 51 46 44 43 42 41 41 39 40 37 35 36 34 33 33 32 33 33 32 32 31 31
37 35 35 33 32 26 40 44 45 43 45 46 46 49 52 53 54 52 50 48 50 48 48 48 47 44 43 42 40 40 37 35 34 34 33 32 32 32 32 31 32 32 31 30
44 40 34 31 32 38 38 39 39 36 39 48 46 49 51 53 44 52 50 48 51 50 47 47 46 45 42 39 39 35 33 33 33 33 32 32 33 31 31 31 31 31 29 29
43 44 35 32 29 28 42 49 44 42 35 49 48 49 49 45 39 49 43 41 40 40 39 40 39 39 39 36 34 33 32 31 31 32 32 32 33 32 31 31 30 29 29 28
34 35 33 33 31 31 37 33 42 34 37 29 35 43 37 44 48 37 36 36 35 34 34 34 34 35 33 33 32 30 29 29 29 30 30 30 31 32 32 30 29 28 27 26
34 32 32 34 31 29 35 35 38 38 30 31 32 33 34 37 36 33 32 33 33 33 33 32 31 30 30 30 30 27 27 28 27 28 27 29 30 30 30 29 28 28 27 26
31 34 32 34 33 38 35 38 36 34 32 33 33 33 33 33 32 32 32 31 31 32 31 30 28 28 28 26 27 27 24 27 27 28 28 30 30 30 30 29 28 27 27 27
34 33 34 35 35 34 35 33 34 34 35 35 34 34 36 35 33 32 32 31 30 26 26 26 29 27 27 29 32 31 31 32 33 31 31 30 30 30 30 31 29 29 27 26
32 33 34 32 32 30 32 30 34 33 34 34 34 34 35 36 33 33 30 30 29 29 29 30 30 27 24 25 26 28 29 32 31 29 27 28 28 28 27 25 27 26 24 28
30 31 33 35 34 36 37 35 34 34 34 35 36 33 32 33 32 29 28 28 28 27 26 26 23 22 20 19 17 18 21 26 26 23 23 24 24 23 22 21 19 28 27 31

GFSCGP_sfc_temp_051.txt.gz
Temp
47 46 43 46 45 44 44 41 41 43 48 46 45 45 49 54 50 50 52 52 53 53 60 55 53 52 50 49 50 50 50 52 53 53 52 51 51 53 53 53 53 53 54 54
44 42 47 48 46 45 42 39 41 44 45 46 44 46 50 50 55 54 57 57 56 57 54 53 51 50 50 51 50 49 50 51 53 55 52 52 51 50 52 50 50 51 51 51
42 46 47 48 42 43 41 40 39 43 43 42 41 41 44 49 49 51 52 58 58 58 59 56 49 50 49 48 49 50 50 51 53 54 49 46 47 48 47 47 48 48 49 48
43 46 46 43 42 45 38 44 43 40 40 35 40 33 41 47 49 50 53 53 55 58 55 54 50 49 49 50 50 51 50 50 52 51 50 49 49 45 47 47 48 46 47 46
44 42 42 41 44 46 43 43 42 40 37 35 35 34 41 42 46 50 55 57 58 53 52 54 51 52 52 50 48 49 49 49 52 51 52 50 47 46 45 45 45 45 43 44
42 43 45 46 43 45 44 42 39 35 36 29 35 39 39 42 47 50 54 55 55 52 51 50 50 48 47 46 47 48 47 48 49 51 51 51 50 44 43 42 43 43 41 41
38 41 42 46 42 43 41 40 31 28 25 30 32 33 46 48 50 50 56 57 53 52 51 50 48 45 44 43 45 46 47 47 46 47 50 50 48 47 46 44 44 41 39 39
36 34 42 45 47 42 39 40 32 25 23 29 30 30 41 47 49 49 49 50 48 47 48 49 48 45 43 43 44 45 46 47 45 47 47 49 49 48 47 47 46 44 43 42
34 35 40 42 43 49 39 36 42 35 17 24 33 37 45 45 47 48 51 46 48 48 47 47 46 44 42 42 43 44 46 47 44 46 46 46 48 47 46 46 45 44 43 42
42 35 36 39 44 41 41 44 35 31 23 19 30 32 40 45 49 51 48 50 49 48 48 47 45 42 41 41 43 44 46 46 44 45 45 46 46 46 45 44 42 40 39 38
47 41 33 38 37 37 39 37 35 37 32 25 22 36 42 48 49 49 50 49 48 49 49 47 45 42 41 41 41 43 43 43 42 43 44 43 44 44 42 42 42 40 39 38
45 40 30 34 36 37 36 37 38 32 28 28 28 39 44 48 48 46 47 48 48 48 49 46 44 41 39 39 40 41 42 42 42 43 42 41 42 42 41 42 41 38 38 37
46 38 25 31 34 33 34 36 39 37 33 30 28 39 42 44 47 47 48 48 47 47 47 44 42 40 39 38 39 40 41 42 41 41 40 39 39 41 41 41 39 38 38 37
50 40 35 34 35 36 32 34 39 43 32 38 34 45 51 42 45 47 49 49 49 48 46 44 42 41 39 38 38 39 40 41 39 39 39 38 38 40 40 40 38 37 37 36
47 35 38 40 41 37 36 35 36 39 43 38 43 43 50 53 50 54 55 51 50 51 46 44 44 43 40 38 38 39 40 40 39 38 38 38 38 38 39 38 37 37 36 36
43 38 38 36 39 40 35 36 36 39 42 43 45 44 56 53 51 46 49 49 50 49 49 48 45 42 41 41 40 39 40 39 38 38 38 38 36 35 36 36 35 34 34 34
38 35 33 32 38 34 30 36 39 41 41 42 37 46 52 50 52 53 51 47 51 51 53 52 49 46 44 44 42 40 40 39 36 37 36 35 34 34 34 34 33 33 33 33
37 36 35 32 33 25 39 45 45 42 44 46 46 47 50 52 56 55 50 49 50 49 48 50 51 48 45 43 40 40 37 36 35 35 34 33 33 33 32 32 33 33 33 32
43 38 32 30 31 37 35 38 39 36 39 47 47 50 52 53 44 51 53 49 53 51 46 45 44 44 44 42 39 36 33 33 33 33 33 32 32 31 31 30 31 32 31 31
39 40 34 32 28 27 38 48 45 41 34 49 47 47 49 45 39 49 42 40 40 40 39 38 37 38 39 37 35 33 31 30 30 31 32 31 31 30 30 31 31 31 31 30
32 32 31 31 30 33 36 33 40 32 36 32 41 47 46 43 49 40 36 37 35 35 35 34 34 34 33 33 31 30 28 28 29 29 29 29 30 29 30 29 29 30 28 27
32 31 31 33 29 27 33 34 36 40 33 31 34 37 38 39 39 36 34 34 33 33 33 33 31 30 30 30 30 27 28 27 27 26 26 26 27 29 30 28 28 28 28 27
30 35 31 34 33 36 38 38 43 39 35 35 36 37 35 35 35 34 34 33 31 31 30 29 27 28 27 25 27 27 24 25 25 24 24 26 27 28 29 28 28 27 28 27
33 37 30 31 34 36 40 42 43 36 35 37 36 36 35 36 35 33 32 30 29 26 27 26 28 29 28 28 29 28 29 30 30 29 28 29 28 28 29 30 30 29 29 29
34 30 32 35 35 34 38 35 38 34 35 35 35 36 35 35 33 32 30 27 28 29 29 30 28 26 23 24 24 26 30 33 32 31 29 30 30 29 29 28 30 30 30 32
30 35 32 34 33 35 36 34 35 35 34 34 34 32 32 34 33 30 27 27 28 27 27 25 22 20 16 17 15 15 20 29 29 26 27 27 27 27 25 25 23 29 29 31

GFSCGP_sfc_temp_054.txt.gz
Temp
59 61 58 64 64 59 59 57 57 59 59 57 60 61 66 70 70 67 70 72 74 73 78 77 74 71 68 67 66 66 65 65 65 64 61 59 61 58 59 63 63 61 59 59
58 56 64 60 57 57 56 55 57 57 55 56 59 58 65 67 67 71 72 73 75 76 77 75 71 69 66 66 65 65 65 65 65 65 64 64 63 58 59 58 56 56 56 57
57 58 57 58 54 53 55 55 56 55 53 55 53 57 63 65 64 67 69 72 74 75 76 77 71 67 67 65 64 64 64 64 64 65 64 59 58 52 52 52 52 52 53 52
57 57 54 53 53 56 52 57 54 51 52 51 53 50 62 66 65 65 69 72 73 73 73 73 74 67 66 65 66 65 64 63 63 64 61 58 58 53 52 54 53 51 51 51
56 51 51 51 55 57 54 53 53 51 51 47 50 47 58 54 60 64 70 72 74 75 72 71 70 68 69 66 64 63 63 62 62 62 61 61 60 60 54 55 54 53 51 50
53 53 55 57 52 55 52 51 50 49 48 43 52 49 57 63 63 64 68 71 72 71 69 68 67 64 64 64 61 60 61 60 61 61 60 60 60 58 53 56 54 53 53 51
48 51 53 53 50 52 53 52 45 41 38 41 43 43 54 62 65 64 67 73 70 67 68 67 66 64 61 58 58 58 59 58 59 60 60 60 60 58 56 56 57 55 53 51
46 43 50 54 56 52 50 54 47 35 37 46 38 40 54 60 63 63 64 66 65 63 65 65 67 64 61 56 56 57 56 57 57 57 58 60 60 59 58 55 58 56 55 53
45 45 49 49 53 58 48 45 56 46 31 38 50 56 61 59 59 60 62 64 65 67 66 65 66 63 61 57 55 55 56 56 56 55 57 57 58 56 55 54 55 54 56 53
52 45 45 48 52 51 51 55 42 45 33 33 48 47 51 58 61 64 62 64 65 64 62 64 64 61 58 57 56 55 56 55 55 54 56 56 55 55 54 53 52 53 51 49
56 48 41 46 46 46 47 46 45 47 43 38 38 50 61 62 64 63 62 60 62 63 63 63 62 58 56 54 54 54 54 54 53 52 54 53 54 54 54 52 51 49 46 47
52 46 42 44 46 47 48 50 50 43 36 39 38 47 58 63 64 60 61 60 62 61 62 61 59 58 55 54 53 52 53 53 53 52 53 52 53 53 52 50 48 46 45 46
50 38 33 38 43 44 43 47 51 52 43 38 37 47 58 58 59 62 61 62 61 61 64 63 62 62 60 57 54 53 53 52 52 51 51 50 50 51 50 50 48 46 47 45
51 39 37 36 46 47 41 44 47 48 40 42 45 50 60 60 58 62 61 62 65 64 61 64 64 65 63 58 56 54 53 53 51 50 49 48 49 49 50 49 46 43 45 41
49 38 43 45 49 44 45 44 44 43 47 43 48 50 56 60 62 64 67 66 64 64 64 65 60 62 62 59 55 53 54 52 51 48 47 47 47 49 49 47 43 41 41 40
44 36 42 37 46 45 41 46 46 45 48 48 50 50 61 63 65 60 58 59 60 63 64 65 63 59 57 60 57 55 52 51 49 47 46 48 46 43 42 41 40 38 38 36
40 35 32 31 40 38 31 38 44 46 50 50 44 52 59 59 59 60 61 60 58 60 63 63 63 61 59 59 57 54 54 51 45 42 40 39 39 38 39 39 38 37 37 36
38 35 34 31 33 24 41 53 52 47 50 52 51 53 56 58 60 61 62 60 60 61 62 60 62 62 62 57 54 54 48 45 40 38 37 37 37 36 37 37 36 36 36 34
40 39 32 29 30 38 40 46 47 44 45 53 51 54 56 58 57 57 61 62 61 61 61 58 55 53 54 52 50 44 40 40 39 38 37 37 36 35 35 34 35 36 34 33
41 41 34 31 27 25 44 52 55 50 35 53 53 52 53 55 46 54 60 51 51 49 47 46 45 46 47 47 44 40 38 37 37 37 37 36 35 34 33 34 34 34 34 32
31 32 30 31 29 33 40 44 49 32 37 39 48 53 52 50 55 59 47 47 46 44 43 42 42 42 40 39 38 37 36 36 36 35 34 34 34 33 34 33 34 32 31 29
33 30 30 31 28 26 40 42 39 41 42 40 42 45 44 47 47 44 44 44 42 42 41 39 40 38 38 36 36 34 34 33 32 32 32 31 31 32 32 31 31 31 30 28
30 37 34 34 34 38 41 41 44 41 39 44 43 45 42 42 43 44 42 40 38 38 37 35 34 33 33 32 34 32 30 31 30 29 28 29 31 31 31 31 30 30 30 29
37 36 33 32 35 38 41 44 43 45 44 47 43 40 43 40 41 41 38 36 35 32 31 31 31 30 29 31 31 30 30 31 29 29 29 30 30 30 31 32 32 31 30 29
35 34 33 33 37 39 40 42 45 45 44 43 44 41 42 41 41 40 35 32 32 32 32 31 30 27 25 27 27 28 32 33 32 31 30 31 31 31 31 32 32 32 33 34
39 36 32 31 41 40 43 42 39 40 41 42 40 38 36 36 36 34 32 31 32 29 28 26 23 22 21 21 21 23 27 33 32 30 30 31 31 31 30 29 28 32 33 33

GFSCGP_sfc_temp_057.txt.gz
Temp
66 63 59 65 68 68 65 64 62 67 65 60 64 65 70 75 76 75 76 76 78 80 84 84 83 80 77 76 75 75 72 71 71 69 67 67 67 70 68 68 71 72 70 67
61 57 68 65 66 62 62 60 61 67 63 58 63 62 69 72 73 75 76 78 79 81 83 83 82 79 75 74 73 73 72 71 70 70 69 69 68 69 68 63 62 67 65 64
60 62 65 62 59 58 60 59 61 60 59 62 59 60 67 75 74 74 76 78 79 80 81 83 82 78 74 71 71 71 71 71 70 70 70 68 68 65 61 59 58 58 59 58
61 63 58 57 59 61 56 64 61 57 55 53 60 51 64 71 73 75 75 76 78 79 80 80 81 80 74 72 72 71 71 70 70 69 68 65 61 58 60 60 58 55 54 54
58 55 53 54 59 62 58 59 58 56 54 53 55 49 60 70 65 71 75 77 80 81 80 79 78 76 77 72 70 70 70 69 69 68 67 65 61 63 65 62 56 55 52 51
59 57 60 60 56 60 58 56 56 55 53 44 55 53 57 66 70 72 75 77 78 76 74 74 74 73 72 71 68 67 67 67 68 66 66 65 62 63 63 58 56 53 51 49
55 55 57 58 53 55 58 55 46 44 41 42 50 49 57 67 71 72 72 74 77 73 72 74 73 69 67 66 64 64 65 65 66 66 65 64 63 64 63 59 57 53 50 48
49 46 54 57 58 54 52 56 47 38 41 47 43 44 58 69 72 72 71 72 72 72 71 69 72 72 68 63 62 62 62 63 65 64 63 64 63 64 64 61 60 57 54 53
52 49 57 56 60 62 52 47 59 48 36 40 51 59 68 63 63 67 69 70 71 72 72 71 72 71 68 64 62 62 61 61 62 62 62 62 62 62 62 61 61 60 59 58
57 47 50 51 55 56 54 60 45 47 34 34 47 51 55 62 66 68 67 69 70 69 67 67 70 67 65 64 62 61 62 61 60 61 60 60 61 61 61 60 58 58 58 56
58 51 44 48 47 50 48 48 49 51 47 40 39 49 68 66 68 68 67 66 67 67 67 66 66 64 63 61 60 60 59 59 59 59 58 57 58 59 59 57 57 56 56 54
55 51 44 47 53 53 56 53 52 43 39 45 43 47 62 67 68 64 66 66 68 67 67 67 66 65 63 60 60 58 59 58 58 58 56 55 57 57 56 56 56 55 53 51
50 40 35 40 46 48 46 52 51 54 46 40 37 46 65 68 65 67 65 67 67 66 67 69 70 69 69 67 62 60 59 58 57 57 55 54 54 54 54 54 54 53 51 47
47 38 36 37 46 51 45 48 51 49 40 42 45 51 60 64 65 67 67 65 67 68 68 71 68 71 72 70 67 63 61 60 56 55 53 52 52 53 54 54 52 50 48 44
45 33 38 44 47 48 47 47 49 45 47 42 48 50 57 62 64 67 69 69 68 68 68 69 69 67 69 70 65 63 63 60 58 54 52 51 51 52 53 50 48 47 45 44
45 35 42 36 46 47 43 48 49 49 49 50 51 51 63 65 66 66 66 66 65 65 66 67 68 68 66 67 66 63 61 59 56 53 50 51 48 45 44 44 42 40 39 39
38 35 33 31 41 39 31 38 46 48 51 51 45 53 60 60 61 62 64 65 64 65 66 66 66 66 65 66 63 62 61 57 49 46 41 40 41 40 40 40 39 38 38 38
38 36 33 31 33 25 42 53 52 49 51 54 53 55 57 59 62 62 64 63 63 64 65 66 66 67 66 61 58 58 50 48 43 40 37 37 38 37 37 37 37 37 37 35
45 39 32 28 29 37 43 49 48 44 46 55 54 56 58 60 60 60 65 65 64 65 65 64 57 54 55 54 52 46 42 41 40 39 38 37 37 35 36 35 35 36 35 34
43 43 35 32 26 24 43 52 57 55 37 54 48 51 54 57 47 55 62 59 55 56 52 49 47 49 50 48 47 41 39 38 38 38 38 37 35 34 33 34 34 34 34 32
32 32 28 29 28 34 43 48 52 33 37 38 43 45 45 45 52 53 54 53 50 47 45 45 46 46 43 42 38 37 37 36 35 35 34 34 34 33 34 33 33 33 31 30
34 30 29 30 27 24 42 44 40 42 42 43 45 46 44 46 47 47 50 47 46 45 45 43 43 41 41 37 36 35 33 33 33 32 32 31 31 33 33 31 32 31 29 28
29 36 33 34 34 40 44 42 46 43 40 44 44 46 47 45 46 48 48 45 42 40 40 37 36 35 34 32 34 32 31 31 30 29 28 30 31 31 32 31 30 30 30 29
38 39 34 34 38 40 42 46 48 48 46 49 50 48 47 44 45 44 44 45 41 35 33 32 32 30 29 31 31 30 30 30 30 29 29 30 30 31 31 32 32 31 31 30
37 37 33 33 38 39 41 44 47 46 47 48 49 48 47 46 45 44 44 36 35 33 32 32 31 29 27 29 28 30 31 32 30 30 30 30 31 31 31 32 32 32 32 33
39 36 33 31 40 38 41 47 48 42 42 44 44 45 46 38 39 40 39 35 34 32 30 28 27 26 25 26 25 27 29 31 31 31 31 32 31 31 30 29 29 34 34 34

GFSCGP_sfc_temp_060.txt.gz
Temp
58 52 48 55 58 59 54 54 51 55 56 51 53 54 59 64 63 61 61 63 65 67 70 72 70 68 66 65 66 68 65 64 65 62 61 58 60 59 61 69 66 67 66 65
52 47 59 60 59 57 52 50 50 56 56 51 51 53 58 62 63 64 64 64 65 66 68 70 68 65 65 65 63 64 66 64 65 64 63 59 57 57 59 59 59 62 64 64
50 54 61 58 52 52 50 49 50 50 52 53 46 47 53 60 63 64 66 68 67 66 66 68 67 65 62 62 61 63 65 65 64 63 60 57 56 55 55 54 58 57 59 60
53 58 55 52 52 54 48 56 55 52 46 40 48 35 48 58 59 62 62 61 62 65 67 68 66 62 61 63 60 62 62 61 62 61 60 58 58 54 52 52 53 56 56 57
50 50 49 49 53 57 50 53 51 49 43 42 42 36 46 55 55 60 63 64 63 63 64 64 65 66 63 60 58 58 59 60 60 62 61 58 54 53 51 51 51 54 54 55
49 52 52 53 52 53 54 50 49 46 44 32 43 43 43 50 55 58 60 62 63 60 61 62 62 61 60 58 57 56 57 57 58 58 59 56 54 52 51 50 51 52 52 52
49 48 50 53 48 50 48 46 33 31 28 30 42 40 49 56 60 59 60 58 58 58 59 58 57 57 56 55 54 55 56 56 56 56 56 56 54 53 52 52 51 51 51 50
42 38 47 52 51 46 45 46 34 27 28 31 36 34 45 58 58 58 60 59 56 57 60 58 59 58 55 55 53 53 54 54 55 55 54 55 56 56 56 54 53 52 51 50
43 44 49 51 52 53 45 40 49 38 26 27 37 45 55 56 57 57 57 58 58 58 57 57 58 58 54 53 52 52 52 53 54 54 53 53 53 53 54 53 51 51 51 51
49 41 45 45 50 49 46 51 37 36 23 23 35 38 43 50 54 57 54 53 56 56 55 56 57 56 54 53 53 53 53 52 52 53 52 52 52 52 53 52 50 51 51 51
50 44 37 43 42 43 42 41 43 45 38 28 28 37 52 52 55 55 54 57 53 52 54 55 55 54 53 52 51 51 51 51 51 51 51 50 49 50 51 51 50 49 49 48
49 46 35 39 45 45 44 46 46 35 33 34 32 41 54 56 56 57 56 57 56 56 57 56 56 55 52 51 50 50 50 50 50 50 50 48 49 49 49 49 49 48 47 45
48 38 27 34 39 42 40 45 47 46 37 32 28 39 57 52 55 55 53 52 57 55 54 57 58 56 56 54 52 50 50 50 49 49 48 47 47 47 47 48 48 47 46 43
48 38 35 33 39 43 38 41 45 44 31 38 38 44 52 53 53 55 55 54 55 57 58 57 56 58 59 58 55 52 51 50 48 48 47 45 45 46 46 47 46 45 44 40
44 33 36 39 42 43 41 38 40 40 40 36 42 43 51 55 55 56 58 58 58 59 59 59 58 59 57 56 56 55 54 51 49 47 46 47 44 45 45 44 42 41 39 39
44 34 36 33 40 41 38 42 43 43 43 43 44 44 56 58 59 58 59 57 56 56 57 58 58 58 57 57 57 56 54 51 48 47 46 46 42 40 40 40 39 38 36 35
38 34 32 30 35 35 31 36 40 43 46 46 41 49 53 52 54 56 56 55 57 58 60 58 57 57 57 55 54 52 51 49 44 41 36 36 37 37 38 37 36 35 34 33
36 34 32 29 31 23 37 46 46 44 46 48 49 51 53 54 56 57 55 55 58 58 59 58 57 53 50 49 48 47 41 41 40 34 33 31 35 33 32 33 33 33 32 31
41 36 30 27 25 32 37 43 39 37 40 48 49 52 53 50 48 52 52 49 49 49 49 46 44 45 45 44 42 38 37 37 37 35 34 33 31 30 31 29 30 30 29 27
40 40 32 27 13 9 37 45 48 46 32 43 44 43 42 43 38 46 45 46 46 46 44 42 40 42 43 40 39 36 36 33 34 34 34 33 30 28 27 29 28 26 26 30
26 24 27 28 25 29 36 41 43 27 31 32 38 40 39 39 43 45 46 46 44 42 41 40 38 40 38 37 34 34 33 30 30 29 28 28 28 27 28 27 25 24 25 29
25 19 20 21 23 22 35 36 33 37 35 34 36 38 39 40 42 41 42 40 40 40 39 37 36 35 35 31 30 29 28 29 26 26 26 24 23 27 26 25 23 23 22 26
21 30 24 29 27 36 36 37 42 40 39 39 40 41 41 40 39 40 40 42 40 38 36 34 30 30 30 27 28 27 27 27 25 24 24 24 24 26 25 25 23 23 22 24
27 29 23 23 30 34 35 39 39 42 41 41 41 41 41 40 39 39 39 39 37 34 32 28 26 29 27 26 28 25 25 27 24 23 24 28 29 25 23 25 25 25 24 24
27 27 22 23 30 29 32 35 39 38 40 40 41 40 40 39 40 40 39 35 36 36 27 26 26 26 25 27 28 29 27 28 27 24 27 29 29 29 26 26 26 28 28 28
31 30 26 26 33 32 35 38 39 37 37 38 38 38 39 36 36 37 34 34 32 27 25 23 22 23 21 21 25 27 31 30 30 28 26 28 29 28 28 30 30 35 35 36

GFSCGP_sfc_temp_063.txt.gz
Temp
52 47 43 48 50 52 50 46 43 47 53 50 49 48 53 58 55 54 55 55 57 61 65 64 65 65 62 62 62 63 63 63 64 64 63 59 62 59 59 61 63 64 65 64
47 43 52 54 54 53 49 44 43 48 51 48 47 50 52 55 59 58 60 56 57 58 62 65 63 61 61 64 65 64 63 62 64 64 64 64 58 56 59 59 60 61 63 64
45 51 56 55 49 50 46 45 44 45 48 47 42 44 48 55 54 57 59 60 60 61 61 62 62 59 60 59 61 63 64 62 64 63 57 54 55 53 54 54 58 58 59 62
48 53 53 48 49 50 43 49 51 48 43 38 45 34 41 54 58 57 58 58 58 58 60 62 62 58 56 63 64 62 61 60 62 58 59 58 60 57 60 58 55 55 56 57
47 48 47 46 50 52 47 49 48 46 40 37 36 35 41 46 51 56 59 58 56 56 58 60 60 61 57 56 55 55 56 57 60 60 60 58 57 53 50 50 51 51 51 53
46 49 49 50 49 50 51 49 47 42 39 30 39 39 36 46 53 52 56 54 56 55 56 57 57 58 56 53 53 53 55 55 54 56 54 56 56 50 49 48 49 49 50 50
43 45 47 51 46 49 47 43 31 29 27 29 36 34 42 51 57 55 57 55 52 52 54 56 53 57 52 51 52 52 52 53 53 53 53 52 53 52 52 50 50 48 49 49
37 35 46 50 48 45 43 43 32 26 25 29 35 33 45 53 56 56 56 54 53 53 55 55 55 55 53 51 50 51 52 52 52 52 52 52 52 51 53 51 51 51 51 51
38 39 45 47 49 51 43 39 46 36 20 25 34 40 51 53 56 56 55 55 52 52 54 54 55 53 52 51 51 51 51 51 51 52 51 51 51 52 52 50 50 51 51 50
45 38 42 44 48 46 46 48 37 33 23 21 30 34 40 48 54 56 53 52 53 53 53 52 52 52 51 49 50 49 50 50 51 51 50 51 52 52 52 50 50 49 50 49
47 42 35 41 40 41 41 40 41 42 34 27 24 34 46 50 51 51 52 53 54 54 52 52 52 51 51 50 50 49 49 49 49 49 49 48 49 49 49 50 51 49 47 48
46 42 30 37 41 43 41 42 42 33 31 31 31 40 51 52 52 53 54 54 52 52 53 53 53 52 50 50 49 49 49 48 48 48 48 48 47 47 47 48 47 47 47 46
46 35 24 32 37 40 37 41 44 42 34 32 26 38 50 49 52 52 54 55 56 52 52 55 53 53 52 51 50 49 48 49 48 47 47 46 46 45 47 47 46 46 45 44
47 37 33 30 36 41 35 36 41 42 30 35 35 43 49 51 50 50 52 52 52 54 56 55 55 54 53 54 54 52 50 49 48 46 45 45 46 46 46 45 45 44 44 42
44 34 36 38 41 41 39 37 38 34 35 30 38 37 46 48 51 54 52 54 54 54 54 55 55 55 54 54 53 53 51 50 49 46 45 46 45 43 44 42 41 41 40 40
42 32 36 33 37 39 35 39 39 38 39 39 40 39 51 53 54 53 53 52 51 52 53 54 55 55 54 54 52 51 50 49 48 45 44 45 42 39 39 39 39 38 37 36
38 34 32 30 34 34 29 35 38 40 44 44 39 45 51 50 50 47 51 51 50 48 49 49 48 49 48 47 47 47 46 44 41 40 38 36 36 36 37 37 37 36 35 34
37 33 32 26 29 22 35 41 42 41 43 46 47 49 50 50 47 48 47 45 46 46 47 47 45 45 44 43 43 42 38 37 37 35 34 34 32 32 31 31 33 34 33 31
38 36 25 16 15 28 35 38 39 35 38 46 45 48 45 43 42 42 45 45 44 45 45 44 43 42 42 41 40 36 35 35 35 35 35 34 32 29 29 28 28 28 27 26
36 37 31 13 17 12 33 40 43 42 30 37 40 39 38 39 34 37 45 44 43 44 43 42 41 40 39 39 37 34 34 32 33 33 34 33 29 26 26 28 26 25 25 27
28 29 27 26 21 21 33 35 42 25 29 31 35 37 36 36 40 43 44 44 42 40 41 40 38 38 38 36 32 32 32 31 29 28 27 27 27 25 25 24 24 22 26 29
26 24 23 27 23 20 35 34 31 35 33 34 35 37 37 38 39 38 39 38 38 38 38 38 36 36 35 32 29 30 29 29 25 24 24 22 21 25 24 23 19 20 24 28
19 27 20 26 26 35 35 36 39 39 38 37 39 39 40 38 38 40 39 39 39 37 37 36 33 33 32 25 25 27 27 25 23 22 25 23 22 23 22 24 22 21 23 27
25 25 23 24 28 27 33 37 40 42 40 38 38 37 37 37 37 37 36 38 38 36 33 29 28 28 28 23 25 23 23 23 22 27 27 27 26 23 20 23 23 22 21 25
27 26 21 20 26 27 30 33 36 38 39 38 38 37 37 36 37 36 35 32 34 33 31 25 26 26 25 22 21 21 23 23 22 27 27 28 28 24 22 25 28 27 27 28
29 28 23 19 29 30 32 36 36 35 34 36 35 34 35 34 34 34 32 33 31 32 28 23 21 20 18 17 18 24 23 24 25 26 27 27 28 26 27 30 30 35 35 36

GFSCGP_sfc_temp_069.txt.gz
Temp
49 47 43 47 46 44 44 42 41 43 48 45 44 45 50 53 48 51 51 52 51 54 59 58 58 58 57 57 58 61 62 64 64 63 62 62 62 62 61 63 63 65 66 64
46 42 50 50 48 47 44 41 39 44 47 45 43 46 49 52 51 53 54 53 52 52 53 57 56 54 54 59 60 60 62 63 63 66 65 65 64 63 61 59 60 63 65 65
45 48 51 50 45 45 40 40 40 42 43 43 41 42 43 49 47 52 53 53 52 53 54 54 55 55 52 52 56 60 62 62 64 65 60 55 54 53 54 55 57 59 63 64
46 49 48 47 45 47 41 47 46 44 40 36 38 33 39 45 48 50 53 51 52 53 52 53 53 54 53 53 53 57 59 61 62 63 60 60 61 60 60 61 56 57 59 61
45 47 46 44 47 49 44 47 45 41 37 35 35 34 40 40 46 50 52 51 52 52 54 53 53 54 53 52 50 52 55 58 59 60 61 59 59 58 55 53 54 54 54 59
44 46 46 47 44 46 47 44 41 36 35 29 35 35 35 41 44 46 51 52 52 51 51 52 51 52 51 48 47 49 53 53 55 56 56 57 58 54 50 50 50 51 51 53
40 41 44 47 44 46 43 41 31 28 25 27 32 31 38 44 47 47 50 51 49 48 48 49 50 50 50 49 47 48 50 50 52 54 54 55 56 53 52 52 52 49 50 48
36 34 44 46 46 43 41 41 31 25 23 28 33 31 42 48 48 47 47 45 47 48 47 47 48 49 49 49 48 49 49 50 49 50 51 51 52 52 53 51 51 51 51 52
36 37 42 43 45 48 41 37 42 30 14 23 31 37 47 47 46 47 49 50 49 49 48 49 49 49 49 50 50 49 50 50 49 49 48 48 48 49 50 49 49 50 49 49
44 36 38 41 45 43 42 45 35 30 21 19 27 30 37 44 43 45 47 48 49 49 50 50 50 50 49 48 48 48 48 49 49 49 48 48 48 48 48 48 48 48 48 47
44 41 34 39 38 39 40 38 37 39 32 25 20 31 42 43 46 46 46 49 50 49 50 51 50 50 50 49 49 48 48 48 48 48 47 47 46 47 46 46 48 48 47 46
44 40 29 35 38 39 38 39 39 32 29 28 29 33 45 47 47 48 48 50 49 49 52 50 50 50 51 50 50 49 48 48 48 47 47 46 46 46 45 45 46 46 46 45
44 35 25 32 36 36 36 39 40 38 34 30 27 32 45 43 44 45 46 45 51 50 49 49 49 48 48 49 48 48 48 47 46 46 45 45 45 45 45 45 45 45 44 44
47 36 35 33 34 38 34 36 38 40 29 34 34 37 40 42 42 43 44 44 45 47 47 46 45 45 45 46 47 46 46 45 44 44 44 43 44 44 44 44 43 43 43 42
44 31 34 34 37 36 34 34 35 36 41 34 39 38 42 44 44 45 45 46 45 45 45 44 44 44 44 43 43 43 43 43 41 41 41 42 41 41 40 40 39 38 38 39
41 31 34 32 36 36 33 36 35 33 33 34 33 36 45 47 45 47 46 44 43 42 43 44 44 44 44 44 44 44 42 41 39 39 38 38 36 35 35 35 36 36 36 36
39 34 30 28 33 33 30 34 35 35 37 37 34 41 44 42 42 41 41 42 42 42 43 43 43 43 42 42 41 42 42 39 35 34 35 34 34 34 34 33 34 34 35 35
36 34 32 26 30 23 33 36 41 40 41 43 42 41 42 42 42 41 42 41 41 42 42 42 41 41 41 40 40 38 36 35 35 35 32 30 32 31 32 32 32 32 33 31
40 35 29 26 26 28 32 35 35 34 35 42 42 38 37 37 37 36 41 41 40 40 41 41 40 39 39 38 38 35 36 34 34 35 35 34 31 30 30 28 29 28 26 25
37 39 33 23 23 16 29 35 40 39 28 37 40 36 36 36 31 33 39 37 39 40 39 39 38 37 37 38 36 33 34 32 33 34 34 31 29 29 31 30 28 25 23 26
30 31 29 20 20 23 30 35 38 23 28 29 36 36 36 34 36 38 38 38 36 37 37 37 35 35 36 35 33 32 31 31 32 29 28 26 26 25 25 24 22 20 20 23
29 27 24 25 22 20 33 33 32 34 32 33 34 35 34 34 34 34 35 35 36 35 35 34 33 32 33 32 28 28 28 31 27 26 24 24 26 22 24 16 17 15 16 19
21 27 22 26 27 33 32 32 34 35 34 33 35 35 34 34 32 33 33 34 34 35 34 33 29 29 31 26 24 25 29 26 26 24 24 27 28 22 19 15 17 16 14 16
23 23 21 23 23 27 33 35 36 36 36 36 36 35 35 34 34 33 33 33 32 29 29 26 25 26 27 27 24 23 24 23 20 20 22 27 26 21 17 19 19 23 22 26
26 26 19 19 23 25 27 30 36 36 36 34 34 33 33 32 33 32 31 30 29 28 26 24 24 25 25 26 25 22 22 27 25 21 21 23 22 19 19 22 22 22 23 27
28 27 26 22 30 31 31 34 35 33 34 35 33 32 32 31 31 31 30 28 27 26 24 25 23 21 25 21 22 21 15 19 24 25 26 27 27 21 22 26 27 32 31 32

GFSCGP_sfc_temp_072.txt.gz
Temp
47 46 43 46 47 45 43 40 38 40 45 43 42 43 48 52 48 49 50 50 50 52 56 56 56 55 55 56 57 60 61 62 63 62 62 63 62 63 62 62 63 65 63 63
45 42 48 49 48 47 43 41 39 42 45 43 41 44 48 50 51 52 51 51 51 50 52 54 54 52 52 56 58 59 61 62 63 64 64 62 64 64 63 62 62 64 64 64
43 46 50 49 43 45 40 41 39 41 41 40 38 41 43 47 46 50 50 50 50 51 51 51 53 51 50 50 52 57 60 61 63 65 59 56 57 56 57 57 60 62 64 64
46 46 47 45 42 45 40 46 45 43 39 35 37 33 40 44 46 48 50 47 47 49 50 49 50 49 50 51 49 53 56 58 60 61 60 60 62 62 62 61 58 57 60 63
44 45 45 43 46 47 43 45 43 40 36 34 34 34 41 40 45 48 49 49 47 47 48 49 49 50 48 47 47 48 52 55 57 60 61 59 58 58 55 54 55 54 54 59
42 44 46 46 44 45 45 43 40 35 34 29 34 34 37 41 43 45 46 47 48 47 47 48 48 49 48 46 46 48 50 52 55 57 56 57 57 55 52 51 51 52 52 53
39 40 42 46 43 45 42 40 30 28 26 27 31 31 38 44 46 45 46 46 46 45 45 46 47 48 47 46 46 47 50 50 51 53 54 54 54 54 53 52 52 50 50 49
35 33 43 46 45 42 40 40 32 25 22 28 31 30 40 43 46 45 45 43 45 46 46 46 46 47 46 46 46 47 48 49 49 50 51 51 52 52 52 51 51 50 50 51
36 36 41 43 44 48 41 37 40 28 13 22 30 35 43 43 44 45 46 47 46 46 46 46 47 46 46 46 46 46 47 47 48 48 47 47 48 48 49 49 48 48 48 48
44 35 38 40 44 44 41 44 35 30 19 19 27 29 35 38 41 43 46 46 47 46 48 47 47 47 47 46 46 47 47 47 46 46 46 46 46 46 46 46 47 47 47 47
44 40 34 40 38 38 38 37 36 37 32 24 20 31 38 42 43 43 44 45 47 47 48 47 48 48 47 47 46 46 46 46 45 45 45 45 45 45 45 44 45 45 45 45
44 39 31 36 38 39 37 38 38 31 27 26 27 31 41 44 44 46 46 47 45 46 46 46 46 46 46 46 46 45 45 45 44 44 44 44 44 44 44 44 45 45 45 44
44 34 23 31 35 35 34 36 37 36 33 27 25 29 42 39 42 43 45 47 47 45 45 44 43 43 44 44 44 44 44 43 43 43 43 44 44 43 43 43 43 43 43 42
47 36 34 33 33 37 34 36 38 40 30 33 32 35 39 41 41 41 42 43 42 43 43 43 42 42 42 42 43 43 43 43 42 42 41 41 42 41 42 42 41 41 40 39
43 32 34 34 36 37 36 36 36 36 41 36 37 38 45 45 41 44 43 43 43 42 42 42 42 42 42 42 42 42 42 41 40 39 39 39 39 38 38 37 37 37 36 38
41 31 33 30 34 35 34 35 35 36 34 33 33 35 43 45 45 43 42 42 41 41 41 42 42 42 42 41 41 41 40 39 37 36 36 36 35 34 34 34 34 34 35 35
38 33 29 24 32 33 29 33 33 34 35 38 34 42 42 42 44 43 39 41 40 41 41 40 40 40 40 39 39 38 38 36 34 34 32 32 32 32 33 33 32 33 33 33
37 34 33 27 32 26 34 35 38 38 38 40 40 41 42 42 41 41 42 40 40 40 40 40 39 39 39 38 38 37 35 35 34 34 32 30 31 30 29 29 29 31 31 31
42 35 29 27 27 30 32 35 35 36 36 41 41 38 38 38 38 36 40 41 39 38 39 39 38 38 37 37 35 34 35 34 34 35 34 33 31 30 29 29 29 27 27 26
38 39 34 25 24 18 31 36 38 40 28 36 40 37 35 35 31 34 39 37 37 37 38 37 36 36 35 35 33 33 33 31 33 33 32 31 29 27 27 28 28 25 23 27
31 31 28 27 23 24 32 35 37 26 30 29 34 35 34 34 36 36 36 35 35 36 35 34 33 34 34 33 32 31 30 30 31 28 28 27 26 25 25 25 23 23 23 24
31 29 29 26 23 22 33 33 33 34 31 32 33 34 35 35 36 35 34 34 35 35 35 33 33 32 33 31 27 27 27 30 25 25 24 24 23 26 26 19 20 18 17 18
25 30 26 29 29 32 31 32 34 34 33 33 34 34 35 35 33 33 33 33 34 34 33 33 28 28 30 25 23 25 27 24 23 21 22 23 23 27 21 16 19 18 13 16
24 23 24 27 24 27 32 33 34 35 35 35 36 36 36 33 32 30 32 32 32 28 27 25 23 25 25 26 23 23 24 23 22 27 26 24 25 28 25 21 20 18 19 19
25 26 18 18 22 25 28 30 35 35 36 36 35 35 34 32 31 30 30 27 27 26 25 23 22 24 25 24 25 23 21 18 19 22 27 28 28 27 25 23 23 23 22 24
28 26 25 23 31 32 34 34 36 35 35 34 34 32 31 31 30 29 25 26 26 23 21 21 19 18 19 18 21 23 13 12 13 20 25 27 28 28 28 24 24 30 34 34

GFSCGP_sfc_temp_075.txt.gz
Temp
47 46 43 47 48 45 44 42 41 43 46 45 44 45 49 52 52 53 54 54 54 54 58 58 58 58 58 59 61 63 63 64 64 64 63 63 62 63 64 64 65 64 65 63
46 42 48 48 47 46 44 42 40 43 45 45 42 46 49 50 51 52 53 54 53 53 54 56 56 55 55 58 60 61 63 63 64 66 67 67 66 65 66 64 63 66 65 64
43 45 48 48 44 45 39 42 41 43 42 42 40 44 46 48 48 50 51 51 51 52 52 52 53 55 53 52 54 59 61 63 64 65 64 60 61 60 60 60 63 63 65 65
45 45 46 43 43 45 40 46 44 43 40 38 40 37 43 45 47 48 48 48 49 49 50 50 50 52 51 53 52 55 57 60 62 63 62 64 64 63 65 65 63 63 63 64
43 43 44 42 45 47 42 45 43 40 37 36 37 37 43 42 44 48 49 49 48 48 48 50 50 50 50 49 50 52 54 57 59 62 63 62 63 63 61 60 60 60 59 61
41 45 45 46 43 44 44 42 40 37 36 31 35 35 39 43 45 46 48 48 48 48 48 49 49 49 49 49 49 51 53 54 57 59 60 60 60 59 57 57 57 58 58 58
39 39 42 45 42 44 42 40 32 30 27 29 32 32 40 45 46 46 47 47 46 46 47 47 47 48 48 48 48 50 52 52 55 57 57 58 58 58 57 57 57 55 56 55
35 34 42 45 43 41 40 41 33 26 24 29 31 31 41 44 46 45 46 45 45 46 46 46 47 47 47 47 48 49 49 49 51 52 53 54 55 56 56 55 55 55 55 55
36 36 41 42 43 47 41 37 40 28 13 24 31 36 44 42 44 44 45 46 45 46 46 47 47 47 47 47 46 47 48 48 48 49 50 50 51 51 52 52 52 52 52 51
43 34 38 40 44 43 41 43 36 30 20 20 27 30 36 40 41 43 44 45 46 46 47 47 46 46 46 46 46 47 47 47 46 47 47 48 48 49 49 49 49 49 50 50
43 39 34 39 39 38 39 37 36 38 33 25 20 31 38 42 43 44 44 45 46 46 46 46 46 46 46 46 46 46 47 46 46 46 46 47 47 47 48 48 48 48 48 48
44 38 31 35 38 39 38 39 39 33 28 26 27 32 42 43 44 44 45 46 45 45 44 44 44 45 45 45 45 45 45 45 44 45 45 45 45 45 45 45 46 45 46 46
44 35 26 33 38 37 35 36 37 36 33 27 27 32 40 41 42 45 45 44 44 43 42 42 43 43 43 44 44 44 44 43 43 43 43 44 43 44 43 43 43 43 43 43
48 36 35 35 35 36 34 35 37 40 32 31 32 33 37 40 41 43 46 44 41 42 42 42 42 42 42 43 43 43 43 43 41 42 42 42 41 41 42 42 41 41 41 41
45 34 34 33 35 35 35 35 36 37 42 37 37 36 42 44 42 44 45 43 42 41 41 42 41 42 42 42 42 42 42 41 40 40 40 40 39 39 39 38 37 37 37 39
39 28 33 29 33 34 35 36 38 42 37 33 34 38 45 49 44 43 44 42 41 40 41 41 41 41 40 41 41 40 40 39 38 38 37 38 36 35 35 35 35 35 36 36
37 32 26 21 31 33 28 35 36 37 36 41 35 42 41 40 44 41 40 41 40 40 40 40 40 40 40 39 39 39 39 37 36 35 34 33 33 32 33 33 32 33 34 34
36 33 31 28 29 23 36 35 40 42 39 40 40 41 43 43 42 41 41 40 40 40 40 40 39 39 39 38 38 37 36 35 34 32 32 31 31 31 30 30 31 31 32 31
40 36 30 28 29 31 33 34 34 37 38 41 40 39 39 38 39 37 40 40 40 40 40 39 39 38 37 36 35 34 35 34 34 33 32 31 30 28 29 27 28 29 29 29
38 39 37 27 26 25 32 36 38 41 30 39 41 39 36 38 35 36 39 38 38 39 38 38 37 36 37 35 34 34 33 31 33 32 31 30 29 26 27 28 27 28 25 27
31 32 30 28 25 26 31 34 36 31 32 29 37 37 36 36 38 37 37 37 38 37 37 36 35 35 35 33 32 32 30 30 30 28 27 27 26 25 25 25 25 25 24 24
31 30 27 27 25 26 34 34 34 35 31 32 33 34 35 33 34 35 36 36 36 36 35 35 34 34 33 30 27 26 27 29 25 24 24 24 22 23 26 26 23 22 20 21
27 33 30 32 31 32 32 33 34 35 33 34 34 34 35 34 34 35 34 35 34 34 34 32 28 27 30 23 23 24 26 25 24 21 24 27 27 22 28 27 24 23 20 21
25 25 29 32 28 27 32 33 34 35 35 35 34 34 35 34 33 33 33 33 32 28 26 23 23 22 23 23 23 20 22 24 19 19 22 25 26 29 30 29 26 23 24 23
26 26 19 19 25 25 28 30 34 34 34 34 34 34 34 34 32 32 30 27 27 26 23 21 20 19 20 20 19 17 21 20 18 18 20 23 27 27 29 31 31 26 26 26
26 27 28 27 32 34 34 34 35 34 33 33 33 32 32 33 31 29 26 25 24 21 19 17 15 14 15 15 16 15 12 14 13 16 19 21 22 25 26 27 28 31 32 34

GFSCGP_sfc_temp_078.txt.gz
Temp
60 61 57 61 63 60 61 56 56 55 54 55 57 59 64 68 66 69 72 73 72 72 74 71 72 73 72 73 74 74 74 74 74 68 65 64 64 65 66 67 69 69 68 70
59 56 61 58 55 56 58 56 54 52 54 55 54 57 64 66 66 66 68 70 69 69 70 69 68 69 69 72 72 73 74 74 74 73 69 69 67 67 68 66 67 67 67 67
57 56 56 56 55 55 54 57 52 55 53 54 54 58 60 58 60 61 62 62 63 63 64 65 65 66 66 67 69 71 73 73 74 74 72 67 64 64 66 65 65 65 66 65
56 53 55 55 54 59 51 55 54 51 55 52 52 53 58 58 60 59 60 61 62 62 63 63 64 64 62 62 64 67 70 71 72 73 69 66 65 64 67 68 66 65 65 65
52 49 51 52 56 57 53 54 53 52 51 51 50 52 59 56 57 59 61 59 61 61 60 61 61 60 60 60 61 64 66 68 70 71 71 67 65 67 70 71 70 69 69 68
50 54 56 54 50 53 52 53 52 51 51 44 48 49 55 58 58 59 59 58 58 59 61 61 60 61 61 62 63 63 64 65 67 68 70 68 65 65 65 66 66 68 68 67
48 50 52 53 50 52 54 55 43 41 41 41 41 42 57 56 57 59 59 57 57 59 61 61 60 60 60 60 60 62 61 57 60 61 61 61 62 63 63 63 63 63 64 65
45 40 49 52 53 51 53 55 44 34 34 41 37 41 55 53 54 55 57 56 57 58 58 59 59 59 58 58 60 61 61 60 62 62 61 61 59 60 60 60 60 61 63 64
46 43 48 49 52 55 49 47 50 38 26 39 46 49 55 51 51 53 54 57 57 58 58 57 58 59 58 57 57 59 59 58 59 60 61 60 61 61 60 60 61 62 61 59
50 41 44 47 52 52 52 52 44 45 33 33 42 42 52 48 49 52 53 55 56 56 57 57 57 56 56 57 57 58 58 56 57 58 58 58 58 59 59 59 58 58 59 58
53 47 40 45 46 47 47 47 46 49 45 38 37 47 55 56 54 54 56 56 56 55 55 56 56 56 56 56 57 57 57 56 56 56 57 56 55 56 56 56 56 55 56 55
51 44 38 43 45 46 47 49 51 46 36 40 39 48 51 58 58 57 55 53 55 55 54 55 55 55 55 54 55 54 55 54 54 55 56 54 54 54 54 53 53 52 52 52
48 42 32 37 44 44 45 46 50 47 43 35 39 48 49 52 53 55 55 54 53 52 53 53 54 54 54 54 53 54 53 51 51 52 53 52 51 51 50 50 50 50 49 50
51 41 43 40 46 48 41 42 44 49 41 41 43 47 48 49 52 53 53 54 53 52 51 53 53 52 52 53 53 53 52 51 50 51 50 48 47 47 48 47 47 47 47 48
51 38 42 45 45 45 46 43 43 45 52 45 52 50 52 53 54 55 56 53 50 48 49 50 50 50 52 51 51 52 51 50 50 50 49 47 46 46 45 44 43 43 43 44
45 37 43 35 40 41 41 45 45 47 51 50 48 49 58 59 58 53 52 50 49 48 48 48 48 48 50 49 49 49 49 47 48 46 44 44 42 40 40 39 39 40 40 41
42 36 34 35 36 39 34 40 44 48 52 51 44 53 52 52 50 53 53 51 50 49 48 48 48 48 48 48 47 48 47 46 43 41 39 38 38 37 38 37 38 38 38 38
43 37 34 30 32 28 44 49 51 49 50 51 52 50 51 52 54 54 54 51 49 48 48 48 48 48 47 46 46 45 43 42 40 39 37 37 37 35 36 36 36 36 37 36
47 44 32 31 31 39 42 39 42 42 46 49 51 49 49 47 49 47 49 51 49 49 49 48 48 47 46 45 43 41 40 39 39 38 38 36 35 33 33 31 34 35 34 34
41 47 40 32 31 29 45 42 46 50 40 48 51 46 43 46 43 49 45 45 46 47 45 44 43 43 43 41 41 39 37 37 37 35 35 34 34 31 31 33 32 33 32 32
34 34 34 32 31 34 39 41 45 35 40 40 49 47 43 47 48 45 43 43 43 43 42 43 43 42 39 38 37 36 35 34 34 32 32 32 32 30 31 31 32 31 30 31
34 32 32 32 31 30 39 39 41 44 37 39 42 43 43 39 41 42 43 41 41 41 41 41 41 39 37 34 33 32 33 32 30 29 28 29 30 30 31 29 31 31 29 29
31 37 33 36 37 37 40 40 42 41 39 39 42 42 41 40 40 41 40 40 40 40 39 37 36 34 33 29 29 28 30 29 27 25 24 26 28 29 31 31 31 31 30 29
31 32 34 34 34 35 38 39 41 42 42 41 42 42 42 40 40 40 40 39 38 33 32 30 29 28 27 27 26 25 26 26 22 22 23 25 25 28 29 31 32 32 31 30
34 33 30 30 30 33 36 36 40 39 40 39 41 42 41 40 40 40 35 33 32 30 28 27 25 24 24 23 22 22 22 21 20 21 23 24 26 27 28 30 31 31 32 32
33 34 36 36 37 40 41 39 39 38 38 39 39 36 36 38 36 34 32 31 29 26 24 22 20 19 19 18 17 18 17 17 16 18 22 23 22 24 25 25 27 31 32 33

GFSCGP_sfc_temp_081.txt.gz
Temp
66 60 56 62 66 69 65 63 60 64 59 60 63 64 69 72 69 71 73 76 78 78 81 78 78 79 78 79 79 79 79 78 76 68 66 65 65 67 67 68 69 69 70 69
60 56 65 68 63 63 63 61 60 57 58 58 61 59 68 69 70 72 74 76 76 76 76 75 74 75 75 76 77 78 78 79 78 76 68 68 68 67 68 68 68 69 68 68
58 62 64 61 59 60 60 59 58 59 56 59 57 60 66 65 65 67 68 70 71 70 71 71 70 72 72 72 74 76 77 78 78 77 72 67 65 66 65 65 65 66 68 66
62 57 59 59 59 63 54 61 61 55 56 53 58 55 62 66 64 64 65 67 68 68 68 68 68 68 67 68 71 74 75 76 77 77 75 66 66 64 67 67 66 65 66 66
54 53 55 57 61 63 57 61 60 58 56 55 54 55 63 62 61 63 66 65 66 66 66 65 64 64 64 64 66 68 72 74 75 75 75 67 64 66 69 67 65 64 64 64
53 57 60 61 57 60 59 57 57 57 55 45 55 55 60 61 64 63 63 64 63 64 64 62 63 64 64 66 65 66 68 70 72 72 73 72 64 63 63 62 62 63 64 64
51 52 55 58 52 57 60 56 45 43 42 42 46 46 59 61 64 65 63 61 61 63 64 63 62 62 62 62 64 63 62 62 66 67 67 65 64 64 62 61 60 59 60 61
47 42 52 57 59 53 54 57 47 36 38 45 40 42 56 62 60 61 64 62 61 61 61 61 61 61 60 61 63 63 63 62 62 61 61 60 61 62 61 62 63 64 64 64
49 45 52 53 56 60 55 50 56 41 31 41 49 54 60 56 56 58 58 59 59 59 60 60 61 61 61 60 61 62 61 61 63 63 63 63 63 63 62 62 63 62 62 60
57 42 49 49 55 54 55 59 46 48 33 34 46 49 55 49 52 56 56 59 60 60 60 60 60 59 60 60 60 61 61 60 60 61 60 60 60 61 61 60 58 58 59 58
58 51 42 48 48 50 49 49 51 54 49 40 39 49 60 60 57 56 57 59 58 59 59 59 59 59 59 60 60 60 59 59 58 59 58 57 57 58 58 57 56 55 56 55
54 48 40 45 48 50 54 54 54 46 38 44 40 49 55 62 61 60 58 58 59 59 59 59 59 59 58 57 58 57 57 56 57 58 57 55 56 56 55 54 54 53 53 53
50 42 32 38 45 45 46 52 56 57 46 37 39 49 53 59 60 60 58 57 57 56 57 57 58 59 58 58 57 57 56 54 55 56 55 53 52 52 51 51 51 51 50 51
53 45 43 40 47 51 44 49 50 52 43 45 46 53 50 54 56 58 57 56 56 55 55 57 56 56 56 57 56 55 54 54 53 53 51 48 48 48 48 48 47 47 47 47
54 40 49 52 50 53 49 47 48 46 52 48 53 53 59 55 56 58 59 57 55 53 55 54 53 54 55 54 54 54 53 51 52 50 48 47 46 45 44 43 42 42 41 44
51 38 46 38 44 45 44 49 49 48 51 53 55 54 63 63 62 60 57 56 53 52 52 53 53 53 54 53 52 52 51 48 50 46 42 43 41 39 39 38 38 39 39 40
45 37 34 36 41 40 34 40 47 48 53 54 49 58 58 59 58 58 57 56 54 53 53 51 51 52 52 51 52 50 49 47 43 40 38 37 38 37 37 37 38 38 38 38
45 38 34 32 34 27 45 58 55 51 54 56 57 59 58 59 59 60 61 56 55 54 52 52 52 51 49 49 49 47 45 42 40 38 37 37 37 35 36 36 35 36 37 36
53 45 33 33 32 42 47 44 46 45 49 58 56 59 57 58 57 56 61 59 56 54 53 51 52 51 49 47 46 41 40 40 39 37 37 36 35 33 33 31 34 35 34 34
44 49 42 31 33 30 48 49 55 54 40 57 57 56 53 51 46 53 52 53 52 52 50 47 47 47 45 43 43 39 37 37 35 34 34 34 34 31 31 33 32 34 33 32
34 34 35 35 33 36 41 43 52 36 42 44 54 55 48 49 55 52 48 49 49 45 43 44 45 44 42 38 37 35 35 33 32 31 31 31 31 30 31 31 32 31 31 31
37 34 33 34 32 30 42 42 43 47 40 41 45 50 48 44 43 44 45 42 41 40 41 41 39 38 38 34 34 32 32 31 29 28 27 27 27 29 31 30 31 31 31 30
33 40 36 38 38 40 45 40 44 43 42 42 44 45 43 41 42 42 40 41 40 40 39 40 37 34 33 29 29 29 28 27 25 22 21 23 26 27 28 29 29 30 32 31
34 35 36 36 35 38 42 42 43 44 44 44 45 43 44 42 42 41 41 40 38 34 33 32 31 29 27 26 26 24 24 23 18 19 22 24 25 26 27 30 31 30 30 30
35 35 33 34 33 35 37 38 43 41 42 42 44 44 43 42 41 40 36 34 33 31 30 29 28 26 25 24 23 21 21 19 18 19 21 23 26 26 25 26 27 28 29 30
36 35 35 36 40 40 42 42 41 39 40 41 39 39 39 41 39 37 34 33 31 28 26 25 23 22 21 19 18 17 14 15 13 17 21 22 21 22 23 23 24 29 30 31

GFSCGP_sfc_temp_084.txt.gz
Temp
57 52 48 54 58 58 58 53 51 52 55 53 52 52 58 60 59 58 61 62 64 66 67 68 68 69 69 69 70 70 70 69 67 65 64 63 64 64 65 65 66 67 66 66
53 48 58 61 59 57 55 54 49 50 55 51 52 52 57 60 59 61 63 63 64 65 63 66 61 59 64 66 67 69 70 69 68 65 67 66 65 64 65 65 65 66 65 65
50 54 62 57 54 54 53 53 49 49 50 49 45 46 52 57 61 58 55 57 61 63 63 61 61 56 59 60 62 67 68 69 70 67 65 64 63 62 62 62 63 64 65 64
55 58 57 54 54 56 49 54 54 49 46 41 48 38 45 50 52 55 57 55 58 58 58 59 58 56 56 56 57 61 66 68 69 68 65 63 62 61 62 63 63 63 64 63
49 50 51 51 55 58 51 55 52 49 45 41 41 39 45 52 50 52 55 57 55 56 58 57 55 57 54 55 54 56 61 65 67 67 64 63 62 62 62 62 62 62 62 63
48 53 53 54 53 55 55 52 52 48 45 34 43 42 42 48 52 53 53 55 55 54 53 54 55 57 55 54 54 57 60 62 63 64 64 65 62 61 60 60 60 60 61 61
46 47 50 53 48 50 51 47 32 32 30 30 38 37 45 50 54 54 53 52 52 53 52 52 52 52 53 54 54 55 55 55 57 58 58 60 61 60 59 58 57 57 57 58
39 35 46 51 49 45 47 47 34 29 27 30 33 33 45 48 52 55 55 52 52 50 52 51 51 51 51 53 53 54 57 56 57 57 58 60 60 59 58 58 55 53 52 52
43 38 47 49 50 52 45 42 46 34 23 28 34 42 45 48 48 50 50 51 50 50 50 51 52 51 50 51 51 52 52 52 53 53 53 52 53 53 52 51 51 51 51 52
51 35 45 46 49 48 47 52 39 38 22 24 33 34 41 42 45 48 48 48 49 50 50 50 50 50 51 51 51 51 51 50 50 50 50 50 50 51 50 49 48 48 48 49
51 43 37 43 42 43 44 43 44 45 38 28 25 34 45 48 50 48 48 51 49 49 49 49 49 51 51 51 50 50 50 49 49 49 48 48 48 48 48 46 46 46 46 46
47 43 33 39 43 45 44 47 47 37 33 35 31 35 48 48 53 52 51 51 50 51 50 49 49 49 49 48 48 47 47 47 48 48 47 46 47 46 45 44 44 44 44 45
48 38 29 34 41 42 40 45 47 46 37 32 29 35 47 47 51 53 51 51 51 50 49 49 49 49 48 48 47 46 46 46 46 46 44 44 44 43 42 42 42 42 42 42
51 41 38 34 38 44 39 43 45 46 33 33 35 40 41 47 48 50 50 50 49 50 51 50 49 48 48 47 46 45 45 45 45 44 42 40 40 41 40 40 40 40 40 40
50 37 42 44 46 46 43 42 43 42 48 40 46 44 47 48 50 51 50 51 49 49 50 50 48 46 45 45 45 45 44 45 44 42 40 39 39 39 38 37 36 36 36 38
48 33 42 35 41 42 39 43 45 46 46 45 45 46 54 54 53 52 52 51 49 49 50 49 48 48 47 47 46 46 43 42 41 38 37 37 35 34 34 34 34 34 34 34
43 35 30 25 35 37 30 38 44 45 48 49 44 52 52 50 53 53 52 52 50 50 50 48 48 48 47 45 46 42 41 39 36 34 33 33 33 33 33 33 33 33 33 33
41 36 33 26 29 22 40 49 50 48 49 52 52 50 51 52 55 56 57 53 51 50 49 48 47 46 43 42 41 41 38 35 34 33 31 31 32 31 31 31 31 31 31 31
47 40 31 31 27 35 41 43 42 40 45 51 51 54 51 50 48 47 53 54 53 51 49 48 47 44 42 41 39 35 34 33 33 32 32 32 30 27 27 25 28 29 28 28
42 46 36 31 23 22 43 44 49 49 38 50 53 50 47 48 44 49 51 53 51 50 48 45 43 42 40 38 37 34 33 32 31 31 31 30 28 24 24 27 26 26 24 29
31 30 32 30 21 30 38 41 48 33 38 40 50 51 47 51 57 51 47 46 48 46 42 42 41 39 38 36 33 32 31 29 29 29 27 25 25 22 23 24 23 22 23 26
32 29 27 25 22 27 38 39 41 45 36 37 39 46 48 43 41 43 45 43 40 38 39 40 37 35 33 32 32 30 29 29 25 23 21 18 16 19 23 16 18 19 21 22
33 37 34 37 35 37 36 36 38 39 39 36 38 40 39 38 37 39 37 37 37 37 36 36 33 30 29 27 30 29 25 24 21 15 13 13 14 17 17 14 17 17 15 18
31 31 32 37 33 32 35 36 38 38 38 38 39 39 39 37 38 37 37 36 35 34 33 31 30 27 25 25 24 22 20 18 11 10 12 14 14 15 13 18 20 14 14 20
32 33 31 31 29 30 32 34 37 38 38 38 38 38 38 38 37 37 35 34 33 32 31 32 30 27 23 21 18 17 16 15 14 12 14 13 14 10 16 18 18 21 20 21
31 32 32 33 38 38 38 37 39 37 37 37 36 35 36 37 36 35 33 33 31 28 27 26 24 22 18 16 14 12 9 11 9 11 13 11 11 11 15 15 17 24 27 28

GFSCGP_sfc_temp_087.txt.gz
Temp
46 42 39 45 49 51 52 49 49 47 53 51 49 50 55 58 54 55 54 55 56 60 64 65 66 66 66 65 66 65 64 64 65 66 64 63 63 64 64 65 66 66 66 66
45 39 50 55 54 52 50 49 43 47 52 51 48 50 53 55 55 57 57 56 58 57 58 62 62 62 63 64 64 65 65 64 65 66 66 65 64 63 65 64 64 65 65 65
41 49 56 54 52 50 50 47 44 47 47 48 47 45 50 55 55 55 55 57 57 58 58 58 61 58 58 59 60 63 64 65 65 64 62 63 63 62 62 62 62 63 64 64
47 55 53 52 51 52 46 52 50 46 45 41 47 39 46 49 52 53 55 54 55 56 55 55 55 53 51 54 54 59 63 64 65 64 63 64 62 60 62 62 62 63 63 63
45 50 50 49 52 54 49 51 49 47 44 41 39 39 43 48 48 49 51 52 52 54 54 53 53 54 52 54 52 53 58 62 63 64 65 64 62 62 62 62 62 62 62 62
48 52 53 53 51 55 52 50 48 45 40 33 39 39 38 44 51 47 49 49 51 50 50 51 52 53 52 51 51 52 56 58 60 63 65 63 62 60 60 59 59 59 59 60
45 46 49 52 49 49 50 46 30 31 29 30 34 35 43 48 52 52 51 49 48 50 49 49 49 49 50 49 50 52 54 53 55 57 60 61 61 60 58 57 57 56 56 55
37 35 46 51 50 45 44 43 31 27 24 29 34 34 43 46 48 50 51 49 49 47 48 47 47 47 48 50 50 52 53 53 54 55 55 59 59 58 56 56 54 53 49 49
40 38 46 47 47 51 43 40 45 33 19 27 32 37 46 44 45 46 46 47 45 46 46 46 47 46 47 47 48 49 50 50 51 51 54 54 54 53 48 47 48 47 47 49
47 36 43 45 48 46 46 50 38 34 22 22 29 32 39 40 44 44 44 44 44 45 45 45 46 46 46 47 47 48 48 48 48 49 50 49 47 47 46 46 44 44 44 45
49 42 37 43 41 41 42 39 41 40 34 27 24 33 44 47 46 45 44 46 46 46 45 44 45 46 46 45 46 45 47 47 47 47 47 46 44 44 44 43 42 43 43 43
47 40 32 37 42 43 41 44 44 35 32 32 30 36 45 45 48 49 47 48 46 47 46 45 45 45 44 44 44 44 45 46 46 46 45 43 44 42 42 41 41 41 41 41
47 36 27 34 40 41 40 43 45 42 34 32 28 35 45 44 45 48 46 47 48 46 45 45 43 43 43 43 44 44 44 44 44 43 43 41 40 40 40 39 40 39 39 39
49 40 36 33 38 41 37 41 43 43 31 31 32 39 42 44 45 45 46 48 46 47 47 45 45 45 45 44 44 43 43 43 41 41 40 38 38 38 38 38 37 37 37 37
49 36 40 43 44 44 41 41 41 43 47 41 44 43 46 45 46 48 48 47 46 46 46 47 46 46 45 44 43 43 43 42 41 40 38 37 36 36 36 35 35 34 34 36
46 34 40 35 40 42 38 42 44 44 41 42 40 42 50 49 47 46 48 48 47 47 48 48 47 46 45 45 43 43 41 39 39 38 36 36 34 33 33 33 33 33 33 33
42 34 29 27 34 37 31 37 42 45 43 48 39 50 49 44 49 49 48 49 49 49 49 48 47 47 46 45 44 41 39 37 34 33 32 32 33 33 32 32 33 32 32 31
39 35 30 23 27 23 38 46 47 47 47 50 48 48 50 50 53 53 53 51 51 51 50 49 48 47 44 43 40 38 36 33 33 32 31 31 32 31 31 31 30 30 30 29
45 39 30 27 21 33 39 42 41 39 44 47 50 53 49 48 48 48 55 55 54 53 52 50 48 47 43 41 39 36 33 33 32 32 32 31 30 27 26 24 25 28 26 25
42 43 38 27 27 23 44 44 46 48 37 49 51 50 46 47 43 49 50 53 53 52 50 46 43 41 41 38 37 35 33 32 31 31 31 30 28 23 22 25 23 25 23 26
30 30 32 26 24 29 38 42 48 33 40 42 48 50 45 49 57 56 49 47 48 47 44 42 42 41 39 37 35 33 31 31 29 28 26 25 24 22 23 22 21 20 17 21
32 29 29 27 24 29 38 39 42 46 38 40 41 45 46 48 42 42 44 42 42 40 40 41 40 37 37 34 35 31 30 28 25 23 22 20 18 22 22 13 15 12 11 12
30 35 31 37 38 38 35 36 37 39 40 37 38 39 41 39 38 37 36 38 38 38 38 38 36 32 32 29 32 29 25 24 22 21 19 20 16 16 14 10 11 15 11 10
30 29 31 35 32 32 34 35 36 37 38 38 38 37 38 38 36 34 34 35 35 34 33 32 32 30 25 25 25 25 24 22 21 20 20 18 16 14 11 16 17 10 9 10
32 30 30 29 30 30 34 34 36 37 37 36 36 37 38 36 34 35 33 33 32 31 30 31 30 28 24 22 20 20 20 20 19 17 18 16 15 12 12 15 12 16 16 16
31 33 33 29 35 35 36 36 36 35 36 35 35 34 34 35 34 33 32 32 32 30 30 29 27 24 20 19 16 15 16 17 17 16 15 13 12 10 12 10 10 20 24 26

GFSCGP_sfc_temp_090.txt.gz
Temp
47 42 38 43 46 51 51 48 48 48 52 50 50 51 52 56 51 52 53 54 53 56 61 62 63 64 63 64 65 65 65 64 64 62 63 63 63 64 64 65 66 66 66 65
42 40 46 51 50 47 49 48 45 45 50 51 47 50 51 51 52 54 56 54 54 55 58 60 61 60 61 63 64 64 65 64 65 64 62 65 63 63 64 64 64 65 65 65
41 45 51 49 45 43 48 45 43 45 46 47 47 46 46 52 51 53 55 55 54 56 57 57 58 58 58 59 60 63 64 64 65 64 61 63 62 62 62 62 62 63 64 64
44 52 48 44 44 46 43 51 49 45 45 40 44 36 45 49 50 51 54 54 54 54 53 54 56 54 54 55 55 58 61 63 64 63 63 61 60 60 61 62 62 63 63 63
38 45 44 40 45 50 47 50 48 45 42 41 37 37 42 42 46 49 53 52 52 52 53 53 53 53 52 53 53 55 58 63 63 63 63 65 62 62 62 62 62 62 62 62
44 50 49 45 50 52 52 48 45 43 41 33 38 39 39 41 47 51 49 51 52 49 49 50 50 51 50 49 50 52 56 58 62 63 65 64 62 60 60 59 59 59 58 57
39 42 48 53 47 50 51 47 32 32 31 33 32 34 44 47 49 52 54 52 48 48 47 47 49 49 49 48 49 51 53 54 60 61 62 61 61 61 59 58 57 56 54 53
32 32 45 50 49 43 45 46 31 27 26 28 33 32 42 45 47 48 52 50 48 47 47 47 48 47 48 48 49 50 51 51 53 56 58 59 58 57 56 54 53 52 51 50
38 38 45 48 49 51 44 43 44 32 18 27 31 37 46 43 42 43 45 48 46 45 45 46 46 46 47 47 48 49 49 48 49 50 52 55 54 54 52 50 50 48 45 46
46 36 42 46 47 48 46 50 38 35 24 22 28 30 38 40 44 43 43 46 43 44 44 44 44 45 45 45 45 46 46 46 46 47 49 49 49 49 46 45 43 43 43 43
47 43 36 43 42 42 42 40 40 41 34 27 22 31 42 47 49 45 46 45 43 43 43 43 43 44 44 43 43 43 44 45 45 46 46 45 43 43 43 42 41 41 41 41
46 40 33 37 43 43 41 44 44 37 32 31 30 35 43 44 46 46 43 45 44 44 42 42 42 42 42 42 43 43 42 43 43 44 43 42 42 41 41 39 39 40 39 39
46 36 28 33 40 40 40 43 44 41 35 31 29 34 43 41 42 45 46 44 44 43 42 42 41 41 41 41 41 41 41 41 42 43 42 41 40 40 38 38 38 38 38 37
51 39 38 34 37 40 36 40 41 43 33 32 33 39 41 42 42 42 44 45 44 45 44 42 40 41 40 40 41 41 40 42 41 41 41 38 37 37 37 37 37 36 36 36
48 35 39 45 45 45 41 45 41 43 48 42 45 42 50 47 44 45 44 43 43 43 43 43 43 42 40 40 41 42 41 41 41 40 38 37 36 36 35 34 33 33 33 34
45 33 39 34 39 42 40 43 42 44 41 42 39 39 47 44 45 43 45 45 45 44 44 45 45 43 43 43 42 42 41 39 39 38 36 35 34 33 32 32 32 32 32 31
41 34 30 27 34 37 31 37 42 45 41 46 39 50 45 42 45 45 44 46 46 47 46 46 46 45 45 45 44 42 40 37 35 34 33 33 32 32 32 32 32 32 31 31
39 36 30 25 28 24 37 43 47 46 48 46 44 46 48 49 51 49 50 48 49 49 48 48 48 47 46 44 43 40 36 35 34 33 32 31 31 30 30 30 30 30 30 29
44 38 28 27 21 32 37 41 39 39 43 47 49 53 47 45 46 46 50 52 52 52 52 51 50 49 46 43 40 36 34 34 33 32 31 31 30 27 27 26 26 28 26 25
41 44 34 25 24 24 37 43 46 48 38 47 49 48 45 46 43 53 50 52 52 53 52 50 47 46 43 40 39 36 33 33 32 32 32 30 28 25 25 26 24 25 23 25
33 32 32 28 24 29 37 40 47 34 39 40 47 48 45 48 56 56 51 51 52 49 48 47 45 42 42 39 37 35 33 33 31 29 27 25 25 24 24 23 22 19 17 20
33 30 29 27 24 27 38 39 41 46 39 42 41 45 45 49 44 43 45 44 41 40 39 41 41 40 38 36 37 34 32 29 26 25 23 21 19 23 22 19 18 15 11 11
29 37 33 37 36 38 36 37 39 40 41 38 39 40 41 42 42 37 40 38 38 38 39 40 40 35 35 36 37 33 26 26 23 21 18 17 19 20 20 18 19 15 9 11
30 29 33 35 31 33 34 36 37 38 37 39 39 37 38 40 39 37 34 34 34 34 35 35 33 32 30 31 32 31 25 23 21 19 19 19 20 19 18 20 20 14 11 12
31 32 29 28 29 30 33 34 35 36 37 36 37 36 37 37 36 35 33 31 31 31 29 32 33 31 27 25 23 23 22 22 21 21 21 20 19 18 16 17 15 17 15 16
32 32 31 29 35 35 36 35 36 35 35 35 34 35 34 34 34 32 30 30 29 28 28 28 27 25 22 21 20 19 21 23 22 20 19 18 17 16 15 13 12 20 23 24

GFSCGP_sfc_temp_093.txt.gz
Temp
47 42 39 42 46 48 45 47 47 49 52 49 49 53 54 51 48 50 51 52 54 56 62 61 62 62 61 63 64 64 64 64 63 61 64 63 63 63 63 64 65 65 65 65
42 40 48 50 50 47 43 42 46 47 50 49 47 51 51 50 51 54 55 53 54 55 56 58 58 59 59 61 64 64 65 64 65 65 61 62 63 63 64 64 64 65 64 64
41 46 52 49 46 42 43 41 45 47 47 48 44 46 47 51 48 51 53 52 54 56 58 57 57 57 58 59 62 63 64 64 65 64 61 61 62 62 62 62 62 63 64 64
45 51 48 46 43 46 39 48 48 46 46 40 44 37 43 48 50 50 52 51 52 53 53 55 56 54 54 57 58 62 64 64 64 63 63 60 59 60 61 62 62 63 63 63
39 44 44 41 42 47 41 49 46 44 42 39 39 35 40 41 49 49 51 52 52 51 53 55 54 54 52 53 54 56 60 62 63 63 63 62 60 61 62 62 62 62 62 61
40 48 49 47 47 50 50 44 44 42 40 35 40 38 37 40 46 54 54 55 53 51 50 51 50 51 50 49 51 52 55 61 62 62 62 64 63 60 60 60 60 58 56 55
36 39 44 49 43 46 44 36 28 28 28 32 33 34 50 45 47 51 58 56 51 49 48 48 48 49 49 49 49 50 52 56 62 62 62 63 63 61 61 60 58 55 53 52
32 29 38 47 44 38 38 37 31 25 28 33 32 31 41 46 47 48 48 49 47 46 46 46 47 48 49 49 48 49 51 52 61 62 62 60 61 59 57 56 54 52 51 50
30 34 43 46 47 48 40 35 44 33 20 26 31 36 45 43 44 44 45 44 48 48 45 46 47 47 47 47 47 48 49 51 59 60 58 56 56 55 52 51 51 49 48 47
40 31 40 43 49 48 44 48 36 35 25 21 28 29 40 41 45 43 43 43 45 45 44 44 45 45 46 46 46 46 47 50 51 53 54 53 52 51 50 49 47 46 44 42
41 38 33 42 41 38 38 40 41 43 35 27 22 32 41 48 50 47 47 46 45 44 43 43 43 43 44 44 44 44 44 45 47 48 46 45 47 46 47 46 43 41 40 40
43 38 28 35 42 46 45 44 44 38 31 31 30 34 44 44 46 47 44 43 41 42 43 42 42 42 41 42 42 42 42 42 42 45 45 45 45 43 42 40 39 39 39 38
43 33 26 33 39 41 38 42 44 42 36 34 30 36 44 42 43 44 44 43 43 42 41 41 40 40 40 40 40 40 40 40 42 44 43 41 41 41 39 38 38 38 37 37
48 37 33 32 36 40 35 37 40 44 36 34 34 38 47 46 44 42 43 43 43 42 42 41 39 38 39 39 39 39 39 40 40 41 41 39 38 39 38 37 37 36 36 35
48 33 35 40 43 44 41 41 40 40 45 39 41 42 50 52 48 45 43 41 40 42 41 41 39 40 39 38 39 39 39 39 40 39 39 37 36 36 35 35 34 34 34 33
42 29 37 30 38 42 40 44 44 44 46 44 40 42 51 45 44 43 43 43 43 43 43 41 41 41 40 41 41 40 39 38 39 38 36 36 35 34 33 32 32 32 32 31
39 32 29 29 34 36 30 40 41 44 44 47 38 50 47 46 46 46 43 45 46 45 44 42 43 43 43 43 42 40 40 37 35 34 34 33 33 33 33 32 32 31 31 31
40 35 30 28 29 23 37 44 48 46 48 49 43 46 48 51 50 48 47 46 46 46 45 45 46 45 44 43 42 41 37 36 35 34 33 32 33 32 31 30 30 30 30 29
43 39 32 27 25 32 38 40 39 38 43 48 47 52 48 45 46 47 47 48 50 49 50 49 49 48 45 43 42 37 35 34 34 34 33 33 32 29 28 27 27 28 26 24
40 41 36 26 25 23 38 45 44 46 37 46 49 49 45 46 43 55 49 48 50 51 51 48 47 46 44 43 39 37 35 34 34 34 33 30 29 27 25 26 25 24 23 25
31 32 30 28 20 27 37 40 43 34 38 39 46 49 43 48 56 53 52 49 49 48 47 45 47 45 44 41 38 37 35 34 35 30 29 26 26 25 25 23 22 21 20 21
35 31 29 28 18 23 39 39 39 43 38 39 41 43 45 48 44 43 46 43 43 43 42 44 44 43 41 38 38 36 34 33 29 28 25 23 22 25 23 21 18 18 18 19
30 37 33 35 31 39 36 38 38 40 41 38 40 39 41 42 41 41 42 41 40 40 38 40 41 37 36 36 39 35 34 28 26 25 22 20 21 21 20 19 19 18 19 21
31 30 34 35 31 33 35 36 37 38 37 38 38 37 38 37 38 38 37 37 35 31 33 32 33 33 32 34 36 37 28 28 26 23 21 20 19 18 20 22 21 20 19 19
30 32 26 27 28 31 34 35 37 38 38 38 37 36 35 36 37 36 36 30 32 29 28 30 32 32 30 29 29 28 26 27 24 22 20 20 21 21 19 20 20 20 20 21
31 32 32 29 34 35 36 36 36 36 36 35 36 35 35 34 35 33 30 30 28 27 26 26 25 26 23 24 23 24 25 26 24 21 21 21 20 19 19 18 15 20 23 24

GFSCGP_sfc_temp_096.txt.gz
Temp
48 44 41 45 49 50 49 44 45 47 53 49 48 50 55 51 45 48 50 52 53 55 59 60 60 61 60 62 62 63 62 62 62 60 62 62 63 63 63 63 64 65 64 64
43 41 49 50 51 48 45 44 44 49 50 48 48 48 52 49 51 53 54 52 53 52 53 57 57 57 58 61 62 63 63 63 64 65 63 64 64 63 64 64 63 64 64 64
41 46 51 48 46 42 42 43 43 44 47 48 46 47 46 49 48 51 51 50 53 55 55 56 55 56 59 59 60 62 63 63 65 65 61 61 62 62 61 62 62 63 63 63
45 51 47 45 44 47 39 47 46 43 43 39 44 39 45 47 50 48 53 50 53 51 52 55 54 55 56 59 59 62 63 63 64 63 63 62 62 61 60 62 63 63 63 63
40 44 44 41 44 49 44 48 44 42 39 38 41 34 41 39 46 50 51 51 53 53 54 55 55 58 54 55 58 61 62 63 63 62 64 62 59 59 61 62 62 62 60 60
41 47 49 47 49 50 47 43 40 38 34 28 35 36 39 45 44 50 55 55 56 52 50 49 50 51 51 50 51 55 59 61 62 62 63 62 61 61 60 60 60 58 55 55
38 40 44 49 43 43 41 38 29 28 27 28 35 34 43 47 47 53 59 59 55 53 49 48 48 48 49 48 49 50 54 59 61 61 61 62 62 62 62 61 58 54 53 52
33 30 38 47 44 38 37 40 31 24 23 27 33 34 44 48 49 49 49 49 48 48 48 48 50 49 47 49 49 49 50 53 61 61 61 61 62 62 61 59 57 55 52 51
32 34 40 44 47 44 36 34 43 33 22 27 34 37 44 44 46 45 46 45 48 47 49 51 47 47 47 48 48 48 49 50 57 61 61 61 60 57 55 53 53 51 49 48
38 31 37 42 46 45 41 45 34 33 24 22 28 30 42 43 47 47 45 46 49 47 46 44 45 46 46 46 47 46 47 49 52 57 59 57 55 53 52 51 48 48 46 45
41 36 32 40 36 36 35 35 35 37 32 26 22 32 41 50 50 52 53 52 50 44 45 42 43 44 44 44 44 45 45 48 49 50 51 50 50 50 49 48 46 46 44 43
42 37 28 33 38 43 40 37 38 34 29 30 29 32 43 45 45 48 48 46 42 42 41 42 42 42 41 42 43 45 44 47 47 48 48 47 48 47 46 45 44 43 42 38
41 34 25 31 36 37 36 38 42 40 36 34 28 34 45 42 43 45 46 45 43 42 41 40 40 40 40 41 41 44 44 43 45 46 45 44 44 45 44 43 41 39 38 36
48 35 32 29 31 36 32 39 40 41 33 33 35 36 49 53 48 47 46 44 43 42 42 40 39 40 39 39 39 40 42 44 44 44 44 43 42 43 42 40 38 36 36 35
44 31 34 36 38 37 36 37 39 38 40 35 41 40 45 50 51 50 46 43 42 42 41 41 40 38 38 38 38 38 40 42 43 43 42 40 39 40 38 36 35 33 34 34
40 30 35 30 36 37 34 38 41 41 42 42 42 41 46 47 47 45 45 43 42 43 44 42 40 40 40 40 39 39 37 38 42 41 39 38 37 35 34 33 33 33 32 32
41 32 29 24 33 36 29 36 40 42 41 45 39 47 46 47 48 50 50 44 45 46 45 42 41 42 42 40 40 38 38 36 35 36 35 35 34 34 33 32 32 32 31 31
35 35 26 24 30 23 34 42 46 43 47 49 47 44 47 49 53 50 49 48 47 46 44 44 44 43 42 40 39 39 36 35 34 33 33 32 33 32 31 31 31 30 30 30
45 36 26 27 20 29 35 37 37 36 41 47 46 47 49 45 45 49 50 50 51 49 49 49 47 46 43 41 41 38 35 34 34 34 34 33 33 31 30 29 29 29 28 25
39 43 36 27 16 17 32 41 43 44 34 47 48 48 48 46 42 51 59 48 48 50 49 47 45 44 43 41 40 36 35 34 35 35 34 33 32 31 30 29 28 26 26 26
26 27 32 28 19 24 35 36 42 31 34 38 45 48 46 46 53 50 50 46 46 45 45 44 45 44 44 41 38 37 36 36 37 34 31 30 29 29 29 27 25 24 23 22
29 28 27 21 15 23 37 37 39 43 39 39 41 42 43 44 43 43 46 45 42 42 41 42 43 43 42 39 38 37 36 37 32 31 30 28 27 28 26 24 22 22 21 21
29 32 29 35 33 38 36 36 37 39 40 39 39 40 41 40 40 41 42 42 40 40 39 39 39 36 36 36 39 37 36 31 31 30 28 25 25 25 24 22 20 20 21 22
30 28 30 33 31 34 35 35 37 38 39 38 38 38 38 39 39 40 38 38 37 33 31 29 32 32 30 33 35 36 30 31 31 28 25 24 23 21 21 23 23 22 22 22
29 32 26 26 29 30 32 34 37 37 39 39 37 36 37 38 38 37 36 32 32 28 28 28 29 28 27 28 27 28 29 31 29 26 23 23 22 22 21 22 22 23 22 23
30 31 31 29 35 36 35 36 36 36 37 37 37 38 37 35 35 34 31 29 28 28 26 26 25 26 23 25 25 25 28 30 27 24 23 23 22 22 21 20 18 25 25 26

GFSCGP_sfc_temp_099.txt.gz
Temp
49 45 41 47 50 51 47 44 45 47 51 47 47 50 56 54 49 51 51 53 54 57 62 61 61 62 63 63 64 64 63 64 64 63 62 62 63 65 65 64 65 65 65 64
43 41 49 51 51 49 46 44 44 47 48 49 50 50 56 50 52 52 54 51 54 54 56 58 60 61 62 63 64 64 64 65 65 66 66 66 66 66 66 65 64 65 64 64
43 46 52 50 47 45 44 44 44 45 46 48 46 46 52 51 50 51 51 53 54 55 56 57 57 59 61 62 63 64 65 65 65 66 64 63 64 63 62 63 63 64 64 64
45 50 48 47 45 48 39 48 46 42 40 35 47 33 49 52 51 48 54 51 55 55 55 57 57 57 59 62 63 64 65 65 66 66 65 65 65 63 63 64 64 65 64 64
41 44 44 43 46 50 44 48 43 42 38 37 40 38 44 48 47 50 52 53 56 57 56 57 56 59 59 60 60 62 64 65 66 65 66 65 65 65 65 65 63 63 62 63
41 47 49 47 47 51 48 42 40 38 36 29 37 38 38 47 50 52 55 57 58 58 55 57 54 54 55 55 59 61 62 63 64 64 65 64 65 63 62 61 61 59 58 57
39 41 44 50 42 45 43 41 30 28 27 28 34 33 44 49 49 54 58 56 59 59 55 54 52 52 53 52 55 58 60 61 62 63 63 64 65 64 64 64 61 57 55 54
34 32 40 47 41 37 39 39 32 26 24 27 31 31 39 50 59 59 54 54 53 53 53 54 56 55 53 53 53 54 57 60 61 62 63 64 64 64 64 63 60 58 57 54
36 33 41 44 45 44 36 35 42 32 20 24 31 36 45 45 47 47 49 50 53 53 52 55 55 54 53 52 52 53 53 58 61 63 63 62 63 63 61 61 59 55 52 50
38 31 38 42 45 42 41 44 33 32 26 21 29 31 40 42 47 49 48 50 53 51 50 51 51 50 49 50 49 50 51 53 56 62 62 61 61 60 58 56 53 51 49 48
39 36 33 39 37 36 36 35 35 36 32 27 22 33 42 50 52 51 54 52 53 53 49 47 46 46 47 48 48 48 48 50 51 54 58 56 54 54 54 53 50 49 47 46
40 34 30 32 38 44 39 37 37 31 27 30 29 31 44 44 47 47 51 51 50 48 48 44 44 45 44 45 45 45 46 47 48 52 52 51 51 50 49 49 48 46 45 44
40 32 23 29 36 35 35 39 40 38 35 31 27 38 44 42 46 47 48 49 48 45 44 44 43 43 43 44 44 44 44 47 47 47 48 48 48 48 47 46 45 45 43 42
45 34 30 30 31 36 31 36 39 41 31 33 35 41 47 47 47 48 48 48 47 45 43 43 42 44 43 43 42 44 44 46 46 46 46 45 46 46 45 44 43 42 43 40
41 29 32 34 35 35 34 34 37 36 39 35 41 40 45 50 51 49 47 46 44 44 43 43 42 42 41 40 40 41 44 45 45 45 44 43 42 42 42 40 40 38 39 38
39 28 34 31 35 36 33 36 37 38 39 40 40 37 44 45 48 48 50 48 47 45 45 44 43 42 40 40 41 40 42 43 44 43 42 41 39 38 38 37 36 37 35 35
36 31 25 19 32 35 26 34 36 39 41 41 34 44 45 44 48 49 50 48 50 50 47 45 45 43 43 42 41 39 39 40 41 39 37 37 37 36 36 36 35 34 34 34
38 32 27 19 26 22 35 38 44 40 43 45 45 47 45 49 53 49 50 49 49 50 50 46 45 45 45 41 40 38 37 37 38 37 36 35 36 35 34 34 34 32 33 33
40 36 22 26 18 30 38 36 36 35 39 46 44 48 47 47 43 51 52 53 55 52 51 50 48 46 44 41 41 38 36 36 35 36 36 36 36 34 34 33 32 32 31 30
39 40 33 13 18 17 30 38 40 43 34 46 47 48 46 43 40 50 55 51 51 49 48 45 43 43 41 41 39 37 36 35 35 35 35 35 35 35 33 32 31 29 30 29
29 27 30 24 17 24 34 35 41 28 34 34 40 46 42 43 51 46 45 46 47 45 44 43 42 42 42 40 37 37 36 35 37 34 33 32 33 32 32 30 28 28 27 26
28 27 27 25 21 25 36 36 39 42 38 37 39 39 41 42 41 41 43 41 41 42 43 40 41 41 40 37 37 37 35 36 33 32 32 31 30 30 30 28 26 26 25 24
27 32 27 35 32 39 36 37 37 38 39 36 36 36 38 39 36 38 38 38 38 36 37 37 37 36 36 34 37 35 34 32 32 32 31 30 29 28 28 27 25 24 25 25
28 27 29 32 30 35 35 34 36 37 37 36 35 35 37 38 37 36 36 35 35 32 31 29 31 30 29 30 31 32 31 32 32 31 29 27 27 25 25 26 26 25 25 24
30 31 25 25 29 30 31 33 36 37 36 36 36 35 35 36 35 34 33 30 31 29 29 29 29 28 29 28 28 29 30 32 31 29 27 27 26 26 24 25 25 26 25 28
30 30 32 31 36 36 34 35 36 35 34 33 35 35 34 34 34 33 31 29 28 28 28 28 26 26 25 26 26 27 30 32 29 26 26 26 25 24 24 23 22 28 28 29

GFSCGP_sfc_temp_102.txt.gz
Temp
52 46 46 51 53 57 59 55 54 56 58 57 57 58 60 67 66 66 68 69 69 69 73 73 72 71 73 73 73 73 72 72 72 70 70 70 69 71 72 73 73 73 71 68
47 44 55 57 56 55 52 53 53 53 54 55 56 54 62 65 67 68 69 71 69 70 70 71 71 72 72 72 71 72 72 73 72 72 73 73 73 74 74 72 71 69 69 69
48 52 55 53 50 47 50 51 51 49 50 51 48 48 56 63 67 69 68 70 72 70 70 69 69 71 72 71 70 71 72 73 73 74 73 73 74 71 70 70 67 70 67 67
49 56 52 50 49 51 40 50 50 46 44 38 51 38 56 61 63 65 65 67 69 70 70 72 70 70 70 72 73 71 73 73 73 74 72 71 69 68 69 72 70 67 68 68
46 47 49 48 50 54 45 50 49 46 41 39 42 36 51 60 58 63 68 69 69 71 71 70 70 70 71 71 71 72 73 73 73 73 73 72 71 72 74 72 67 66 67 70
45 49 52 54 55 55 48 43 42 39 37 31 41 41 48 56 57 62 69 69 69 70 70 71 70 69 70 69 70 69 71 71 73 72 72 71 70 71 70 68 64 64 65 63
41 44 47 52 45 48 47 43 32 30 30 35 43 42 49 61 65 65 67 69 69 70 70 69 68 65 67 67 67 68 69 70 72 72 71 71 72 72 70 69 67 62 59 58
37 33 42 49 49 40 41 44 38 31 34 41 38 38 50 58 64 66 65 68 70 69 69 68 68 66 66 65 65 65 68 69 71 71 71 72 72 72 72 71 71 68 66 61
39 35 43 47 49 49 38 37 44 38 29 36 44 48 55 56 58 57 60 65 65 67 65 63 65 67 66 64 63 65 65 67 70 70 71 71 70 71 71 71 71 68 64 55
47 34 39 40 47 46 46 49 37 36 30 30 44 42 47 54 58 59 58 60 65 68 65 63 64 64 65 66 65 65 67 67 68 70 70 69 68 67 68 69 66 63 58 54
52 43 33 39 38 37 40 38 39 43 40 36 35 46 58 57 61 59 62 61 61 64 65 64 63 62 62 61 61 62 63 65 66 67 68 66 64 63 64 62 62 61 53 52
47 42 32 34 41 46 45 40 42 40 33 39 39 43 55 56 56 55 59 61 62 61 61 60 62 60 58 58 58 60 60 61 61 64 64 61 60 58 56 56 55 53 51 50
46 38 29 30 36 38 39 43 45 47 42 36 36 45 54 56 58 58 59 61 61 58 57 56 55 56 57 58 57 57 57 58 58 60 62 56 54 54 54 52 51 50 48 49
49 41 40 36 41 41 34 39 43 43 35 40 42 49 57 60 59 58 60 62 64 58 56 57 54 55 55 55 56 56 56 58 56 56 58 57 54 54 51 51 49 46 46 46
50 36 42 42 43 43 42 41 40 39 44 40 47 48 54 58 61 63 61 60 59 59 58 56 54 54 54 53 53 54 55 54 54 54 52 53 50 49 49 46 46 43 43 44
46 35 43 34 41 43 40 43 43 43 45 46 48 47 59 60 58 57 58 58 60 61 63 58 55 53 52 52 52 51 52 51 51 52 51 50 45 42 41 40 39 38 39 39
44 37 35 31 39 39 33 39 42 43 46 47 41 50 57 55 57 58 60 59 58 61 62 62 59 55 53 53 51 49 50 50 48 47 42 40 40 39 39 37 37 38 38 39
43 36 34 30 31 27 42 46 50 46 47 50 50 52 55 56 58 59 62 62 61 59 61 62 63 59 56 53 50 50 46 44 43 42 40 38 38 37 36 36 37 35 36 37
50 44 30 30 32 38 44 41 43 42 44 51 50 52 55 56 56 55 62 62 62 64 63 62 63 58 57 52 50 46 41 41 40 39 39 39 38 35 34 34 34 34 35 34
46 49 40 28 30 26 42 45 48 51 38 54 53 52 53 55 45 54 63 59 57 57 56 56 55 53 52 51 49 42 41 40 39 38 38 38 37 35 35 35 34 34 34 33
34 35 33 31 32 34 42 45 49 36 42 44 50 53 53 50 55 54 53 53 50 49 49 51 51 51 50 48 42 41 40 39 40 37 36 36 36 35 36 34 33 33 31 31
35 33 32 31 31 29 43 43 44 50 46 47 48 47 49 50 49 47 47 46 45 45 45 47 48 48 47 42 40 39 38 39 36 35 35 34 34 34 34 33 31 31 31 30
34 41 35 39 39 46 46 48 47 46 47 45 47 45 46 47 45 45 44 44 43 41 41 39 39 40 41 37 38 37 37 35 34 34 33 33 33 33 33 32 30 30 31 30
36 36 37 36 36 41 42 43 45 46 45 45 45 44 45 44 43 43 41 40 39 36 34 34 35 35 35 34 34 36 34 34 33 33 32 32 31 31 31 32 32 31 30 30
39 38 33 35 35 37 38 41 44 42 43 43 42 41 41 43 41 40 37 34 34 33 33 33 33 33 33 33 34 34 33 33 33 33 31 31 32 31 30 31 31 31 33 33
36 37 41 41 41 43 40 42 43 41 39 39 40 38 36 35 35 35 32 31 31 31 31 31 31 31 30 31 31 31 32 33 32 31 30 31 30 30 30 28 27 31 31 33

GFSCGP_sfc_temp_105.txt.gz
Temp
52 47 47 51 52 57 56 54 53 58 61 60 58 60 63 70 72 71 72 74 75 76 79 78 77 77 77 78 77 75 74 74 75 73 72 72 71 73 74 76 75 75 73 72
46 42 56 60 57 55 52 51 53 57 59 57 59 59 64 68 69 72 72 75 76 77 77 77 76 76 76 76 76 75 75 75 74 73 74 74 74 75 75 75 74 75 74 72
48 52 58 57 54 51 53 51 55 53 55 55 55 54 59 65 69 71 74 75 76 77 76 77 75 75 75 74 75 75 76 75 75 74 74 74 75 73 72 72 72 73 73 70
51 59 55 53 51 55 47 56 57 51 49 42 54 39 56 63 65 68 70 72 75 75 78 78 76 75 74 75 77 77 76 75 75 74 74 72 70 68 71 73 73 71 72 71
45 53 51 50 52 56 49 56 53 50 44 41 43 38 53 62 61 66 70 71 74 75 77 77 77 75 76 75 75 76 76 76 75 75 73 72 71 72 74 73 72 71 71 72
51 56 58 55 57 57 52 46 45 40 39 33 45 43 49 57 61 66 70 73 74 75 76 78 78 77 75 75 74 74 74 74 75 74 74 73 71 72 71 71 70 70 68 67
46 47 51 56 52 51 51 44 33 32 32 35 48 44 49 60 66 68 70 72 74 76 77 77 76 75 73 73 72 72 73 72 73 74 73 72 72 73 72 72 71 68 67 64
37 32 46 53 51 41 44 49 42 32 35 42 42 40 50 62 67 67 70 72 72 75 74 74 76 75 72 71 70 71 71 70 73 73 73 74 74 74 74 74 72 69 68 67
41 36 45 51 54 52 39 41 53 41 33 38 46 51 58 60 60 64 65 67 70 71 71 73 74 75 73 71 70 69 70 70 72 73 73 73 72 72 73 73 73 70 70 68
52 35 39 42 48 49 50 51 37 39 31 32 46 47 49 57 61 65 65 66 69 71 72 71 70 70 71 72 70 69 71 70 70 72 73 72 71 71 72 73 71 69 68 62
55 44 33 40 39 39 42 41 46 47 46 38 38 48 63 62 61 60 63 65 66 66 68 70 70 69 69 68 68 68 68 69 68 69 71 70 70 70 70 70 69 68 65 60
54 47 32 35 41 49 50 46 48 40 37 41 40 44 59 62 62 60 62 63 64 64 64 65 65 66 67 64 64 64 66 66 67 69 70 69 70 68 67 66 65 63 60 58
50 40 28 30 36 40 42 47 50 51 44 39 37 45 63 64 59 62 62 63 66 64 65 65 65 64 64 65 65 64 64 64 64 66 67 67 65 64 63 62 59 55 54 53
52 45 42 36 40 39 35 42 46 48 39 42 43 51 57 59 60 62 64 66 66 66 64 66 63 64 64 62 62 62 62 63 61 61 62 62 59 58 58 56 53 51 50 49
51 37 45 48 51 45 42 42 42 42 47 43 49 50 56 62 63 65 67 65 63 64 66 65 63 62 63 61 59 59 60 60 61 59 58 59 57 54 51 48 47 45 45 47
51 37 42 35 46 46 41 44 45 45 47 48 50 50 61 64 65 61 62 63 63 63 65 66 64 61 59 61 59 58 58 57 57 56 55 56 51 47 45 43 41 40 40 40
44 39 34 31 41 40 33 42 44 45 48 49 44 52 58 58 59 61 62 63 63 63 64 64 65 65 61 60 59 57 56 56 52 50 45 44 42 40 40 39 39 37 38 39
43 38 34 30 33 27 43 52 52 48 50 52 53 55 57 58 61 62 64 62 62 63 65 65 64 66 68 60 58 57 55 52 46 44 41 40 40 38 36 36 36 37 36 37
50 44 31 29 32 41 43 45 47 45 45 54 52 54 57 59 60 59 64 65 63 63 63 60 61 63 62 60 57 52 45 44 43 42 41 39 38 36 35 35 34 35 34 34
50 52 41 31 31 29 46 51 55 55 38 57 56 55 56 58 48 55 57 56 55 57 54 53 53 56 55 56 53 44 42 42 42 42 40 39 38 35 35 35 34 34 35 34
35 37 33 32 32 36 45 46 55 36 44 47 57 58 56 53 58 55 54 55 52 50 49 50 53 53 52 49 42 41 41 40 41 39 37 36 36 35 36 34 33 33 33 32
36 34 33 32 32 30 48 47 45 51 47 47 51 51 52 54 52 50 50 48 47 46 46 45 48 47 47 41 40 39 39 39 36 35 35 34 34 34 34 33 33 32 32 32
35 43 36 40 40 47 49 50 51 50 49 48 50 48 50 49 48 47 46 45 43 41 40 39 39 39 38 36 37 36 37 35 33 33 32 33 33 33 33 33 32 31 31 31
40 41 38 37 38 44 46 46 50 51 49 48 49 48 50 46 47 43 39 38 38 35 34 34 35 34 33 34 34 33 34 33 32 32 33 33 33 32 33 33 32 32 31 31
40 41 35 35 36 40 41 45 47 45 46 44 45 45 45 44 42 42 35 34 34 33 33 32 31 31 30 32 32 32 32 32 32 33 32 32 32 32 32 32 32 32 33 34
34 34 41 42 43 45 45 45 45 43 43 41 39 36 36 39 37 35 33 32 32 30 30 29 28 28 28 29 28 28 30 32 32 32 31 32 32 31 30 30 28 33 34 36

GFSCGP_sfc_temp_108.txt.gz
Temp
52 45 42 48 50 54 54 50 49 53 60 55 53 57 59 64 62 61 62 63 64 66 70 71 70 70 70 69 69 69 67 67 66 66 64 62 64 65 64 65 67 68 67 65
46 41 51 55 55 51 51 50 50 54 55 52 54 55 61 62 62 64 65 64 65 66 68 69 69 69 69 69 69 69 68 67 67 67 68 67 67 67 67 65 66 67 66 65
44 49 55 54 52 47 49 46 47 48 51 52 48 47 54 60 63 65 67 67 67 66 66 67 68 68 69 69 69 69 69 68 69 69 68 66 65 64 64 65 66 68 67 65
48 55 51 50 49 51 45 53 52 49 46 40 49 37 49 57 58 62 65 66 67 69 67 67 68 68 69 69 70 71 70 70 70 69 67 65 65 63 66 67 67 66 67 65
44 49 47 46 50 54 47 55 51 48 43 41 42 38 43 54 54 60 64 67 68 70 68 67 67 70 70 70 70 70 70 70 70 69 69 66 65 66 66 67 65 66 66 66
50 55 54 52 55 56 52 46 44 42 40 33 42 39 42 49 54 58 62 65 66 68 70 70 68 68 69 70 69 69 69 70 70 69 69 67 66 65 64 65 64 64 64 65
44 47 53 56 50 50 49 44 33 32 32 33 43 39 45 53 57 58 58 60 64 65 68 68 64 63 67 67 68 68 69 69 70 69 68 68 68 67 66 66 66 64 64 63
34 33 47 52 51 41 45 46 33 27 27 31 36 33 44 57 61 60 61 60 62 61 63 64 65 63 63 66 67 68 68 68 69 69 69 69 69 69 68 68 68 66 65 64
38 36 48 51 54 50 43 41 48 36 26 29 35 42 51 54 54 55 56 58 58 60 62 59 61 63 63 62 64 66 67 67 68 69 69 68 69 69 69 69 69 67 66 63
47 33 41 44 50 50 47 49 37 35 24 24 34 37 42 46 51 55 55 54 57 58 57 59 61 61 61 61 61 61 63 65 66 68 68 68 68 68 69 68 67 67 65 62
51 41 34 40 39 38 40 42 42 44 38 29 27 36 51 52 52 53 55 55 54 54 56 57 57 58 59 58 58 59 59 60 62 64 67 66 67 67 67 67 67 67 64 62
48 42 32 36 40 44 47 45 44 37 32 35 32 34 51 53 53 54 55 56 54 52 54 54 55 55 55 55 55 55 55 56 58 60 61 62 63 63 64 65 66 63 62 59
45 37 28 30 36 39 40 45 48 47 39 34 30 36 53 51 51 54 54 54 56 55 52 55 53 53 53 54 54 53 54 54 55 56 57 58 59 60 62 62 60 57 54 54
49 40 38 33 37 39 37 41 45 45 33 36 39 42 47 51 52 53 54 55 55 55 57 56 53 53 53 53 53 53 53 54 53 54 54 54 55 57 58 59 56 53 51 50
47 35 42 43 45 42 41 40 42 42 45 39 44 44 50 52 53 54 56 55 55 56 54 56 56 54 53 52 51 51 51 52 52 51 51 51 53 54 54 52 50 48 47 48
45 34 38 33 44 43 39 43 44 44 46 46 46 44 54 55 53 52 53 56 55 56 57 57 56 54 54 54 52 51 50 50 50 49 48 49 48 46 46 44 42 42 41 41
42 34 34 30 38 38 32 39 42 43 47 47 41 49 50 51 52 50 51 55 55 56 55 56 57 57 56 54 52 49 48 49 47 45 42 41 40 39 39 40 39 39 39 38
42 36 33 29 33 25 38 49 49 45 48 50 50 50 51 52 52 51 54 52 54 55 56 55 53 52 53 52 50 49 48 46 42 40 39 38 37 36 35 35 37 36 36 36
48 40 30 28 28 33 37 41 44 42 42 51 49 52 53 52 47 50 52 50 49 49 48 48 47 48 48 47 47 44 41 39 38 38 37 36 35 32 35 34 34 34 34 33
44 44 36 31 27 24 38 44 50 49 35 50 52 50 51 51 42 44 49 48 46 46 45 43 45 46 45 43 42 39 38 37 36 37 37 36 34 33 34 34 33 32 32 32
32 32 31 31 23 30 38 42 50 31 36 43 52 52 49 47 48 46 46 43 43 42 41 41 44 42 40 38 37 36 36 36 36 35 33 31 30 32 34 33 31 32 32 31
33 31 31 28 21 24 41 40 39 43 38 39 45 45 45 43 43 42 41 39 38 36 36 37 38 36 36 33 35 34 33 32 29 28 28 27 27 30 33 33 32 32 31 31
30 36 33 34 31 40 46 42 42 44 42 40 42 43 43 41 40 40 38 36 34 33 33 33 32 31 31 30 31 30 30 28 27 26 24 24 26 33 33 33 32 30 31 31
33 34 32 33 34 36 38 40 42 44 42 42 42 42 42 40 38 36 35 34 31 30 29 28 28 27 27 28 29 27 28 26 26 24 24 24 25 25 29 31 31 31 31 30
31 35 30 30 31 33 34 36 40 40 40 40 40 40 40 39 37 35 31 30 29 28 27 26 25 25 25 25 25 25 27 27 28 24 23 24 24 24 24 28 30 29 30 32
25 22 27 27 30 33 37 39 39 37 36 35 34 33 32 34 32 30 28 28 27 25 25 24 23 22 22 22 20 21 23 24 23 23 23 23 22 22 23 22 21 34 34 36

GFSCGP_sfc_temp_111.txt.gz
Temp
51 45 41 44 45 46 45 44 44 48 56 53 50 50 55 60 57 56 57 59 60 60 65 66 67 68 68 65 66 65 64 64 65 63 61 61 63 64 63 64 65 65 65 64
45 41 49 51 49 47 45 42 43 49 53 51 49 51 57 56 58 59 58 58 60 61 61 65 64 66 67 64 65 65 65 64 65 67 66 62 63 63 66 63 64 65 65 64
44 47 52 49 47 45 44 42 44 45 47 47 45 45 49 54 57 60 61 62 64 63 63 63 64 64 66 65 65 65 65 65 66 67 66 63 61 60 60 60 63 64 65 64
47 51 49 46 45 47 40 48 49 46 42 36 46 37 47 52 56 59 62 61 64 64 64 63 65 64 65 66 67 68 66 65 66 66 65 64 63 62 65 65 66 63 64 64
43 47 45 43 46 50 43 51 48 45 40 41 42 38 41 51 49 54 60 64 65 64 64 65 64 66 67 67 67 68 67 66 66 66 66 64 64 64 64 64 62 64 64 64
46 52 52 49 52 53 49 45 43 42 41 34 42 40 39 45 50 56 61 62 63 65 65 65 65 66 66 68 67 66 66 66 66 66 66 64 64 63 62 62 62 63 65 64
43 44 49 52 47 47 47 42 33 32 32 31 42 36 44 51 54 56 57 57 58 59 61 65 63 60 64 65 65 66 66 66 67 66 66 66 65 64 63 64 64 63 63 63
35 33 44 49 48 42 45 45 33 27 27 33 36 33 41 54 60 61 57 56 57 57 59 59 63 63 64 64 65 65 65 66 67 67 66 66 66 66 66 66 66 65 64 64
34 35 47 48 50 50 40 40 48 34 21 27 32 38 48 51 53 53 53 54 55 56 58 59 58 58 61 63 63 65 65 66 67 67 67 66 66 66 66 67 66 66 66 65
40 34 42 46 50 48 47 51 38 36 21 21 30 33 39 45 50 53 52 51 53 54 55 57 57 58 58 58 60 62 65 65 66 67 67 67 66 66 67 67 65 66 65 64
48 41 35 40 40 40 39 42 42 44 34 28 25 32 46 51 50 51 53 53 51 51 52 53 54 54 55 55 55 57 59 63 62 63 66 65 65 65 65 66 64 64 62 62
46 41 33 36 40 43 46 44 45 37 32 33 31 34 49 52 51 51 52 53 52 52 52 52 52 52 52 53 53 54 53 54 57 58 61 61 63 63 63 63 65 63 61 62
43 34 31 31 36 40 42 43 48 43 38 34 29 33 50 46 48 50 51 52 54 53 52 53 51 51 50 51 51 52 52 52 53 54 55 56 58 60 62 63 64 62 62 62
46 36 33 32 37 40 39 42 46 46 35 37 39 40 45 48 49 50 51 53 52 53 55 53 51 51 51 51 51 51 51 51 51 51 51 51 52 55 57 58 56 55 55 54
46 33 36 39 42 42 41 42 42 42 45 39 44 41 47 50 50 51 52 52 53 54 54 54 53 51 51 50 50 50 49 50 50 49 48 49 49 51 52 52 52 51 50 51
45 33 39 35 40 42 39 43 44 44 46 46 47 44 50 53 51 50 52 53 53 54 55 56 55 53 53 52 52 51 49 48 48 47 47 47 46 45 45 45 44 44 44 44
40 35 34 32 36 38 32 39 41 43 47 47 41 49 49 49 51 51 52 54 53 53 54 54 53 53 51 50 50 49 48 47 46 45 42 41 40 41 40 40 40 40 40 39
34 37 32 29 33 27 37 47 48 45 47 50 50 49 53 51 52 53 53 50 51 52 51 50 48 48 48 47 47 48 46 44 42 40 39 38 38 37 36 38 38 37 37 37
43 37 30 29 31 33 36 40 43 41 43 52 50 52 49 50 48 47 49 49 47 46 45 45 45 45 44 43 43 41 38 38 38 38 38 37 36 31 35 34 36 36 36 34
44 44 36 29 28 27 36 43 50 49 36 53 53 52 51 49 42 47 46 44 42 42 41 42 42 41 40 39 39 37 36 36 37 37 37 36 34 31 35 35 33 32 32 32
31 32 32 31 23 29 38 41 52 34 39 45 53 52 51 49 53 45 42 40 39 38 38 39 38 36 35 35 35 34 33 33 33 32 32 30 29 33 34 33 31 32 32 31
32 30 29 26 19 27 39 45 41 44 39 39 42 46 47 42 41 40 38 36 36 35 35 36 34 33 32 31 33 32 31 31 27 27 27 25 30 32 33 33 32 32 32 32
32 36 32 34 31 40 39 40 42 42 42 39 40 40 44 40 37 37 35 33 32 31 31 31 30 29 28 28 29 28 28 28 26 25 23 29 26 33 33 33 32 31 32 31
34 33 34 33 32 33 37 39 43 42 40 38 39 40 41 37 36 34 33 31 29 28 27 26 26 25 24 24 25 26 26 28 29 22 23 22 22 22 26 31 31 32 31 30
26 30 29 27 29 32 37 39 39 38 38 36 35 36 36 36 33 33 30 28 27 26 25 24 23 22 21 21 20 19 22 22 24 22 22 22 21 19 20 23 28 29 29 31
18 16 22 25 24 25 33 31 37 36 34 33 33 32 32 33 30 29 26 26 25 23 22 21 19 19 16 15 16 16 18 20 21 23 22 21 20 19 19 18 19 32 34 36

GFSCGP_sfc_temp_114.txt.gz
Temp
50 45 42 44 43 46 43 41 41 43 53 49 49 52 52 57 54 54 55 55 55 58 63 63 64 65 65 64 65 65 65 66 66 62 63 60 61 61 60 62 63 63 63 61
44 42 49 49 46 44 42 38 38 46 50 48 47 48 56 53 54 56 56 56 56 56 59 61 62 62 64 63 64 64 65 66 65 67 64 62 63 61 64 62 60 63 62 62
43 46 52 48 44 42 42 40 39 42 46 45 42 43 48 51 55 56 58 62 61 60 60 61 61 62 64 64 63 64 65 66 66 67 62 60 59 58 58 57 60 62 62 62
46 50 48 44 43 45 39 45 46 44 42 35 44 35 45 51 53 54 58 59 60 60 63 63 63 62 63 65 64 65 65 65 65 66 65 63 62 61 63 64 63 62 62 63
43 46 45 43 44 48 42 48 46 44 42 40 40 37 40 47 46 52 58 62 63 64 63 63 64 65 64 66 64 65 65 64 65 65 66 64 63 64 64 63 62 62 62 64
44 50 51 47 49 50 48 43 42 38 40 34 40 39 38 45 48 51 56 58 61 61 62 64 64 65 65 66 65 64 64 63 64 64 64 64 63 63 62 60 60 61 62 62
41 43 48 51 46 48 46 40 32 31 31 31 41 35 44 48 51 56 58 58 56 56 58 60 60 60 64 63 64 64 63 63 63 63 63 64 63 63 63 61 61 61 61 62
33 29 42 47 46 41 42 42 31 26 26 31 36 33 41 51 59 61 59 57 55 54 56 57 59 59 63 63 64 64 63 64 63 63 63 64 64 64 64 63 64 63 63 64
35 36 43 46 49 50 41 38 45 33 20 25 32 37 44 49 51 55 54 52 53 54 54 55 58 57 59 62 64 64 64 64 64 64 64 64 64 64 64 64 64 64 64 64
37 32 41 43 47 48 47 49 37 37 23 21 29 30 40 42 49 56 50 50 52 53 53 53 55 55 53 57 61 63 64 64 65 65 66 65 65 65 66 66 64 64 65 63
40 37 34 41 40 41 40 41 42 42 33 28 24 33 43 51 53 55 52 53 51 51 52 53 52 52 52 53 53 55 57 60 61 63 65 65 64 65 65 64 64 64 63 63
44 39 32 36 40 42 46 43 43 37 33 31 30 36 46 46 48 49 51 52 50 51 50 51 50 50 51 53 52 52 54 56 57 58 60 61 63 62 62 62 64 64 62 63
45 37 31 32 36 39 37 42 46 46 37 36 32 36 47 46 43 46 49 50 51 51 50 50 50 50 50 50 51 51 51 51 51 53 55 56 56 59 61 62 62 62 62 62
45 36 35 33 35 39 37 40 43 44 36 38 38 42 45 47 46 47 49 51 51 51 53 51 49 49 49 50 50 50 50 49 49 49 49 49 50 53 54 56 57 58 60 60
44 34 37 37 37 39 41 41 42 41 43 38 43 42 49 49 48 48 50 51 51 51 52 51 51 50 49 49 49 49 49 49 48 48 47 47 47 48 49 50 51 52 52 53
43 33 36 33 38 38 35 40 42 43 44 45 46 43 55 54 51 47 49 50 50 52 53 52 51 51 51 51 50 50 49 48 47 46 46 46 45 44 45 45 43 43 43 44
34 33 32 30 35 37 31 36 40 40 46 46 41 49 46 49 48 48 48 51 51 52 53 53 53 52 50 49 48 48 47 46 45 43 41 41 39 40 40 39 40 40 40 40
33 32 29 26 33 25 39 47 45 42 47 50 50 50 53 53 56 52 51 50 50 51 51 50 49 48 47 45 44 44 43 42 41 39 39 38 38 37 37 39 38 37 37 37
40 34 26 24 29 33 35 38 41 40 41 51 49 52 51 50 49 50 50 49 50 48 46 44 45 44 42 41 41 40 37 37 37 37 37 37 36 31 35 35 36 38 35 34
37 38 33 30 27 26 41 41 49 48 36 52 53 52 52 48 44 52 45 44 42 42 42 41 40 39 39 37 38 36 35 35 35 34 35 35 33 31 35 35 33 32 33 32
31 31 28 29 30 31 37 40 51 34 39 48 53 53 52 49 55 49 44 41 39 38 38 37 37 35 34 34 35 33 32 31 32 31 30 30 30 33 34 33 32 32 32 32
33 31 30 32 28 27 38 46 41 45 38 41 43 50 52 54 44 42 40 36 35 35 35 35 33 30 30 30 32 30 30 29 27 27 29 31 33 33 33 33 33 33 33 32
31 36 32 36 35 37 42 37 41 42 42 39 41 43 51 43 38 38 36 34 32 32 31 31 29 27 26 27 30 29 28 29 25 25 29 29 30 33 33 33 32 32 32 31
33 30 33 34 32 30 32 37 36 39 39 38 37 39 42 38 37 32 31 30 29 28 27 26 26 23 21 22 23 24 25 28 21 23 23 22 23 21 29 31 31 32 30 30
21 23 24 29 28 31 33 29 30 35 35 35 34 35 36 36 33 31 29 27 27 26 25 24 22 20 18 19 18 17 20 21 23 21 21 21 20 18 19 22 24 28 30 32
14 10 16 21 19 21 29 28 29 29 28 30 31 30 30 33 30 29 26 26 24 22 21 19 17 16 14 14 14 14 14 18 18 21 21 19 19 18 18 17 19 31 34 36

GFSCGP_sfc_temp_117.txt.gz
Temp
48 44 41 43 41 43 41 39 39 40 49 46 45 49 55 58 52 52 52 53 55 56 61 62 62 62 61 61 61 63 63 64 64 62 59 59 60 60 60 61 62 61 61 59
44 41 47 48 45 43 40 37 36 43 48 45 44 45 51 52 52 55 56 55 55 55 57 59 60 60 61 62 63 63 64 65 64 66 65 64 63 60 63 60 58 60 60 61
44 46 52 47 42 41 40 39 37 39 44 43 40 41 47 49 53 55 54 59 59 60 60 60 58 60 61 62 62 63 64 65 65 67 63 59 59 57 56 56 59 59 61 61
43 47 47 44 43 44 37 44 44 42 39 33 40 32 43 46 50 51 57 58 58 59 60 63 61 60 61 63 64 64 65 64 65 66 63 63 62 60 62 63 62 61 61 61
40 42 44 41 42 46 41 46 44 42 38 37 37 36 39 45 47 49 55 58 59 61 62 62 62 63 62 65 65 64 64 64 65 65 66 63 63 64 63 61 59 59 59 61
43 49 48 44 46 48 46 42 40 38 37 32 40 36 39 45 45 49 53 57 59 61 61 63 64 65 65 64 65 64 63 63 64 64 64 64 63 63 61 59 59 59 61 60
41 43 47 47 43 45 46 38 32 30 30 28 39 34 43 46 49 51 55 55 57 56 58 58 59 58 62 62 63 64 62 62 63 63 63 64 64 63 63 61 60 60 59 60
34 30 41 46 45 41 41 42 32 25 25 29 33 31 41 49 57 59 57 56 53 54 55 55 58 59 60 61 62 63 61 62 62 62 63 63 64 64 64 64 63 62 62 62
32 34 41 44 46 47 39 36 43 34 19 24 30 36 44 46 48 51 54 56 54 54 55 55 56 55 57 59 61 62 62 62 63 62 63 63 64 64 64 64 64 64 63 63
36 33 39 40 45 46 43 47 34 35 25 21 28 29 37 39 46 52 57 55 50 50 52 54 54 54 54 56 59 61 63 62 63 63 63 63 63 64 64 64 62 62 64 63
42 36 32 40 39 40 40 39 39 39 33 26 25 34 41 48 50 52 55 53 50 50 50 52 53 52 52 52 54 56 58 60 61 61 63 62 62 63 63 63 63 63 62 62
43 37 27 32 42 44 46 43 42 34 29 31 28 36 46 46 47 47 51 51 51 50 49 48 49 50 51 51 50 52 54 55 57 59 59 59 61 60 60 61 62 61 60 61
43 35 28 27 32 38 38 41 43 43 37 34 27 37 46 42 46 47 47 49 50 50 48 48 47 47 48 50 50 51 51 51 52 54 55 56 57 58 59 60 59 59 59 61
46 34 32 28 31 36 35 40 41 39 34 35 37 41 46 45 45 47 47 48 49 51 51 49 47 48 48 48 49 50 50 49 49 49 49 50 51 53 54 55 57 58 60 60
43 33 34 37 37 35 37 37 38 37 39 33 40 42 48 50 49 51 49 47 48 50 50 50 49 48 48 48 49 49 48 48 48 47 46 47 46 47 47 47 47 48 50 53
41 31 35 33 36 37 35 39 38 40 40 39 40 42 52 51 50 47 49 48 48 50 51 51 49 48 50 50 49 48 48 47 47 46 46 45 44 41 44 44 43 43 43 44
33 33 31 24 34 32 29 36 38 39 42 44 38 46 48 49 49 51 48 48 50 49 50 51 50 50 49 47 46 45 45 45 44 43 40 39 38 40 40 40 40 39 39 40
29 27 22 17 25 19 36 42 45 41 43 45 46 48 51 53 56 52 55 53 52 49 50 50 49 48 45 43 42 42 40 40 40 38 38 37 37 36 37 38 38 38 38 37
37 31 19 14 10 31 35 43 39 37 39 48 47 49 51 52 45 50 54 52 53 50 48 47 45 43 40 39 39 38 36 36 36 35 36 36 35 33 35 36 37 36 35 34
36 37 29 11 10 15 39 40 46 46 34 51 49 49 50 48 44 52 46 46 45 45 43 41 40 39 38 36 37 35 34 32 33 33 33 33 33 34 34 34 34 32 33 32
28 29 26 25 18 25 36 42 46 32 37 43 52 52 51 48 54 52 45 42 41 39 38 37 36 33 32 33 34 32 31 31 31 31 32 32 32 34 34 33 32 33 33 33
28 27 26 27 25 21 39 39 39 45 40 39 45 52 51 54 53 43 42 37 36 35 34 33 31 30 30 31 32 31 30 29 28 29 30 32 33 33 33 33 33 33 33 33
28 33 32 33 31 35 37 31 33 33 37 40 40 44 45 46 41 38 34 33 32 32 31 31 29 27 27 28 30 29 28 28 25 30 29 30 32 33 33 33 33 32 32 32
31 24 30 32 30 26 28 31 30 30 33 35 36 36 39 38 36 32 31 31 30 29 28 27 27 24 23 23 24 24 25 25 23 24 23 23 23 27 30 31 31 32 31 31
19 19 19 29 27 26 29 25 26 28 30 30 33 31 34 34 31 31 29 28 28 26 26 25 24 21 20 20 19 18 21 22 23 22 21 21 20 19 20 21 26 28 29 31
11 7 12 19 14 13 18 23 24 25 26 27 28 28 29 31 29 28 26 26 25 22 22 20 18 17 16 15 14 14 15 18 19 20 21 19 19 17 17 17 18 32 34 36

GFSCGP_sfc_temp_120.txt.gz
Temp
49 44 41 42 41 42 40 36 37 38 47 43 43 46 52 55 51 50 52 52 54 55 61 61 60 59 60 60 61 62 62 63 64 64 61 60 60 60 59 59 60 60 60 58
44 41 45 47 45 43 40 36 35 42 45 43 43 43 50 50 51 54 57 55 56 54 57 60 59 58 60 62 62 62 62 62 63 64 64 61 61 60 63 60 59 59 59 59
43 46 50 45 41 40 39 41 40 38 42 41 39 39 44 48 49 54 53 58 59 59 57 60 57 59 60 61 62 62 63 64 64 65 62 57 58 56 56 56 58 59 60 60
44 49 44 41 41 43 37 43 43 41 38 31 37 30 40 44 47 49 53 54 56 59 57 61 60 60 60 62 63 64 64 63 64 64 63 61 62 60 61 63 61 60 59 60
39 42 43 39 40 44 39 44 42 41 38 35 36 34 38 40 42 47 51 52 56 56 59 60 62 63 62 63 64 64 64 64 65 64 65 62 62 64 63 60 57 59 58 60
41 45 45 44 44 46 45 41 39 36 36 31 37 34 36 41 43 46 50 53 55 55 58 60 63 62 64 62 63 64 63 63 64 64 64 63 63 63 61 58 58 57 59 58
40 40 43 46 41 43 42 37 27 30 30 27 35 32 41 46 46 48 51 53 55 54 54 55 58 57 61 59 61 62 62 62 63 64 64 64 63 63 63 61 60 59 57 59
33 31 41 45 45 41 41 39 29 26 24 27 32 30 38 48 55 57 58 58 57 52 51 53 56 57 57 59 60 62 62 62 63 63 63 64 65 64 64 64 63 61 62 61
34 34 39 44 44 46 39 36 42 32 17 25 29 35 43 44 46 48 50 52 53 55 53 52 54 54 55 56 58 59 62 61 62 62 63 63 64 65 64 64 64 63 62 63
38 31 37 39 45 45 42 45 33 34 24 20 28 28 36 40 44 48 50 54 55 49 51 51 51 52 53 54 55 56 60 61 61 62 62 63 63 63 65 65 63 63 63 61
42 34 33 39 38 37 38 37 37 37 33 25 21 31 40 47 50 47 49 51 50 51 50 50 49 50 50 51 51 53 56 57 57 59 60 60 61 62 62 62 62 62 60 59
42 36 27 30 41 40 43 40 41 33 28 32 30 35 46 45 45 46 48 50 48 48 49 47 47 47 48 49 49 50 52 55 56 56 56 57 59 58 59 59 60 59 59 58
40 30 27 28 32 37 36 41 42 42 36 32 29 36 45 41 45 46 45 46 47 48 48 47 46 47 46 48 49 49 50 52 53 54 55 54 55 55 56 57 58 57 57 57
47 32 29 28 28 33 31 36 39 37 31 34 35 39 45 46 46 48 50 47 46 47 48 48 47 46 46 46 47 47 47 48 48 48 50 51 51 53 54 56 56 56 57 58
42 32 31 33 34 33 34 35 38 35 37 33 39 39 45 48 51 51 53 52 48 49 48 48 48 47 46 46 46 46 46 46 46 47 46 46 45 46 46 46 47 47 48 51
41 32 35 31 34 35 32 35 35 37 39 39 39 38 47 51 51 51 48 51 50 48 49 49 48 48 48 48 47 46 44 44 45 44 44 43 41 42 44 44 43 43 43 43
34 33 27 15 31 31 23 33 35 38 41 41 35 43 49 48 48 48 50 50 51 49 49 49 49 49 48 46 44 43 42 42 42 40 38 37 38 39 39 39 39 38 39 39
32 30 20 11 17 11 33 39 40 39 41 44 44 46 49 51 53 53 55 54 52 51 50 49 49 47 44 41 40 40 39 38 38 36 36 36 36 37 37 38 38 38 37 36
34 29 14 13 9 25 34 35 35 34 37 44 44 47 49 51 49 50 56 56 56 54 53 53 47 44 40 39 38 37 34 34 34 34 34 34 35 34 36 35 36 36 35 34
33 34 24 10 4 6 37 40 45 42 32 47 46 47 48 46 40 48 55 56 56 53 45 42 40 38 37 35 36 34 33 34 33 34 34 34 34 35 35 35 34 32 33 32
26 27 22 22 8 19 32 40 43 28 36 44 46 48 48 46 50 55 47 42 43 41 38 37 36 34 32 33 33 32 32 32 32 32 32 32 33 34 34 33 32 33 33 33
23 22 20 21 21 15 34 35 37 31 31 32 36 37 38 40 46 50 45 39 36 34 33 32 31 30 31 31 32 31 30 30 29 30 32 33 33 33 33 33 33 33 33 33
22 30 22 27 27 33 28 28 27 27 26 29 28 31 32 34 38 42 38 34 32 31 30 30 29 28 28 29 31 30 29 28 29 31 32 32 32 33 33 33 33 32 33 32
28 23 28 27 27 22 26 27 24 23 23 27 28 27 31 30 36 36 32 32 30 28 26 26 26 25 24 24 25 25 24 24 22 25 26 27 30 29 30 31 31 32 31 31
15 17 15 22 22 23 25 23 21 19 23 24 26 27 29 29 32 31 31 29 28 26 25 24 23 22 20 21 19 19 21 25 25 24 23 23 23 23 23 24 28 28 28 31
9 5 11 18 10 8 13 17 16 17 19 20 23 24 28 26 29 29 26 25 24 22 21 19 18 18 17 17 16 16 19 24 25 23 22 21 21 20 20 21 22 35 35 35